     2.00           OBSERVATION DATA    G (GPS)             RINEX VERSION / TYPE
teqc 1999Jul15 UNAVCO Archive Ops 19990825 17:15:35UTC      PGM / RUN BY / DATE
Solaris 2.3|S-Sparc|cc SC3.0|=+|*Sparc                      COMMENT
BIT 2 OF LLI FLAGS DATA COLLECTED UNDER A/S CONDITION       COMMENT
MILE                                                        MARKER NAME
Stirewalt/Abolins UNKNOWN                                   OBSERVER / AGENCY
3526A11458 TRIMBLE 4000SSE NP 6.12; SP 2.12                 REC # / TYPE / VERS
0220024657 TR GEOD L1/L2 GP                                 ANT # / TYPE
 -2278511.0000 -4576128.0000  3803878.0000                  APPROX POSITION XYZ
        1.2310        0.0000        0.0000                  ANTENNA: DELTA H/E/N
     1     1                                                WAVELENGTH FACT L1/2
     7    L1    L2    C1    P2    P1    D1    D2            # / TYPES OF OBSERV
    30.0000                                                 INTERVAL
NOTICE: YOUR USE OF THIS FILE IMPLIES YOUR                  COMMENT
ACCEPTANCE OF THE UNAVCO DATA SHARING POLICY                COMMENT
READ THE POLICY AT:                                         COMMENT
http://www.unavco.ucar.edu/data/data_policy.html            COMMENT
AND FOLLOW THE POLICY OR DELETE THIS FILE.                  COMMENT
                                                            COMMENT
RINEX file created by UNAVCO GPS Archive.                   COMMENT
For more information contact archive@unavco.ucar.edu        COMMENT
Monument ID: EJDGHTV5-11083-1995a                           COMMENT
UNAVCO 4-char name: MILE                                    COMMENT
4-char name from Log or data file: MILE                     COMMENT
Monument location: 36.8377 -116.4693 1483.225759            COMMENT
Original XYZ: -2278511.2989 -4576125.4001 3803882.5324      COMMENT
New XYZ position is based on association with SCEC monument COMMENT
E1G0J9T0+0011.                                              COMMENT
Visit ID: 28724 RawID: 12600                                COMMENT
Antenna height measured: 1.311                              COMMENT
Antenna height measured type: S                             COMMENT
Corrected antenna height validated? Y                       COMMENT
If Yes, then logsheet & data file values are identical      COMMENT
End of DB comments                                          COMMENT
SNR is mapped to RINEX snr flag value [1-9]                 COMMENT
L1: 3 -> 1; 8 -> 5; 40 -> 9                                 COMMENT
L2: 1 -> 1; 5 -> 5; 60 -> 9                                 COMMENT
  1996     8    31    14    44    0.0000000     GPS         TIME OF FIRST OBS
                                                            END OF HEADER
 96  8 31 14 44  0.0000000  0  5G 4G 5G 6G16G24
     31128.89515                  23681518.313
     -2833.641
      2905.96457                  20390273.0394
      -272.7814
    -30406.77855                  23463346.3754
      2756.5004
    -31843.90756                  22216069.3524
      2885.0634
     14536.97856                  21003646.5634
     -1328.1414
 96  8 31 14 44 30.0000000  0  5G 4G 5G 6G16G24
    116601.60845                  23697783.0164
     -2863.7974      11788.10947
       982.52457                  20391963.0944   20391966.2114
      -318.6414
      -248.2914    -112647.00645  23447695.9924
      2726.8914
   -117773.87246     -6652.27756  22199717.4384   22199722.3364
      2844.1414       2216.2134
     54981.65746      5313.87856  21011343.0864   21011347.1764
     -1367.4224      -1065.5244
 96  8 31 14 45  0.0000000  0  5G 4G 5G 6G16G24
    202987.64745     60613.39355  23714222.4924   23714225.2114
     -2895.7034      -2256.3924
     22046.65247      8976.22847  20393915.6724   20393918.1684
      -365.5944       -284.8784
   -193989.62345    -23154.27355  23432217.8364   23432220.4494
      2695.6724       2100.5244
   -202464.45846    -72644.88246  22183602.2344   22183605.5514
      2801.5004       2182.9874
     96605.86346     37748.38046  21019264.5314   21019267.6374
     -1407.9374      -1097.0944
 96  8 31 14 45 30.0000000  0  5G 4G 5G 6G16G24
    290383.66045    128714.16945  23730853.5164   23730855.9064
     -2931.7344      -2284.4684
     33763.73047     18106.43747  20396145.3134   20396147.6684
      -416.6724       -324.6794
   -274354.62845    -85776.32545  23416924.0474   23416926.6484
      2660.8754       2073.4094
   -285827.77746   -137603.25346  22167738.6254   22167742.2344
      2754.9844       2146.7414
    139493.45046     71167.30246  21027425.3914   21027428.6844
     -1452.3594      -1131.7094
 96  8 31 14 46  0.0000000  0  5G 4G 5G 6G16G24
    378992.42645    197759.96545  23747714.7194   23747718.0124
     -2976.1254      -2319.0584
     47145.15847     28533.52847  20398691.6024   20398694.1334
      -476.0624       -370.9584
   -353546.23345   -147484.03245  23401855.9304   23401858.8014
      2617.9224       2039.9394
   -367668.96646   -201375.57346  22152164.4064   22152168.3094
      2700.4694       2104.2614
    183839.79546    105722.90446  21035864.3284   21035867.5164
     -1504.5944      -1172.4114
 96  8 31 14 46 30.0000000  0  5G 4G 5G 6G16G24
    468965.28445    267868.66145  23764836.2034   23764838.3244
     -3021.6564      -2354.5374
     62340.27347     40373.87947  20401583.2734   20401585.5124
      -536.5314       -418.0764
   -431417.23745   -208162.70445  23387036.6024   23387038.7814
      2573.8754       2005.6174
   -447844.08946   -263849.66446  22136907.9224   22136911.8954
      2645.0784       2061.1004
    229783.01546    141522.82846  21044607.0084   21044610.3244
     -1557.8444      -1213.9044
 96  8 31 14 47  0.0000000  0  5G 4G 5G 6G16G24
    560255.80245    339004.11044  23782208.2814   23782211.9494
     -3062.8284      -2386.6194
     79306.07547     53593.98747  20404811.7194   20404814.2034
      -593.0784       -462.1394
   -508011.39945   -267846.43345  23372461.3754   23372464.5514
      2534.0164       1974.5584
   -526411.16346   -325070.72046  22121956.8914   22121960.8874
      2594.3594       2021.5794
    277275.61846    178530.05646  21053644.5784   21053648.1884
     -1606.6724      -1251.9524
 96  8 31 14 47 30.0000000  0  5G 4G 5G 6G16G24
    652676.42945    411020.15744  23799795.3444   23799798.4494
     -3098.5624      -2414.4644
     97882.35347     68069.01447  20408346.9064   20408349.3674
      -645.5944       -503.0604
   -583504.32045   -326672.06645  23358095.6254   23358098.4614
      2498.4844       1946.8714
   -603556.14746   -385183.67346  22107276.7664   22107280.4804
      2548.3594       1985.7354
    326132.17846    216600.11246  21062941.6724   21062945.0704
     -1650.4534      -1286.0674
 96  8 31 14 48  0.0000000  0  5G 4G 5G 6G16G24
    746085.54545    483806.44845  23817571.0554   23817574.0314
     -3128.0944      -2437.4764
    117962.33747     83715.75947  20412168.0944   20412170.2274
      -692.3754       -539.5134
   -658003.18045   -384723.08945  23343918.8754   23343921.1484
      2468.8134       1923.7504
   -679385.73046   -444271.61746  22092846.7114   22092850.6484
      2507.5164       1953.9084
    376219.00646    255628.81646  21072472.9144   21072476.2194
     -1687.9844      -1315.3124
 96  8 31 14 48 30.0000000  0  5G 4G 5G 6G16G24
    840347.11045    557256.99345  23835508.1254   23835510.7854
     -3155.4844      -2458.8194
    139408.36447    100426.95147  20416249.0314   20416251.3984
      -736.9374       -574.2374
   -731646.63345   -442107.58245  23329904.6644   23329907.5354
      2441.2344       1902.2614
   -754014.52146   -502423.88346  22078645.3444   22078648.9304
      2468.2504       1923.3124
    427403.82746    295513.09946  21082213.1484   21082216.5944
     -1723.7974      -1343.2184
 96  8 31 14 49  0.0000000  0  5G 4G 5G 6G16G24
    935371.72445    631302.12045  23853590.6174   23853594.5314
     -3179.3914      -2477.4474
    162141.55947    118141.13047  20420574.7894   20420577.1804
      -778.5624       -606.6724
   -804520.85545   -498892.64845  23316037.6564   23316039.6254
      2417.1254       1883.4744
   -827518.48546   -559699.66146  22064657.8364   22064661.8444
      2432.0004       1895.0654
    479604.03746    336188.59246  21092146.5164   21092149.7974
     -1756.1724      -1368.4464
 96  8 31 14 49 30.0000000  0  5G 4G 5G 6G16G24
   1031095.32445    705891.92245  23871806.2894   23871808.5164
     -3201.9534      -2495.0284
    186104.16447    136813.29147  20425134.7344   20425137.1374
      -818.5784       -637.8534
   -876686.45145   -555125.56045  23302303.9844   23302306.3874
      2394.1094       1865.5404
   -899949.98346   -616139.74946  22050874.7344   22050878.8484
      2396.8284       1867.6584
    532763.54546    377611.59246  21102262.6024   21102265.6484
     -1787.4844      -1392.8454
 96  8 31 14 50  0.0000000  0  5G 4G 5G 6G16G24
   1127483.61645    780999.64044  23890148.3134   23890151.6764
     -3223.7664      -2512.0254
    211241.14447    156400.55347  20429918.4844   20429920.7464
      -856.8444       -667.6704
   -948183.32045   -610837.38045  23288700.0314   23288702.3284
      2372.7664       1848.9084
   -971341.98446   -671769.84046  22037289.1724   22037293.2274
      2363.1094       1841.3844
    586844.80246    419752.83946  21112553.8134   21112557.3164
     -1817.6874      -1416.3804
 96  8 31 14 50 30.0000000  0  5G 4G 5G 6G16G24
   1224519.98745    856612.37044  23908614.1174   23908617.9844
     -3245.2194      -2528.7424
    237511.09047    176870.64147  20434917.5004   20434919.8674
      -894.4534       -696.9764
  -1019055.13945   -666062.14645  23275212.5784   23275215.8364
      2352.0164       1832.7394
  -1041746.00846   -726630.10346  22023891.6804   22023896.0164
      2330.6564       1816.0964
    641828.04946    462596.92146  21123016.8444   21123020.2194
     -1847.9064      -1439.9274
 96  8 31 14 51  0.0000000  0  5G 4G 5G 6G16G24
   1322180.97445    932711.82143  23927198.3444   23927202.5514
     -3265.0314      -2544.1804
    264892.01547    198206.42247  20440127.9224   20440130.1024
      -930.3754       -724.9684
  -1089318.58845   -720812.87445  23261841.9614   23261844.1174
      2332.6724       1817.6664
  -1111203.47746   -780752.77246  22010674.4144   22010678.8094
      2300.2814       1792.4274
    697694.08446    506128.90446  21133647.6954   21133651.1174
     -1876.0624      -1461.8674
 96  8 31 14 51 30.0000000  0  6G 4G 5G 6G10G16G24
   1420436.77745   1009274.77343  23945895.9224   23945898.3014
     -3285.2974      -2559.9724
    293333.03447    220368.25747  20445539.8674   20445542.1294
      -965.5164       -752.3504
  -1159006.65045   -775115.23145  23248579.5164   23248582.2814
      2313.3284       1802.5934
         1.71856         1.16156  21670369.4924   21670373.4064
      1822.3754       1420.0324
  -1179754.50646   -834169.12846  21997629.5634   21997633.5824
      2269.7664       1768.6494
    754402.82546    550317.53846  21144439.0784   21144442.5234
     -1904.4224      -1483.9654
 96  8 31 14 52  0.0000000  0  6G 4G 5G 6G10G16G24
   1519275.67845   1086292.05743  23964704.3054   23964705.7704
     -3304.4064      -2574.8624
    322803.44247    243332.21047  20451147.7424   20451150.1214
      -999.5784       -778.8924
  -1228147.69145   -828991.34645  23235423.7734   23235426.4804
      2295.6254       1788.7994
    -54161.89746    -42204.22846  21660062.4144   21660066.2464
      1788.1724       1393.3814
  -1247411.93546   -886889.16546  21984754.8834   21984758.8324
      2240.3914       1745.7594
    811938.76246    595150.73446  21155387.6884   21155391.1914
     -1931.7344      -1505.2484
 96  8 31 14 52 30.0000000  0  6G 4G 5G 6G10G16G24
   1618662.22345   1163736.08743  23983616.9454   23983619.0554
     -3321.7194      -2588.3524
    353280.29947    267080.41047  20456947.5084   20456949.9344
     -1032.7194       -804.7164
  -1296767.60845   -882461.38245  23222365.7664   23222369.3524
      2278.3754       1775.3574
   -107317.79246    -83624.37446  21649947.2974   21649951.7154
      1755.0004       1367.5324
  -1314201.18646   -938932.70846  21972045.6094   21972049.3014
      2211.4844       1723.2354
    870273.04846    640606.02446  21166488.1724   21166491.7704
     -1957.6414      -1525.4344
 96  8 31 14 53  0.0000000  0  6G 4G 5G 6G10G16G24
   1718552.77345   1241572.86043  24002625.2424   24002628.2074
     -3338.1254      -2601.1364
    384749.47047    291601.84647  20462935.9694   20462938.4884
     -1065.6564       -830.3814
  -1364872.39945   -935530.02845  23209405.6564   23209408.4924
      2261.5164       1762.2204
   -159488.16846   -124276.58246  21640019.6414   21640023.8364
      1722.7504       1342.4034
  -1380116.28346   -990295.09746  21959502.0944   21959505.9614
      2182.2194       1700.4304
    929362.09146    686649.43246  21177732.4924   21177736.1954
     -1982.0624      -1544.4644
 96  8 31 14 53 30.0000000  0  6G 4G 5G 6G10G16G24
   1818951.23245   1319805.39543  24021730.4064   24021732.5164
     -3355.0004      -2614.2864
    417221.20147    316904.48546  20469114.9694   20469117.6054
     -1099.2194       -856.5344
  -1432456.58945   -988192.99845  23196545.0314   23196548.7114
      2244.0164       1748.5844
   -210694.36446   -164177.48246  21630275.5634   21630279.1724
      1691.0474       1317.6994
  -1445123.32846  -1040949.91046  21947131.5634   21947135.6054
      2151.4534       1676.4574
    989202.03046    733277.95646  21189119.7424   21189123.1054
     -2007.2974      -1564.1274
 96  8 31 14 54  0.0000000  0  6G 4G 5G 6G10G16G24
   1919812.67345   1398398.68643  24040924.4384   24040928.4924
     -3369.3284      -2625.4504
    450680.40647    342976.58747  20475481.8524   20475484.6644
     -1131.7034       -881.8474
  -1499538.11545  -1040464.28845  23183780.1174   23183783.3164
      2227.7194       1735.8854
   -260982.89546   -203363.32346  21620705.8834   21620709.4344
      1661.0944       1294.3594
  -1509235.69446  -1090907.56346  21934931.6174   21934935.5784
      2122.4534       1653.8604
   1049764.46246    780469.46646  21200644.4844   21200647.8244
     -2030.3444      -1582.0864
 96  8 31 14 54 30.0000000  0  6G 4G 5G 6G10G16G24
   2021093.98545   1477319.16243  24060197.4534   24060199.6094
     -3382.8914      -2636.0194
    485108.22147    369803.45247  20482033.5394   20482036.1884
     -1163.5944       -906.6964
  -1566133.67245  -1092356.91445  23171107.1954   23171109.6334
      2212.0314       1723.6614
   -310369.07546   -241846.03146  21611308.1414   21611311.7034
      1631.2344       1271.0924
  -1572478.15146  -1140187.36546  21922896.7194   21922900.5984
      2093.3754       1631.2014
   1111004.93446    828189.31646  21212298.3204   21212301.7424
     -2052.5314      -1599.3754
 96  8 31 14 55  0.0000000  0  6G 4G 5G 6G10G16G24
   2122791.81845   1556564.23143  24079550.1094   24079553.3444
     -3396.9694      -2646.9894
    520490.66047    397374.18247  20488766.3594   20488769.2194
     -1195.0474       -931.2054
  -1632265.74445  -1143888.37245  23158522.8984   23158525.3954
      2196.8754       1711.8514
   -358865.60346   -279635.50946  21602079.2894   21602082.7814
      1601.8754       1248.2144
  -1634844.65146  -1188784.60146  21911029.2034   21911032.9884
      2064.5944       1608.7744
   1172915.57946    876431.37346  21224079.5864   21224083.1134
     -2074.8444      -1616.7614
 96  8 31 14 55 30.0000000  0  6G 4G 5G 6G10G16G24
   2224923.60444   1636147.42243  24098984.5634   24098986.6954
     -3411.4224      -2658.2514
    556812.51347    425676.92147  20495678.3284   20495681.0704
     -1226.1414       -955.4344
  -1697937.96745  -1195061.50545  23146025.1884   23146027.8244
      2181.5164       1699.8824
   -406475.81146   -316734.34646  21593019.8204   21593023.1484
      1572.3594       1225.2154
  -1696346.73146  -1236708.27246  21899325.4064   21899329.2034
      2035.9694       1586.4694
   1235512.54946    925208.23146  21235991.1174   21235994.6454
     -2098.0474      -1634.8424
 96  8 31 14 56  0.0000000  0  6G 4G 5G 6G10G16G24
   2327449.96644   1716038.05743  24118494.9924   24118499.2344
     -3423.9694      -2668.0284
    594024.43047    454673.21147  20502759.6174   20502762.4534
     -1254.7814       -977.7524
  -1763193.56045  -1245910.00245  23133607.5314   23133610.1914
      2168.8444       1690.0084
   -453235.78046   -353170.66346  21584121.5474   21584124.8284
      1544.7974       1203.7384
  -1757042.76146  -1284003.85346  21887775.2034   21887778.9414
      2010.1724       1566.3684
   1298761.72546    974493.30046  21248026.9774   21248030.4454
     -2118.6874      -1650.9254
 96  8 31 14 56 30.0000000  0  6G 4G 5G 6G10G16G24
   2430382.01744   1796244.80243  24138081.9304   24138084.8134
     -3438.2504      -2679.1564
    632110.53747    484350.69047  20510007.0944   20510010.1884
     -1284.4374      -1000.8604
  -1828055.67945  -1296451.88345  23121264.5004   23121267.0434
      2155.1254       1679.3184
   -499144.12746   -388943.37846  21575385.5164   21575389.1254
      1515.7814       1181.1284
  -1816935.39646  -1330673.40746  21876378.0314   21876382.0744
      1982.6094       1544.8904
   1362655.42146   1024280.59446  21260185.6254   21260188.8834
     -2141.0624      -1668.3604
 96  8 31 14 57  0.0000000  0  6G 4G 5G 6G10G16G24
   2533743.93145   1876786.53242  24157751.8594   24157753.8874
     -3452.5624      -2690.3084
    671089.12347    514723.60147  20517424.5164   20517427.3634
     -1314.1724      -1024.0304
  -1892493.47845  -1346663.13745  23109002.6414   23109006.0394
      2140.6094       1668.0074
   -544178.57946   -424035.13046  21566815.4064   21566818.8984
      1486.3594       1158.2024
  -1876016.10746  -1376710.29046  21865135.3284   21865139.2664
      1956.2194       1524.3264
   1427220.46046   1074591.01346  21272472.1884   21272475.6684
     -2163.2194      -1685.6254
 96  8 31 14 57 30.0000000  0  6G 4G 5G 6G10G16G24
   2637508.58645   1957642.08143  24177497.4844   24177499.6644
     -3465.3594      -2700.2804
    710943.37347    545778.85047  20525008.5864   20525011.2584
     -1343.2814      -1046.7134
  -1956518.16345  -1396552.47545  23096819.2584   23096822.4104
      2127.3754       1657.6954
   -588346.62446   -458451.76046  21558410.6644   21558413.9574
      1457.8284       1135.9704
  -1934325.74946  -1422146.33846  21854039.2114   21854043.2304
      1930.7664       1504.4934
   1492425.61746   1125400.22546  21284880.0784   21284883.8524
     -2184.0164      -1701.8304
 96  8 31 14 58  0.0000000  0  6G 4G 5G 6G10G16G24
   2741659.75045   2038798.80943  24197316.1804   24197320.0944
     -3477.8124      -2709.9844
    751683.00247    577524.00947  20532761.0784   20532763.5634
     -1372.5784      -1069.5414
  -2020141.23645  -1446128.86945  23084712.1804   23084715.5434
      2114.3754       1647.5654
   -631648.76546   -492193.65546  21550170.5314   21550173.8594
      1429.0944       1113.5804
  -1991864.12846  -1466981.40546  21843090.0314   21843093.8524
      1905.2034       1484.5744
   1558250.73646   1176692.52646  21297406.4844   21297409.6954
     -2204.0314      -1717.4274
 96  8 31 14 58 30.0000000  0  6G 4G 5G 6G10G16G24
   2846173.74945   2120238.26843  24217204.6884   24217208.4024
     -3489.7664      -2719.2984
    793303.57947    609955.61247  20540681.4144   20540683.8524
     -1402.2194      -1092.6384
  -2083368.45645  -1495396.82045  23072680.9924   23072684.2854
      2100.5474       1636.7904
   -674087.52446   -525262.79046  21542094.4384   21542098.1174
      1400.1884       1091.0554
  -2048639.38546  -1511221.83146  21832286.1094   21832290.1644
      1880.0004       1464.9354
   1624664.99246   1228443.89046  21310044.6564   21310047.8914
     -2223.5784      -1732.6584
 96  8 31 14 59  0.0000000  0  6G 4G 5G 6G10G16G24
   2951053.03545   2201962.35643  24237162.3834   24237164.8794
     -3502.1874      -2728.9774
    835820.45847    643085.63847  20548772.0944   20548774.8954
     -1432.1564      -1115.9664
  -2146177.26845  -1544338.72245  23060728.8984   23060732.0744
      2086.7814       1626.0634
   -715658.56846   -557655.78546  21534183.6884   21534187.4734
      1371.2504       1068.5064
  -2104656.61246  -1554871.59046  21821626.2274   21821630.1524
      1854.3594       1444.9554
   1691663.00546   1280650.13246  21322793.9924   21322797.4494
     -2242.8754      -1747.6954
 96  8 31 14 59 30.0000000  0  6G 4G 5G 6G10G16G24
   3056294.27445   2283968.48943  24257189.6334   24257194.1094
     -3513.9694      -2738.1574
    879227.99647    676909.68247  20557032.2194   20557034.7504
     -1461.7664      -1139.0384
  -2208586.80945  -1592969.51045  23048852.1024   23048855.1254
      2073.7664       1615.9214
   -756377.26746   -589384.62046  21526435.2814   21526439.3484
      1343.2194       1046.6644
  -2159896.66646  -1597915.75946  21811114.4144   21811118.2344
      1828.1414       1424.5254
   1759237.80946   1333305.81746  21335652.8754   21335656.0164
     -2262.1874      -1762.7444
 96  8 31 15  0  0.0000000  0  6G 4G 5G 6G10G16G24
   3161887.84845   2366249.15043  24277283.5944   24277285.4454
     -3525.9534      -2747.4964
    923518.27047    711421.58247  20565460.3054   20565462.8134
     -1491.0314      -1161.8434
  -2270598.38445  -1641290.20445  23037051.7734   23037054.8914
      2060.0944       1605.2684
   -796251.29346   -620455.26646  21518847.5864   21518851.2074
      1314.8134       1024.5294
  -2214347.70646  -1640345.11246  21800752.9144   21800756.7114
      1801.5944       1403.8394
   1827395.05046   1386415.35346  21348623.0394   21348626.5554
     -2281.8754      -1778.0844
 96  8 31 15  0 30.0000000  0  6G 4G 5G 6G10G16G24
   3267839.78345   2448809.08443  24297445.3444   24297449.6454
     -3536.9374      -2756.0554
    968680.09547    746612.60047  20574054.4454   20574056.9654
     -1519.0624      -1183.6854
  -2332198.50845  -1689290.28845  23025329.4844   23025332.2974
      2047.3284       1595.3214
   -835280.55646   -650867.65446  21511420.4384   21511423.8244
      1287.9534       1003.6004
  -2268005.45346  -1682156.31246  21790542.1954   21790546.0634
      1776.1564       1384.0184
   1896141.53746   1439984.04346  21361704.8984   21361708.1914
     -2300.6564      -1792.7194
 96  8 31 15  1  0.0000000  0  6G 4G 5G 6G10G16G24
   3374121.87845   2531626.29043  24317670.6724   24317673.1914
     -3548.3284      -2764.9314
   1014680.18447    782456.81447  20582807.9924   20582810.5594
     -1547.4694      -1205.8204
  -2393430.50045  -1737003.50045  23013678.0084   23013680.7624
      2034.8914       1585.6294
   -873503.70446   -680651.90746  21504146.8524   21504150.3794
      1260.2194        981.9894
  -2320884.79846  -1723360.97346  21780479.8364   21780483.5634
      1749.1564       1362.9794
   1965466.03646   1494003.12946  21374896.8914   21374900.5594
     -2320.9844      -1808.5594
 96  8 31 15  1 30.0000000  0  6G 4G 5G 6G10G16G24
   3480730.75845   2614698.12942  24337957.7424   24337960.4024
     -3558.5784      -2772.9184
   1061526.54947    818960.46447  20591722.5004   20591724.9734
     -1575.3284      -1227.5284
  -2454290.96745  -1784427.21845  23002096.4224   23002099.2704
      2022.8134       1576.2184
   -910893.93246   -709787.12446  21497031.9304   21497035.2344
      1232.5784        960.4504
  -2372962.38446  -1763940.88946  21770569.4304   21770573.0864
      1723.1564       1342.7194
   2035397.02946   1548494.80846  21388204.1484   21388207.7344
     -2340.6564      -1823.8884
 96  8 31 15  2  0.0000000  0  6G 4G 5G 6G10G16G24
   3587635.49144   2698000.49643  24358301.1484   24358304.4534
     -3568.5164      -2780.6624
   1109192.97347    856103.12847  20600793.2424   20600795.8094
     -1602.5314      -1248.7264
  -2514802.81145  -1831579.28145  22990581.2894   22990583.6214
      2011.2664       1567.2204
   -947456.39346   -738277.33046  21490074.1414   21490077.6454
      1204.7664        938.7784
  -2424281.51346  -1803929.79946  21760803.5084   21760807.4574
      1698.0164       1323.1294
   2105895.47346   1603428.65546  21401619.6804   21401623.0434
     -2359.2974      -1838.4134
 96  8 31 15  2 30.0000000  0  6G 4G 5G 6G10G16G24
   3694861.54144   2781553.22742  24378704.9224   24378707.6174
     -3579.3124      -2789.0754
   1157707.41647    893906.58347  20610025.4384   20610027.9694
     -1631.3284      -1271.1654
  -2574948.78345  -1878446.25345  22979136.2114   22979139.2814
      1999.0314       1557.6874
   -983153.98646   -766093.61446  21483281.3364   21483284.5234
      1175.4694        915.9504
  -2474820.76546  -1843311.00846  21751186.5704   21751190.4964
      1671.6724       1302.6014
   2176971.49546   1658812.56946  21415145.1254   21415148.3484
     -2378.6874      -1853.5234
 96  8 31 15  3  0.0000000  0  6G 4G 5G 6G10G16G24
   3802405.29844   2865353.51343  24399169.8834   24399173.4694
     -3589.8754      -2797.3054
   1207083.65647    932381.56347  20619421.1414   20619423.5664
     -1660.1094      -1293.5924
  -2634738.56445  -1925035.67145  22967758.4304   22967760.5634
      1987.0944       1548.3854
  -1017964.55146   -793218.71146  21476657.1024   21476660.5474
      1145.5784        892.6584
  -2524569.50546  -1882076.22546  21741719.5164   21741723.5824
      1645.2664       1282.0254
   2248625.10646   1714646.54546  21428780.3914   21428783.8594
     -2397.7974      -1868.4134
 96  8 31 15  3 30.0000000  0  5G 5G 6G10G16G24
   1257302.35747    971513.00747  20628977.5944   20628979.8674
     -1687.9534      -1315.2884
  -2694181.06946  -1971354.48845  22956447.2894   22956449.5984
      1975.7664       1539.5584
  -1051908.81546   -819668.76446  21470197.5004   21470201.0634
      1117.4224        870.7184
  -2573559.57946  -1920250.27646  21732396.9144   21732400.7814
      1620.6884       1262.8734
   2320814.44846   1770897.98046  21442517.3914   21442521.1524
     -2414.7974      -1881.6604
 96  8 31 15  4  0.0000000  0  5G 5G 6G10G16G24
   1308356.86347   1011295.72647  20638693.1334   20638695.4184
     -1715.5784      -1336.8144
  -2753281.99345  -2017407.13345  22945200.2034   22945202.6174
      1964.3284       1530.6454
  -1085005.95546   -845458.72746  21463899.4224   21463902.8444
      1089.3284        848.8274
  -2621799.57146  -1957839.85046  21723217.2194   21723221.0744
      1595.2504       1243.0524
   2393523.61646   1827554.46546  21456353.8594   21456357.3404
     -2432.4694      -1895.4304
 96  8 31 15  4 30.0000000  0  5G 5G 6G10G16G24
   1360245.10447   1051728.11247  20648566.9694   20648569.4884
     -1742.8284      -1358.0484
  -2812036.09345  -2063189.53445  22934019.7504   22934022.3524
      1953.2814       1522.0374
  -1117266.28446   -870596.62346  21457760.4224   21457763.9494
      1062.1724        827.6664
  -2669263.55446  -1994824.74646  21714185.3914   21714189.0824
      1569.5944       1223.0604
   2466768.94046   1884628.74346  21470292.0084   21470295.1954
     -2449.8594      -1908.9814
 96  8 31 15  5  0.0000000  0  5G 5G 6G10G16G24
   1412933.52647   1092784.01147  20658593.2344   20658595.9534
     -1769.6414      -1378.9414
  -2870467.45345  -2108720.44445  22922900.3204   22922903.0864
      1942.1564       1513.3694
  -1148733.37046   -895116.40746  21451772.6414   21451776.4024
      1035.7034        807.0414
  -2715970.24046  -2031219.54546  21705297.3134   21705301.0164
      1544.2974       1203.3484
   2540525.60946   1942101.46546  21484327.2664   21484330.5354
     -2467.2344      -1922.5204
 96  8 31 15  5 30.0000000  0  5G 5G 6G10G16G24
   1466427.53747   1134467.64347  20668772.9774   20668775.6604
     -1796.3124      -1399.7244
  -2928555.33545  -2153983.70845  22911847.0944   22911849.4964
      1930.7814       1504.5054
  -1179399.27546   -919011.89946  21445936.8524   21445940.9534
      1008.7974        786.0754
  -2761912.04546  -2067018.33046  21696554.7974   21696558.5234
      1518.7814       1183.4664
   2614810.76446   1999986.00246  21498463.0634   21498466.2734
     -2484.8124      -1936.2184
 96  8 31 15  6  0.0000000  0  5G 5G 6G10G16G24
   1520696.75147   1176755.33347  20679099.8914   20679102.7504
     -1821.7034      -1419.5094
  -2986322.65746  -2198997.18845  22900854.2584   22900856.4614
      1920.3914       1496.4084
  -1209268.57246   -942286.65646  21440252.9614   21440256.4064
       982.4384        765.5364
  -2807102.38946  -2102231.56646  21687955.1644   21687959.1604
      1493.8594       1164.0464
   2689609.22846   2058270.51346  21512696.8594   21512700.1294
     -2501.7034      -1949.3794
 96  8 31 15  6 30.0000000  0  5G 5G 6G10G16G24
   1575749.85347   1219653.84447  20689576.3054   20689578.8594
     -1848.4064      -1440.3174
  -3043769.63946  -2243761.05445  22889922.5474   22889925.2304
      1909.4844       1487.9104
  -1238335.57646   -964936.25446  21434721.7974   21434725.2664
       955.3134        744.3994
  -2851538.41346  -2136857.01446  21679499.2814   21679503.1024
      1468.7034       1144.4444
   2764918.87046   2116953.34746  21527027.9224   21527031.4144
     -2518.8594      -1962.7484
 96  8 31 15  7  0.0000000  0  5G 5G 6G10G16G24
   1631608.51647   1263180.06347  20700205.9924   20700208.3484
     -1875.4064      -1461.3564
  -3100885.46545  -2288266.86945  22879053.4064   22879056.2304
      1898.2664       1479.1684
  -1266579.10446   -986944.17446  21429347.1334   21429350.5434
       927.7034        722.8864
  -2895225.20946  -2170898.64646  21671186.3134   21671189.8984
      1443.9844       1125.1834
   2840744.80346   2176038.48746  21541457.1094   21541460.5784
     -2536.0164      -1976.1164
 96  8 31 15  7 30.0000000  0  5G 5G 6G10G16G24
   1688270.69947   1307332.40247  20710988.3054   20710990.8484
     -1901.5164      -1481.7004
  -3157664.12045  -2332509.95645  22868248.6564   22868251.7274
      1887.4694       1470.7554
  -1293993.01346  -1008305.64246  21424130.3754   21424133.9614
       900.6094        701.7744
  -2938172.76046  -2204364.24846  21663013.4454   21663016.7504
      1419.7194       1106.2744
   2917078.96946   2235519.65146  21555982.8914   21555986.3014
     -2552.1874      -1988.7184
 96  8 31 15  8  0.0000000  0  5G 5G 6G10G16G24
   1745714.32247   1352093.65147  20721919.4774   20721922.1604
     -1927.9534      -1502.3014
  -3214118.81245  -2376500.61545  22857505.8444   22857508.6684
      1876.3444       1462.0864
  -1320610.29546  -1029046.36046  21419065.1804   21419068.7894
       874.0634        681.0884
  -2980391.61646  -2237262.03446  21654979.5004   21654983.0044
      1394.8444       1086.8914
   2993891.64546   2295373.67946  21570599.8984   21570603.5314
     -2568.5004      -2001.4294
 96  8 31 15  8 30.0000000  0  5G 5G 6G10G16G24
   1803942.36847   1397466.14747  20732999.9774   20733002.3674
     -1953.7034      -1522.3664
  -3270249.21545  -2420238.57345  22846824.3524   22846827.3524
      1865.6254       1453.7344
  -1346441.22346  -1049174.34046  21414149.7584   21414153.4264
       848.0164        660.7914
  -3021864.10346  -2269578.23246  21647087.5314   21647091.3284
      1369.9844       1067.5204
   3071180.91046   2355599.07446  21585307.7114   21585311.3204
     -2584.1724      -2013.6404
 96  8 31 15  9  0.0000000  0  5G 5G 6G10G16G24
   1862932.76747   1443432.68347  20744225.4064   20744227.8204
     -1978.9224      -1542.0174
  -3326052.07646  -2463721.30545  22836205.5864   22836208.8554
      1854.7034       1445.2234
  -1371485.58546  -1068689.39946  21409384.1414   21409387.5634
       821.7194        640.3004
  -3062578.93346  -2301304.04946  21639339.5944   21639343.3674
      1344.4064       1047.5894
   3148942.41946   2416192.45446  21600104.8754   21600108.4844
     -2599.7974      -2025.8164
 96  8 31 15  9 30.0000000  0  5G 5G 6G10G16G24
   1922661.63147   1489974.64147  20755591.2274   20755593.8404
     -2002.8754      -1560.6824
  -3381541.36946  -2506959.69745  22825646.4774   22825649.2074
      1844.7814       1437.4924
  -1395749.99446  -1087596.71046  21404766.6484   21404770.1294
       796.0164        620.2724
  -3102531.42146  -2332435.83646  21631736.8524   21631740.8134
      1319.0944       1027.8654
   3227159.04446   2477140.46846  21614989.3054   21614992.4694
     -2614.4844      -2037.2614
 96  8 31 15 10  0.0000000  0  5G 5G 6G10G16G24
   1983122.41947   1537086.92847  20767096.8364   20767099.5784
     -2027.9064      -1580.1874
  -3436728.37146  -2549962.52745  22815144.5634   22815147.1884
      1834.4844       1429.4684
  -1419232.99646  -1105895.13846  21400298.3364   21400301.7344
       769.2504        599.4164
  -3141712.49846  -2362966.52446  21624281.0004   21624284.7504
      1292.9224       1007.4724
   3305825.43946   2538438.95346  21629958.8594   21629962.1884
     -2629.9844      -2049.3384
 96  8 31 15 10 30.0000000  0  5G 5G 6G10G16G24
   2044333.86447   1584784.14347  20778744.8134   20778747.5784
     -2052.4844      -1599.3384
  -3491615.73446  -2592731.89445  22804700.2664   22804703.2074
      1824.9064       1422.0054
  -1441898.26446  -1123556.37246  21395984.8914   21395988.5234
       742.0944        578.2554
  -3180120.10246  -2392894.49746  21616972.1644   21616975.7734
      1268.0784        988.1134
   3384953.90346   2600097.48646  21645016.6884   21645020.3674
     -2644.9374      -2060.9904
 96  8 31 15 11  0.0000000  0  5G 5G 6G10G16G24
   2106292.36047   1633063.47547  20790535.1954   20790537.9844
     -2077.6724      -1618.9654
  -3546196.97046  -2635262.71145  22794313.4224   22794316.1644
      1814.3914       1413.8114
  -1463737.08046  -1140573.61346  21391829.0784   21391832.7704
       714.2504        556.5584
  -3217781.75246  -2422241.21346  21609805.5784   21609809.0594
      1243.2974        968.8034
   3464535.87546   2662109.40746  21660160.7114   21660164.1804
     -2659.9844      -2072.7154
 96  8 31 15 11 30.0000000  0  5G 5G 6G10G16G24
   2168993.14147   1681921.21547  20802466.9924   20802469.7344
     -2102.3914      -1638.2264
  -3600481.71746  -2677562.49545  22783983.3284   22783985.7074
      1804.6884       1406.2504
  -1484756.47246  -1156952.33646  21387829.3594   21387832.9344
       687.0944        535.3984
  -3254722.12546  -2451025.89146  21602775.8134   21602779.0004
      1219.2974        950.1014
   3544552.02646   2724459.64946  21675387.2894   21675390.7704
     -2674.4064      -2083.9534
 96  8 31 15 12  0.0000000  0  5G 5G 6G10G16G24
   2232446.22547   1731365.16747  20814541.5474   20814544.0204
     -2127.8754      -1658.0844
  -3654475.92446  -2719635.88645  22773708.1724   22773710.9384
      1795.0164       1398.7134
  -1504960.97946  -1172696.08746  21383984.5944   21383987.9224
       659.7504        514.0914
  -3290938.27646  -2479246.24446  21595884.3134   21595887.6644
      1195.1254        931.2664
   3625002.77846   2787148.54346  21690696.3134   21690699.8404
     -2689.0944      -2095.3984
 96  8 31 15 12 30.0000000  0  5G 5G 6G10G16G24
   2296657.49547   1781399.90847  20826760.3834   20826763.0904
     -2152.9694      -1677.6384
  -3708191.56046  -2761492.21445  22763487.0084   22763489.8674
      1785.5634       1391.3474
  -1524352.87446  -1187806.63146  21380294.4144   21380297.6484
       633.0314        493.2714
  -3326434.24446  -2506905.40846  21589129.5864   21589132.6804
      1170.9384        912.4194
   3705892.08246   2850179.16346  21706089.1334   21706092.4024
     -2703.8594      -2106.9034
 96  8 31 15 13  0.0000000  0  5G 5G 6G10G16G24
   2361613.54947   1832015.00047  20839121.2504   20839124.0984
     -2178.1564      -1697.2654
  -3761614.97746  -2803120.83245  22753320.7894   22753323.3444
      1775.5634       1383.5554
  -1542955.80746  -1202302.40346  21376754.5234   21376757.7234
       606.5164        472.6104
  -3361193.07446  -2533990.18346  21582515.3524   21582518.6804
      1145.6414        892.7074
   3787224.74446   2913555.25446  21721566.4694   21721569.9844
     -2718.9694      -2118.6774
 96  8 31 15 13 30.0000000  0  5G 5G 6G10G16G24
   2427321.72847   1883216.16847  20851625.3594   20851627.8794
     -2202.0474      -1715.8814
  -3814765.68446  -2844536.94845  22743206.4534   22743209.2194
      1768.1094       1377.7484
  -1560778.09946  -1216189.88846  21373363.0084   21373366.2194
       581.9694        453.4824
  -3395198.16746  -2560487.63446  21576044.2734   21576047.6374
      1121.7194        874.0674
   3869003.13246   2977278.67346  21737128.2274   21737131.7424
     -2732.5944      -2129.2944
 96  8 31 15 14  0.0000000  0  5G 5G 6G10G16G24
   2493765.68147   1934990.66547  20864269.1884   20864271.7544
     -2227.1254      -1735.4224
  -3867669.11746  -2885760.37845  22733139.1174   22733141.4144
      1758.8914       1370.5644
  -1577844.12046  -1229488.05346  21370115.2504   21370118.6724
       556.0784        433.3084
  -3428473.88446  -2586416.73346  21569711.8284   21569715.1334
      1097.0314        854.8304
   3951210.28346   3041336.18846  21752771.7894   21752775.5984
     -2747.5784      -2140.9704
 96  8 31 15 14 30.0000000  0  5G 5G 6G10G16G24
   2560961.00747   1987350.64747  20877055.7584   20877058.2774
     -2251.6564      -1754.5374
  -3920275.07446  -2926752.01745  22723128.7504   22723130.6134
      1748.7504       1362.6624
  -1594131.29746  -1242179.34246  21367015.9774   21367019.2234
       530.6094        413.4624
  -3460999.03546  -2611760.97146  21563522.6724   21563526.1524
      1072.0944        835.3984
   4033874.08446   3105749.53046  21768502.1724   21768505.7584
     -2762.4224      -2152.5374
 96  8 31 15 15  0.0000000  0  5G 5G 6G10G16G24
   2628878.39047   2040273.27647  20889980.0084   20889982.8794
     -2276.3444      -1773.7744
  -3972584.60146  -2967512.68345  22713174.8364   22713177.0044
      1738.7504       1354.8704
  -1609662.24746  -1254281.36246  21364060.5394   21364063.5274
       504.7344        393.3004
  -3492793.30446  -2636535.69846  21557472.3754   21557475.9024
      1047.6254        816.3314
   4116957.04946   3170489.50146  21784312.3674   21784315.9884
     -2776.3444      -2163.3854
 96  8 31 15 15 30.0000000  0  5G 5G 6G10G16G24
   2697537.74247   2093774.05747  20903045.4384   20903048.3444
     -2301.2664      -1793.1944
  -4024603.25946  -3008046.68245  22703275.8134   22703278.0984
      1728.4534       1346.8474
  -1624414.00846  -1265776.22346  21361253.2274   21361256.5204
       478.2504        372.6624
  -3523858.30646  -2660742.16946  21551560.7114   21551564.2854
      1022.8444        797.0214
   4200452.17346   3235550.63346  21800200.8444   21800204.1844
     -2790.5314      -2174.4404
 96  8 31 15 16  0.0000000  0  5G 5G 6G10G16G24
   2766916.09547   2147835.09547  20916247.6954   20916250.6604
     -2323.9224      -1810.8484
  -4076310.41346  -3048337.96045  22693436.1954   22693438.3984
      1718.6414       1339.2004
  -1638386.21446  -1276663.62746  21358594.3134   21358597.7704
       453.2344        353.1704
  -3554189.26646  -2684376.65246  21545789.0474   21545792.7624
       998.9384        778.3934
   4284360.89446   3300934.04946  21816168.1484   21816171.4064
     -2803.4374      -2184.4974
 96  8 31 15 16 30.0000000  0  5G 5G 6G10G16G24
   2836978.40647   2202429.09347  20929580.1254   20929582.8094
     -2346.7194      -1828.6124
  -4127720.57746  -3088397.81246  22683653.1024   22683655.6334
      1709.1094       1331.7744
  -1651602.11846  -1286961.71046  21356079.5944   21356082.9574
       428.0474        333.5434
  -3583784.32346  -2707437.70846  21540157.3524   21540160.9024
       974.3594        759.2414
   4368660.16846   3366621.78746  21832209.8674   21832212.9964
     -2816.2034      -2194.4444
 96  8 31 15 17  0.0000000  0  5G 5G 6G10G16G24
   2907729.52247   2257559.81347  20943043.6094   20943046.3984
     -2370.2034      -1846.9124
  -4178854.56946  -3128242.46845  22673922.2734   22673925.0634
      1699.7974       1324.5174
  -1664057.27746  -1296667.01246  21353709.1884   21353712.6454
       402.1254        313.3444
  -3612652.40046  -2729932.28346  21534663.6094   21534667.1024
       950.0474        740.2964
   4453338.67146   3432605.03746  21848323.9534   21848327.2114
     -2829.2034      -2204.5744
 96  8 31 15 17 30.0000000  0  5G 5G 6G10G16G24
   2979183.63747   2313238.32847  20956641.1024   20956643.7504
     -2392.9224      -1864.6144
  -4229699.57646  -3167861.94445  22664247.2664   22664249.8914
      1690.1254       1316.9814
  -1675730.45846  -1305762.97746  21351487.8524   21351491.4844
       376.3914        293.2914
  -3640780.51446  -2751850.26746  21529311.3134   21529314.7464
       925.3914        721.0844
   4538420.74746   3498902.75346  21864514.2274   21864517.5784
     -2842.6414      -2215.0454
 96  8 31 15 18  0.0000000  0  5G 5G 6G10G16G24
   3051306.97447   2369438.31647  20970365.9304   20970368.5314
     -2415.6564      -1882.3304
  -4280265.64546  -3207264.05746  22654624.7034   22654627.2704
      1680.9534       1309.8344
  -1686641.64246  -1314265.18246  21349411.5314   21349415.2814
       350.7814        273.3364
  -3668184.15246  -2773203.73246  21524096.3364   21524099.5354
       901.3444        702.3464
   4623894.16646   3565505.41746  21880779.1254   21880782.7114
     -2855.6724      -2225.1994
 96  8 31 15 18 30.0000000  0  5G 5G 6G10G16G24
   3124116.27247   2426172.82347  20984220.9384   20984223.4454
     -2438.5164      -1900.1424
  -4330575.83846  -3246466.80045  22645051.0234   22645053.6844
      1672.8914       1303.5514
  -1696782.58246  -1322167.19746  21347481.7274   21347485.2544
       325.1254        253.3444
  -3694881.72846  -2794007.02046  21519016.1954   21519019.6174
       878.4064        684.4724
   4709741.61846   3632399.53046  21897115.4774   21897118.9804
     -2867.5944      -2234.4894
 96  8 31 15 19  0.0000000  0  5G 5G 6G10G16G24
   3197613.97147   2483443.74847  20998207.1174   20998209.8014
     -2461.1724      -1917.7964
  -4380630.84746  -3285470.69046  22635525.8284   22635528.2664
      1664.0784       1296.6844
  -1706143.28746  -1329461.23246  21345700.4924   21345703.8914
       298.8444        232.8654
  -3720885.07746  -2814269.34046  21514067.7664   21514071.4574
       855.0314        666.2584
   4795953.50546   3699577.62346  21913521.1724   21913524.8754
     -2879.9224      -2244.0954
 96  8 31 15 19 30.0000000  0  5G 5G 6G10G16G24
   3271784.62947   2541239.04747  21012321.2424   21012323.8094
     -2483.3444      -1935.0734
  -4430414.85846  -3324263.41546  22626052.2664   22626054.9734
      1655.1724       1289.7444
  -1714705.21546  -1336132.85346  21344071.2114   21344074.5514
       272.1254        212.0454
  -3746166.74646  -2833969.31846  21509257.0234   21509260.5864
       830.5784        647.2044
   4882546.06446   3767052.33746  21929999.1954   21930002.6994
     -2892.6564      -2254.0184
 96  8 31 15 20  0.0000000  0  5G 5G 6G10G16G24
   3346619.40147   2599551.84547  21026562.1094   21026564.7464
     -2505.5944      -1952.4114
  -4479944.95246  -3362858.26946  22616627.1564   22616629.7114
      1646.8594       1283.2674
  -1722467.96646  -1342181.73146  21342594.0554   21342597.5594
       245.5314        191.3234
  -3770722.46647  -2853103.62146  21504584.2664   21504587.6524
       806.5004        628.4424
   4969507.02746   3834814.12246  21946547.1414   21946550.3404
     -2904.5314      -2263.2714
 96  8 31 15 20 30.0000000  0  5G 5G 6G10G16G24
   3422114.52547   2658379.20347  21040928.2734   21040930.7584
     -2527.5004      -1969.4814
  -4529217.67646  -3401252.59146  22607250.4694   22607252.8484
      1637.7194       1276.1444
  -1729432.04646  -1347608.26246  21341268.9924   21341272.3914
       218.7344        170.4424
  -3794549.42647  -2871670.05546  21500049.9224   21500053.5784
       781.7034        609.1194
   5056819.88246   3902850.10346  21963162.2894   21963165.7934
     -2916.6094      -2272.6834
 96  8 31 15 21  0.0000000  0  5G 5G 6G10G16G24
   3498253.14947   2717707.98247  21055416.8364   21055419.4614
     -2548.7814      -1986.0634
  -4578221.91846  -3439437.69746  22597925.2894   22597928.0084
      1628.9384       1269.3024
  -1735614.97546  -1352426.10746  21340092.2814   21340095.6094
       193.0784        150.4504
  -3817635.63847  -2889659.28446  21495656.9064   21495660.4574
       756.9844        589.8584
   5144491.73046   3971165.82846  21979846.0234   21979849.4224
     -2928.5944      -2282.0214
 96  8 31 15 21 30.0000000  0  5G 5G 6G10G16G24
   3575044.31347   2777545.23747  21070029.6884   21070032.4654
     -2571.0164      -2003.3894
  -4626960.71746  -3477415.97246  22588650.7034   22588653.8324
      1620.0944       1262.4114
  -1741031.60446  -1356646.83346  21339061.7504   21339065.1954
       167.8284        130.7754
  -3839974.33247  -2907066.03546  21491405.7274   21491409.2774
       732.0314        570.4144
   5232525.37146   4039763.46446  21996598.0704   21996601.4344
     -2940.4844      -2291.2874
 96  8 31 15 22  0.0000000  0  5G 5G 6G10G16G24
   3652513.74647   2837911.01647  21084771.9144   21084774.4344
     -2593.8124      -2021.1534
  -4675429.89246  -3515184.14546  22579427.2504   22579430.0514
      1611.0004       1255.3254
  -1745692.98046  -1360279.06246  21338174.6174   21338178.0634
       142.9224        111.3684
  -3861569.39547  -2923893.33746  21487296.4924   21487299.7854
       707.5004        551.2994
   5320914.78146   4108638.31846  22013418.0164   22013421.9654
     -2952.1874      -2300.4064
 96  8 31 15 22 30.0000000  0  5G 5G 6G10G16G24
   3730673.74847   2898814.90147  21099645.1564   21099647.8164
     -2617.0314      -2039.2454
  -4723618.90546  -3552734.00346  22570257.1174   22570260.0004
      1601.7664       1248.1294
  -1749603.75246  -1363326.40146  21337430.0864   21337433.4844
       117.8284         91.8144
  -3882421.45847  -2940141.67446  21483328.4774   21483331.8054
       682.6884        531.9644
   5409664.81146   4177794.17746  22030306.4144   22030309.9774
     -2964.5944      -2310.0734
 96  8 31 15 23  0.0000000  0  5G 5G 6G10G16G24
   3809538.94847   2960268.28947  21114652.5864   21114655.2704
     -2640.5164      -2057.5454
  -4771537.67346  -3590073.28746  22561138.5474   22561141.4884
      1593.1094       1241.3844
  -1752762.24646  -1365787.55046  21336829.3594   21336832.6764
        92.5784         72.1394
  -3902531.73447  -2955811.99646  21479501.5944   21479504.9694
       658.2194        512.8984
   5498791.60946   4247243.62446  22047266.8284   22047270.2384
     -2977.0004      -2319.7404
 96  8 31 15 23 30.0000000  0  5G 5G 6G10G16G24
   3889093.68447   3022258.98347  21129791.3524   21129794.2234
     -2663.2194      -2075.2354
  -4819220.28146  -3627228.54846  22552065.0314   22552067.7974
      1585.5474       1235.4914
  -1755164.40946  -1367659.35046  21336372.0394   21336375.6844
        67.2504         52.4034
  -3921925.48447  -2970923.99646  21475811.0944   21475814.2584
       634.4224        494.3554
   5588279.87846   4316974.73646  22064296.1024   22064299.3954
     -2989.0004      -2329.0914
 96  8 31 15 24  0.0000000  0  5G 5G 6G10G16G24
   3969328.23647   3084779.40347  21145059.5944   21145062.2304
     -2685.5624      -2092.6464
  -4866669.34546  -3664201.82446  22543035.7974   22543038.7624
      1577.9224       1229.5504
  -1756788.95746  -1368925.21646  21336062.8134   21336066.3524
        41.3134         32.1924
  -3940598.03447  -2985474.01446  21472257.8754   21472261.1914
       610.5474        475.7514
   5678132.83846   4386990.02046  22081394.4844   22081397.6844
     -3000.9844      -2338.4294
 96  8 31 15 24 30.0000000  0  5G 5G 6G10G16G24
   4050222.04147   3147813.52447  21160453.2814   21160455.7664
     -2707.0164      -2109.3634
  -4913886.20046  -3700994.16546  22534050.5634   22534053.5274
      1570.1254       1223.4744
  -1757640.46946  -1369588.71446  21335900.6334   21335904.1604
        15.6884         12.2244
  -3958552.30047  -2999464.31846  21468841.1484   21468844.3594
       586.6724        457.1474
   5768343.08146   4457283.71146  22098561.0164   22098564.0984
     -3012.7974      -2347.6344
 96  8 31 15 25  0.0000000  0  5G 5G 6G10G16G24
   4131742.44847   3211335.90347  21175965.8594   21175968.4384
     -2727.1874      -2125.0814
  -4960879.40846  -3737612.22046  22525108.0634   22525110.6174
      1563.0634       1217.9714
  -1757735.96646  -1369663.11146  21335882.6334   21335886.2424
        -8.9844         -7.0014
  -3975797.39247  -3012902.02646  21465559.3054   21465562.7854
       563.3284        438.9574
   5858890.18046   4527839.88146  22115791.3594   22115795.1804
     -3023.2974      -2355.8164
 96  8 31 15 25 30.0000000  0  5G 5G 6G10G16G24
   4213867.40847   3275329.36247  21191593.6254   21191596.3094
     -2747.7344      -2141.0924
  -5007649.31546  -3774056.28446  22516207.9064   22516210.8594
      1554.7194       1211.4694
  -1757092.41446  -1369161.62246  21336004.9614   21336008.5474
       -33.7974        -26.3354
  -3992331.68847  -3025785.88146  21462413.2974   21462416.8834
       538.9534        419.9634
   5949749.09746   4598639.03046  22133081.4454   22133084.9844
     -3033.8284      -2364.0224
 96  8 31 15 26  0.0000000  0  5G 5G 6G10G16G24
   4296604.17947   3339799.55647  21207338.3204   21207341.2384
     -2768.0784      -2156.9444
  -5054158.64246  -3810297.29846  22507357.3134   22507360.8524
      1545.9384       1204.6274
  -1755708.85346  -1368083.51346  21336268.6024   21336271.9414
       -58.2814        -45.4144
  -4008138.04047  -3038102.49646  21459405.2274   21459408.7424
       514.8914        401.2134
   6040913.52046   4669676.23146  22150429.3364   22150432.7464
     -3043.7664      -2371.7654
 96  8 31 15 26 30.0000000  0  5G 5G 6G10G16G24
   4379943.13647   3404738.99047  21223196.9694   21223199.8874
     -2788.0314      -2172.4924
  -5100408.60946  -3846336.21846  22498556.6094   22498559.2464
      1537.3594       1197.9424
  -1753603.18846  -1366442.72546  21336669.0314   21336672.2894
       -82.3914        -64.2004
  -4023229.06947  -3049861.72347  21456533.5634   21456536.9844
       491.0474        382.6344
   6132373.54646   4740943.77346  22167833.3364   22167837.1334
     -3053.6254      -2379.4484
 96  8 31 15 27  0.0000000  0  5G 5G 6G10G16G24
   4463900.97347   3470160.66546  21239173.5634   21239176.5274
     -2809.3594      -2189.1114
  -5146403.33846  -3882176.24946  22489804.0704   22489806.6134
      1528.7974       1191.2704
  -1750759.87946  -1364227.14646  21337210.3524   21337213.7734
      -107.3914        -83.6814
  -4037597.30247  -3061057.72746  21453799.4774   21453802.8164
       466.6094        363.5924
   6224135.31946   4812446.44346  22185295.1954   22185299.1454
     -3063.9844      -2387.5204
 96  8 31 15 27 30.0000000  0  5G 5G 6G10G16G24
   4548498.12946   3536080.51147  21255271.8054   21255274.7814
     -2830.4224      -2205.5244
  -5192139.04546  -3917814.45246  22481100.6884   22481103.3014
      1520.2034       1184.5744
  -1747162.13146  -1361423.69046  21337894.7344   21337897.9804
      -132.5474       -103.2834
  -4051230.94847  -3071681.33446  21451205.2194   21451208.4884
       442.2974        344.6474
   6316201.16646   4884186.05146  22202815.0234   22202818.5864
     -3073.7034      -2395.0934
 96  8 31 15 28  0.0000000  0  5G 5G 6G10G16G24
   4633720.96347   3602487.90146  21271489.3594   21271492.1604
     -2851.7034      -2222.1064
  -5237625.75646  -3953258.62846  22472445.2424   22472447.7384
      1511.8444       1178.0604
  -1742803.42746  -1358027.28546  21338724.1094   21338727.4024
      -158.5004       -123.5064
  -4064139.28347  -3081739.76146  21448748.6484   21448752.0234
       417.6884        325.4714
   6408561.16846   4956154.87446  22220390.6174   22220393.9574
     -3084.0944      -2403.1904
 96  8 31 15 28 30.0000000  0  5G 5G 6G10G16G24
   4719590.83147   3669399.47147  21287829.9144   21287832.6804
     -2873.0624      -2238.7504
  -5282858.05046  -3988504.55846  22463837.7194   22463839.9224
      1503.6254       1171.6564
  -1737663.29246  -1354021.97446  21339702.6024   21339705.6024
      -184.4224       -143.7054
  -4076298.43747  -3091214.40546  21446434.9694   21446438.1334
       392.8284        306.1004
   6501234.67346   5028367.98546  22238025.5004   22238028.5474
     -3094.1874      -2411.0554
 96  8 31 15 29  0.0000000  0  5G 5G 6G10G16G24
   4806100.26847   3736809.40247  21304292.2344   21304294.9774
     -2894.0314      -2255.0894
  -5327847.45546  -4023561.22146  22455276.5784   22455278.8524
      1495.6564       1165.4464
  -1731741.94846  -1349407.92946  21340829.0474   21340831.8484
      -210.3124       -163.8804
  -4087714.43447  -3100109.96247  21444262.8054   21444265.8984
       368.2974        286.9854
   6594207.48646   5100814.32646  22255717.6804   22255721.1134
     -3103.9694      -2418.6774
 96  8 31 15 29 30.0000000  0  5G 5G 6G10G16G24
   4893228.56147   3804701.55647  21320872.1884   21320874.7894
     -2914.3754      -2270.9424
  -5372589.38646  -4058425.04746  22446762.4304   22446764.4924
      1487.2504       1158.8964
  -1725041.15846  -1344186.52346  21342104.3054   21342107.4574
      -236.1724       -184.0304
  -4098396.77747  -3108433.85247  21442229.7344   21442233.0514
       344.1254        268.1494
   6687474.38146   5173489.81446  22273465.7894   22273469.1884
     -3113.8124      -2426.3474
 96  8 31 15 30  0.0010000  0  5G 5G 6G10G16G24
   4980965.76947   3873068.18846  21337567.9034   21337570.6694
     -2934.5164      -2286.6364
  -5417087.95546  -4093099.24546  22438294.7164   22438296.9544
      1479.3754       1152.7604
  -1717574.56846  -1338368.38746  21343525.2784   21343528.5244
      -261.1724       -203.5114
  -4108369.67547  -3116204.92646  21440331.9194   21440335.2244
       321.0004        250.1304
   6781048.15746   5246404.43346  22291272.3804   22291275.8374
     -3124.0164      -2434.2984
 96  8 31 15 30 30.0010000  0  5G 5G 6G10G16G24
   5069311.73747   3941909.17746  21354379.6534   21354382.2674
     -2954.7814      -2302.4274
  -5461335.64146  -4127577.95146  22429874.1774   22429876.6384
      1470.8914       1146.1494
  -1709364.44346  -1331970.88446  21345087.5914   21345090.7904
      -285.7034       -222.6264
  -4117647.53747  -3123434.40447  21438566.3104   21438569.6494
       298.0784        232.2694
   6874930.58046   5319559.56046  22309137.7394   22309141.2434
     -3134.4694      -2442.4434
 96  8 31 15 31  0.0010000  0  5G 5G 6G10G16G24
   5158264.07047   4011222.66047  21371306.8564   21371309.3884
     -2975.2974      -2318.4134
  -5505329.10546  -4161858.55646  22421502.7634   22421505.1424
      1461.9844       1139.2094
  -1700424.26346  -1325004.49446  21346788.7554   21346791.6734
      -310.1254       -241.6564
  -4126243.79047  -3130132.76847  21436930.5834   21436933.8884
       274.9844        214.2744
   6969127.10346   5392959.43746  22327062.8494   22327066.6344
     -3145.2194      -2450.8204
 96  8 31 15 31 30.0010000  0  5G 5G 6G10G16G24
   5247825.54547   4081010.80546  21388349.9424   21388352.4744
     -2995.3594      -2334.0464
  -5549059.92846  -4195934.50946  22413180.8024   22413182.8534
      1453.5784       1132.6584
  -1690767.82346  -1317479.98546  21348626.3564   21348629.4274
      -333.4844       -259.8584
  -4134150.57147  -3136293.88747  21435425.7004   21435429.3454
       252.3594        196.6444
   7063635.08646   5466602.00446  22345046.9664   22345050.6224
     -3155.2034      -2458.6004
 96  8 31 15 32  0.0010000  0  5G 5G 6G10G16G24
   5337996.72147   4151274.03746  21405508.6924   21405511.2824
     -3016.0624      -2350.1794
  -5592535.91846  -4229811.89446  22404907.8644   22404910.0674
      1444.9224       1125.9134
  -1680406.87946  -1309406.51246  21350597.7394   21350600.9384
      -357.3284       -278.4374
  -4141371.02147  -3141920.19047  21434051.7164   21434055.5014
       228.7814        178.2714
   7158445.86846   5540480.52546  22363088.9194   22363092.3764
     -3165.3124      -2466.4774
 96  8 31 15 32 30.0010000  0  5G 5G 6G10G16G24
   5428778.22547   4222012.84747  21422784.0604   21422786.6734
     -3036.2344      -2365.8974
  -5635766.26446  -4263497.85946  22396681.1774   22396683.5564
      1436.8594       1119.6314
  -1669334.05346  -1300778.32646  21352704.9034   21352708.1144
      -381.3284       -297.1394
  -4147876.54147  -3146989.41346  21432813.6924   21432817.2674
       204.5474        159.3874
   7253534.94046   5614575.89146  22381183.3334   22381186.9424
     -3174.2974      -2473.4784
 96  8 31 15 33  0.0010000  0  5G 5G 6G10G16G24
   5520166.23947   4293224.27046  21440174.5364   21440177.0914
     -3056.5004      -2381.6884
  -5678753.66546  -4296994.52446  22388501.1224   22388503.5604
      1428.6414       1113.2264
  -1657517.48246  -1291570.60146  21354953.5134   21354956.6424
      -406.7814       -316.9724
  -4153638.57547  -3151479.29647  21431717.3644   21431720.8684
       179.1724        139.6144
   7348900.86946   5688886.99146  22399331.0914   22399335.0284
     -3183.6564      -2480.7714
 96  8 31 15 33 30.0010000  0  5G 5G 6G10G16G24
   5612141.81647   4364893.53246  21457676.8644   21457679.3374
     -3075.7034      -2396.6524
  -5721515.04246  -4330315.06846  22380363.9974   22380366.9624
      1421.6564       1107.7844
  -1644943.21246  -1281772.46246  21357346.3644   21357349.6104
      -432.0944       -336.6964
  -4158653.92047  -3155387.34546  21430762.7714   21430766.4624
       154.7194        120.5604
   7444527.78046   5763401.45346  22417528.2864   22417531.6144
     -3191.9534      -2487.2364
 96  8 31 15 34  0.0010000  0  5G 5G 6G10G16G24
   5704709.65547   4437024.29547  21475291.9274   21475294.4934
     -3095.6724      -2412.2124
  -5764047.81046  -4363457.46846  22372270.2084   22372272.7744
      1413.6094       1101.5144
  -1631584.08446  -1271362.73646  21359888.3724   21359891.8884
      -458.7974       -357.5044
  -4162915.32747  -3158707.90446  21429951.8644   21429955.5444
       129.0164        100.5324
   7540419.02746   5838121.89546  22435776.0834   22435779.4114
     -3200.9064      -2494.2134
 96  8 31 15 34 30.0010000  0  5G 5G 6G10G16G24
   5797868.10747   4509615.27447  21493019.4744   21493022.0524
     -3115.0004      -2427.2734
  -5806338.52946  -4396411.26046  22364222.3724   22364224.7044
      1405.4694       1095.1704
  -1617422.35246  -1260327.61146  21362583.3564   21362586.7314
      -485.5784       -378.3734
  -4166409.89047  -3161430.92446  21429286.8414   21429290.0284
       103.9384         80.9904
   7636578.36146   5913051.23546  22454074.6774   22454078.2284
     -3210.0624      -2501.3474
 96  8 31 15 35  0.0010000  0  5G 5G 6G10G16G24
   5891604.51646   4582656.60746  21510857.0364   21510859.9544
     -3134.0474      -2442.1144
  -5848376.23546  -4429167.90346  22356222.7394   22356225.3174
      1397.1564       1088.6934
  -1602456.84646  -1248666.16846  21365431.2394   21365434.5214
      -511.9224       -398.9004
  -4169165.88247  -3163578.43046  21428762.7244   21428766.0284
        79.9694         62.3134
   7733016.43846   5988197.77546  22472425.9894   22472429.3294
     -3218.8754      -2508.2144
 96  8 31 15 35 30.0010000  0  5G 5G 6G10G16G24
   5985915.52246   4656145.68146  21528803.7004   21528806.7594
     -3153.5624      -2457.3214
  -5890168.80546  -4461733.53046  22348269.9114   22348272.2904
      1388.8444       1082.2164
  -1586712.04846  -1236397.48446  21368427.1144   21368430.1494
      -537.8284       -419.0874
  -4171212.12847  -3165172.89446  21428373.2554   21428376.3494
        56.2504         43.8314
   7829707.45146   6063541.40646  22490825.8964   22490829.3994
     -3227.4694      -2514.9114
 96  8 31 15 36  0.0010000  0  5G 5G 6G10G16G24
   6080810.52347   4730089.80747  21546861.6614   21546864.4854
     -3172.5624      -2472.1274
  -5931706.30446  -4494100.40046  22340365.7474   22340368.4194
      1380.5474       1075.7514
  -1570196.98546  -1223528.59446  21371569.8884   21371573.0524
      -562.9844       -438.6894
  -4172539.18846  -3166206.95946  21428120.3414   21428123.7744
        32.3284         25.1914
   7926665.44346   6139093.07846  22509276.2314   22509279.5604
     -3236.2504      -2521.7534
 96  8 31 15 36 30.0010000  0  5G 5G 6G10G16G24
   6176277.32547   4804479.50046  21565028.5444   21565031.2164
     -3191.6724      -2487.0174
  -5973001.46046  -4526278.43246  22332507.5444   22332509.6654
      1372.7034       1069.6394
  -1552934.18746  -1210077.05946  21374855.0834   21374858.1304
      -587.5164       -457.8044
  -4173142.69746  -3166677.20946  21428005.3564   21428009.0014
         8.0784          6.2954
   8023897.87246   6214858.59046  22527778.6774   22527782.4744
     -3245.5944      -2529.0344
 96  8 31 15 37  0.0010000  0  5G 5G 6G10G16G24
   6272313.63647   4879312.96446  21583303.5674   21583306.3804
     -3211.0314      -2502.1024
  -6014069.18946  -4558279.24646  22324692.5284   22324694.8964
      1365.0004       1063.6364
  -1534951.95146  -1196064.91346  21378277.1924   21378280.6494
      -611.5784       -476.5544
  -4173019.86847  -3166581.48546  21428029.2394   21428032.5674
       -16.5624        -12.9064
   8121397.06546   6290831.97246  22546332.4114   22546336.1614
     -3254.5474      -2536.0114
 96  8 31 15 37 30.0010000  0  5G 5G 6G10G16G24
   6368934.90146   4954602.23446  21601689.8414   21601692.6534
     -3229.7194      -2516.6644
  -6054913.84246  -4590106.23346  22316919.9354   22316922.1264
      1358.5314       1058.5964
  -1516248.86046  -1181491.06846  21381836.0284   21381839.2394
      -634.6094       -494.5014
  -4172151.06047  -3165904.48646  21428194.4194   21428197.6654
       -40.7814        -31.7784
   8219172.23546   6367020.41046  22564938.4584   22564942.3134
     -3263.4374      -2542.9384
 96  8 31 15 38  0.0010000  0  5G 5G 6G10G16G24
   6466109.62747   5030322.77546  21620181.9974   21620184.5874
     -3248.8124      -2531.5424
  -6095555.66946  -4621775.18546  22309186.3334   22309188.5364
      1350.6884       1052.4844
  -1496864.88446  -1166386.65946  21385524.6694   21385527.6814
      -657.8754       -512.6304
  -4170563.17147  -3164667.15946  21428496.5914   21428500.1774
       -65.2504        -50.8444
   8317216.91246   6443418.84246  22583595.6144   22583599.2474
     -3273.0314      -2550.4144
 96  8 31 15 38 30.0010000  0  5G 5G 6G10G16G24
   6563859.50247   5106491.48146  21638783.4114   21638785.9894
     -3267.8124      -2546.3474
  -6135955.19846  -4653255.32046  22301498.5524   22301500.6734
      1342.4224       1046.0434
  -1476778.69846  -1150735.08246  21389346.8804   21389349.9624
      -681.2194       -530.8204
  -4168246.80446  -3162862.18146  21428937.1694   21428940.6144
       -89.0004        -69.3514
   8415550.70946   6520042.56446  22602308.0994   22602311.3104
     -3282.3914      -2557.7074
 96  8 31 15 39  0.0010000  0  6G17G 5G 6G10G16G24
    -64144.51743                  24807317.5674
      2207.7504
   6662176.15647   5183101.83546  21657492.2004   21657495.0014
     -3286.3444      -2560.7874
  -6176093.46946  -4684531.88246  22293860.3644   22293862.4624
      1333.6884       1039.2374
  -1455982.27246  -1134530.06846  21393304.4744   21393307.7314
      -705.1414       -549.4604
  -4165231.68446  -3160512.72446  21429510.7474   21429514.3804
      -111.7664        -87.0904
   8514158.85446   6596880.06945  22621072.6774   22621075.8064
     -3291.3124      -2564.6594
 96  8 31 15 39 30.0010000  0  6G17G 5G 6G10G16G24
   -130243.74243    -24009.31852  24794738.3884   24794743.8724
      2198.9534       1713.4704
   6761046.02446   5260143.26346  21676306.3104   21676309.1924
     -3304.8444      -2575.2034
  -6215968.23546  -4715603.12346  22286272.3564   22286274.6534
      1324.5314       1032.1024
  -1434466.18946  -1117764.28146  21397398.6614   21397402.1184
      -729.1724       -568.1864
  -4161528.80446  -3157627.34546  21430215.5364   21430219.2044
      -135.1254       -105.2924
   8613035.33046   6673926.66045  22639888.3414   22639891.7514
     -3300.3594      -2571.7094
 96  8 31 15 40  0.0010000  0  6G17G 5G 6G10G16G24
   -196082.71643    -75312.41042  24782209.2314   24782215.2904
      2190.5944       1706.9564
   6860456.12447   5337605.65046  21695223.7164   21695226.5174
     -3322.2344      -2588.7544
  -6255565.43046  -4746458.06546  22278737.2714   22278739.7084
      1315.7034       1025.2234
  -1412227.81346  -1100435.66646  21401630.6924   21401633.9744
      -753.3124       -586.9974
  -4157122.66847  -3154193.98346  21431054.2714   21431057.4464
      -158.4844       -123.4944
   8712169.23046   6751173.83145  22658752.7084   22658756.1654
     -3308.0944      -2577.7354
 96  8 31 15 40 30.0010000  0  6G17G 5G 6G10G16G24
   -261663.20243   -126414.02142  24769730.4584   24769734.8764
      2182.0004       1700.2604
   6960398.55247   5415482.84146  21714242.0444   21714244.6344
     -3340.1254      -2602.6954
  -6294904.44546  -4777111.83646  22271251.2004   22271253.6614
      1307.5164       1018.8434
  -1389241.99746  -1082524.63446  21406004.6224   21406007.9274
      -778.6874       -606.7694
  -4151992.76046  -3150196.64446  21432030.2864   21432033.6034
      -183.2194       -142.7684
   8811534.29546   6828601.13546  22677660.8804   22677664.5954
     -3315.6254      -2583.6044
 96  8 31 15 41  0.0010000  0  6G17G 5G 6G10G16G24
   -326984.82443   -177313.94543  24757301.4034   24757306.1854
      2173.0004       1693.2474
   7060878.68747   5493779.02546  21733362.7314   21733365.4624
     -3358.2344      -2616.8064
  -6334008.83946  -4807582.78446  22263809.9274   22263812.8104
      1299.9384       1012.9384
  -1365490.00446  -1064016.58146  21410524.5674   21410527.5674
      -804.4844       -626.8714
  -4146107.49946  -3145610.71746  21433150.2474   21433153.8214
      -208.9374       -162.8084
   8911116.08646   6906197.31545  22696611.2004   22696615.0214
     -3322.7974      -2589.1924
 96  8 31 15 41 30.0010000  0  6G17G 5G 6G10G16G24
   -392035.87743   -228003.03542  24744921.1924   24744927.4624
      2163.5314       1685.8694
   7161897.56647   5572495.00746  21752586.1224   21752589.0634
     -3376.2664      -2630.8564
  -6372901.97246  -4837889.11246  22256408.7244   22256411.3964
      1292.8444       1007.4114
  -1340974.96046  -1044913.94446  21415189.4744   21415192.5214
      -829.7974       -646.5954
  -4139448.70046  -3140422.03346  21434417.3724   21434420.8884
      -234.7664       -182.9344
   9010902.87846   6983953.23645  22715599.7554   22715603.5874
     -3329.5004      -2594.4164
 96  8 31 15 42  0.0010000  0  6G17G 5G 6G10G16G24
   -456792.16443   -278462.45543  24732598.4814   24732604.4934
      2153.5164       1678.0644
   7263456.65246   5651631.92846  21771912.0834   21771914.9314
     -3394.4694      -2645.0414
  -6411580.17146  -4868027.95846  22249048.3884   22249050.9784
      1285.6724       1001.8224
  -1315692.17646  -1025213.07346  21420000.6304   21420003.7004
      -855.6724       -666.7574
  -4132024.00546  -3134636.54946  21435830.2394   21435833.6494
      -260.1094       -202.6834
   9110883.89946   7061860.51745  22734625.7244   22734629.3684
     -3335.9224      -2599.4204
 96  8 31 15 42 30.0010000  0  6G17G 5G 6G10G16G24
   -521255.09343   -328693.25142  24720332.0524   24720337.3134
      2143.6564       1670.3814
   7365560.86246   5731193.61946  21791342.0214   21791344.9624
     -3412.7344      -2659.2744
  -6450047.52946  -4898002.50746  22241728.4664   22241731.0444
      1278.3754        996.1364
  -1289646.46246  -1004917.70646  21424957.2314   21424960.3374
      -880.9844       -686.4814
  -4123858.14047  -3128273.52746  21437384.1384   21437387.2784
      -284.5004       -221.6884
   9211056.80346   7139917.30445  22753687.9114   22753691.6034
     -3342.7974      -2604.7774
 96  8 31 15 43  0.0010000  0  6G17G 5G 6G10G16G24
   -585421.05343   -378692.65342  24708120.8024   24708125.2554
      2134.0164       1662.8694
   7468206.30946   5811177.05346  21810874.7314   21810877.5214
     -3430.4224      -2673.0564
  -6488281.54246  -4927795.23446  22234452.7784   22234455.5914
      1270.3134        989.8544
  -1262851.21946   -984038.29546  21430055.8414   21430059.4034
      -905.3914       -705.4994
  -4114975.35947  -3121351.87546  21439074.5604   21439077.6534
      -307.5624       -239.6594
   9311449.94046   7218145.70345  22772792.1224   22772795.9784
     -3350.2974      -2610.6214
 96  8 31 15 43 30.0010000  0  6G17G 5G 6G10G16G24
   -649302.53543   -428470.37942  24695963.7004   24695968.7284
      2124.5164       1655.4674
   7571385.67646   5891576.53846  21830509.2314   21830511.8334
     -3448.5624      -2687.1924
  -6526257.72246  -4957387.04946  22227226.2394   22227228.6304
      1260.9534        982.5614
  -1235328.94246   -962592.35346  21435293.1854   21435296.5834
      -929.6874       -724.4324
  -4105407.85447  -3113896.66846  21440895.1144   21440897.9744
      -330.5314       -257.5574
   9412076.68646   7296556.13545  22791940.7474   22791944.5914
     -3358.5004      -2617.0134
 96  8 31 15 44  0.0010000  0  6G17G 5G 6G10G16G24
   -712907.39343   -478032.58143  24683860.5994   24683866.3994
      2116.1254       1648.9294
   7675105.69647   5972397.30246  21850246.8724   21850249.3334
     -3465.9694      -2700.7554
  -6563952.76246  -4986759.79946  22220053.2244   22220055.6384
      1252.3594        975.8644
  -1207084.44446   -940583.65446  21440667.9814   21440671.4274
      -952.9694       -742.5734
  -4095151.29447  -3105904.53646  21442846.9274   21442849.8924
      -353.1724       -275.1994
   9512955.04846   7375162.63645  22811136.9354   22811141.1304
     -3366.6564      -2623.3694
 96  8 31 15 44 30.0010000  0  6G17G 5G 6G10G16G24
   -776256.79843   -527395.72042  24671805.8644   24671812.0174
      2107.1094       1641.9034
   7779350.85646   6053627.26446  21870083.6614   21870086.5214
     -3483.5944      -2714.4894
  -6601388.91146  -5015930.81446  22212929.1924   22212931.6424
      1243.3284        968.8274
  -1178142.72646   -918031.66346  21446175.4424   21446178.5364
      -976.6254       -761.0064
  -4084207.85447  -3097377.17346  21444929.4814   21444932.5634
      -376.4694       -293.3524
   9614088.12346   7453967.61145  22830382.2864   22830386.4354
     -3375.6094      -2630.3454
 96  8 31 15 45  0.0010000  0  6G17G 5G 6G10G16G24
   -839329.31643   -576543.06743  24659803.7634   24659809.2594
      2097.1094       1634.1114
   7884117.19346   6135263.34046  21890020.2474   21890022.9544
     -3501.5784      -2728.5024
  -6638553.18446  -5044889.97846  22205857.2394   22205859.5834
      1233.6094        961.2544
  -1148496.55646   -894930.74746  21451816.9814   21451819.9814
     -1000.2814       -779.4404
  -4072561.49847  -3088302.08546  21447145.7004   21447148.7004
      -400.6414       -312.1874
   9715477.47646   7532972.29045  22849675.9894   22849680.1734
     -3384.0624      -2636.9324
 96  8 31 15 45 30.0010000  0  6G17G 5G 6G10G16G24
   -902100.97843   -625456.02343  24647859.2164   24647863.6814
      2087.8914       1626.9284
   7989425.04946   6217321.37546  21910059.7394   21910062.4464
     -3518.5944      -2741.7614
  -6675430.87146  -5073625.82246  22198839.6694   22198841.8604
      1225.3444        954.8134
  -1118140.58246   -871276.73846  21457593.3884   21457596.7744
     -1023.1254       -797.2404
  -4060182.08947  -3078655.78746  21449501.5134   21449504.4664
      -424.3594       -330.6704
   9817105.94146   7612163.28545  22869015.2004   22869018.5994
     -3390.8754      -2642.2404
 96  8 31 15 46  0.0010000  0  6G17G 5G 6G10G16G24
   -964582.31743   -674142.73643  24635969.2084   24635974.7164
      2077.9694       1619.1964
   8095247.52746   6299780.41446  21930197.0674   21930199.7164
     -3535.7664      -2755.1424
  -6712068.00746  -5102174.23146  22191867.8254   22191870.2634
      1217.6094        948.7874
  -1087090.38546   -847081.78146  21463501.9584   21463505.5794
     -1046.5164       -815.4674
  -4047080.86947  -3068447.03946  21451994.3644   21451997.3064
      -448.6254       -349.5784
   9918945.58846   7691518.83745  22888394.8254   22888398.8684
     -3397.9534      -2647.7564
 96  8 31 15 46 30.0010000  0  6G17G 5G 6G10G16G24
  -1026749.84043   -722584.90344  24624138.6694   24624143.3684
      2066.7814       1610.4794
   8201596.29346   6382649.55246  21950434.4114   21950437.3064
     -3553.9224      -2769.2904
  -6748452.28646  -5130525.60646  22184944.0364   22184946.5564
      1208.1884        941.4454
  -1055319.30646   -822325.09546  21469547.7714   21469551.3214
     -1071.4224       -834.8744
  -4033249.60947  -3057669.43546  21454626.4194   21454629.6424
      -473.2814       -368.7914
  10021004.40746   7771045.17045  22907815.8724   22907819.2474
     -3405.7194      -2653.8074
 96  8 31 15 47  0.0010000  0  6G17G 5G 6G10G16G24
  -1088599.85143   -770779.67243  24612369.1144   24612373.4504
      2057.2814       1603.0764
   8308479.67546   6465935.27446  21970773.7474   21970776.6654
     -3571.1254      -2782.6954
  -6784570.30146  -5158669.51346  22178070.8414   22178073.4074
      1200.2814        935.2844
  -1022814.79846   -796996.90746  21475733.4354   21475736.7394
     -1094.9844       -853.2354
  -4018684.80247  -3046320.22446  21457398.0364   21457401.3414
      -497.2194       -387.4434
  10123278.06446   7850738.91545  22927277.9034   22927281.5954
     -3412.0164      -2658.7134
 96  8 31 15 47 30.0010000  0  6G17G 5G 6G10G16G24
  -1150189.09143   -818771.25643  24600649.5674   24600652.9544
      2048.2664       1596.0514
   8415866.43146   6549613.23546  21991208.6384   21991211.6494
     -3588.1874      -2795.9904
  -6820471.23646  -5186644.25946  22171239.2244   22171241.6614
      1192.9384        929.5624
   -989606.52146   -771120.32646  21482052.8334   21482056.3964
     -1119.3124       -872.1924
  -4003411.32147  -3034418.80946  21460304.4034   21460307.6614
      -521.2814       -406.1934
  10225738.45746   7930578.16445  22946775.8104   22946779.6534
     -3419.0164      -2664.1684
 96  8 31 15 48  0.0010000  0  6G17G 5G 6G10G16G24
  -1211494.92543   -866541.97844  24588982.8644   24588987.8564
      2039.0634       1588.8804
   8523770.19046   6633694.05646  22011742.3024   22011745.4074
     -3605.0944      -2809.1644
  -6856144.92246  -5214441.92646  22164450.7084   22164453.0994
      1185.3594        923.6574
   -955653.88346   -744663.71946  21488513.6384   21488517.0244
     -1144.0474       -891.4654
  -3987405.94447  -3021947.07846  21463350.1694   21463353.5324
      -545.5784       -425.1264
  10328414.29346   8010585.29446  22966314.1464   22966318.1424
     -3425.8124      -2669.4644
 96  8 31 15 48 30.0010000  0  6G17G 5G 6G10G16G24
  -1272520.01943   -914093.95541  24577369.7164   24577374.4154
      2029.5164       1581.4414
   8632184.30646   6718172.55646  22032372.6384   22032375.3104
     -3622.3754      -2822.6304
  -6891576.21546  -5242050.71346  22157708.4584   22157711.0244
      1176.9844        917.1314
   -920954.01846   -717624.86046  21495116.6224   21495120.0794
     -1169.0944       -910.9824
  -3970670.06647  -3008906.12946  21466535.0444   21466538.3374
      -570.0784       -444.2174
  10431299.33946   8090755.43645  22985892.4814   22985896.3604
     -3432.9224      -2675.0044
 96  8 31 15 49  0.0010000  0  6G17G 5G 6G10G16G24
  -1333272.09043   -961433.17144  24565808.6384   24565814.3104
      2021.0634       1574.8544
   8741106.85946   6803047.24546  22053100.1384   22053102.6224
     -3638.6564      -2835.3174
  -6926775.13246  -5269478.43346  22151010.4274   22151012.9354
      1169.9224        911.6274
   -885512.59146   -690008.16146  21501861.1614   21501864.4194
     -1193.2194       -929.7814
  -3953198.14447  -2995291.64047  21469859.7864   21469863.1264
      -594.1414       -462.9674
  10534379.06346   8171077.28345  23005508.0364   23005512.0094
     -3438.6564      -2679.4724
 96  8 31 15 49 30.0010000  0  6G17G 5G 6G10G16G24
  -1393765.46644  -1008570.84843  24554297.4504   24554301.8214
      2012.1724       1567.9264
   8850517.11846   6888301.96646  22073919.9424   22073922.9194
     -3654.8754      -2847.9554
  -6961753.47746  -5296734.27646  22144353.9504   22144356.5174
      1162.4064        905.7714
   -849347.97846   -661827.94046  21508743.1534   21508746.2594
     -1217.1874       -948.4584
  -3935014.39647  -2981122.48046  21473319.9114   21473322.9354
      -617.5164       -481.1814
  10637632.49346   8251534.48345  23025156.5214   23025159.9784
     -3444.4694      -2684.0024
 96  8 31 15 50  0.0010000  0  6G17G 5G 6G10G16G24
  -1453986.27944  -1055496.11044  24542838.1304   24542844.1534
      2003.0314       1560.8044
   8960417.19846   6973938.35346  22094833.4974   22094836.6264
     -3671.4224      -2860.8484
  -6996496.72246  -5323806.92946  22137742.7004   22137745.2314
      1154.0634        899.2694
   -812461.86746   -633085.51146  21515762.1924   21515765.4974
     -1241.3914       -967.3174
  -3916129.02647  -2966406.60246  21476913.7554   21476916.9194
      -641.1094       -499.5664
  10741066.01746   8332132.02645  23044838.9664   23044842.2714
     -3450.9374      -2689.0424
 96  8 31 15 50 30.0010000  0  6G17G 5G 6G10G16G24
  -1513938.56344  -1102212.14043  24531429.1224   24531433.2354
      1994.4534       1554.1194
   9070804.19546   7059954.16246  22115839.3964   22115842.0914
     -3687.0784      -2873.0484
  -7030989.67646  -5350684.54146  22131178.9744   22131181.5874
      1146.2034        893.1454
   -774864.10146   -603788.54846  21522916.5674   21522919.8494
     -1264.4534       -985.2884
  -3896547.13447  -2951147.97646  21480640.0214   21480643.1614
      -663.7194       -517.1834
  10844694.30246   8412881.31745  23064558.8644   23064562.4624
     -3456.9064      -2693.6934
 96  8 31 15 51  0.0010000  0  6G17G 5G 6G10G16G24
  -1573628.48944  -1148723.69843  24520071.0054   24520076.8174
      1985.2344       1546.9364
   9181656.12546   7146332.26546  22136934.0284   22136937.0054
     -3702.6094      -2885.1504
  -7065248.87346  -5377380.00846  22124659.5914   22124661.9934
      1138.0164        886.7654
   -736576.88346   -573954.34646  21530202.4974   21530205.6034
     -1287.5944      -1003.3204
  -3876280.29347  -2935355.62646  21484496.5284   21484499.8924
      -687.0004       -535.3254
  10948505.14646   8493772.87445  23084313.4504   23084317.3644
     -3463.5944      -2698.9044
 96  8 31 15 51 30.0010000  0  6G17G 5G 6G10G16G24
  -1633039.13744  -1195017.66643  24508765.7784   24508770.6184
      1974.9694       1538.9374
   9292966.63546   7233067.69046  22158115.3564   22158118.0874
     -3718.6564      -2897.6544
  -7099255.62646  -5403878.76746  22118188.3804   22118190.7124
      1128.6414        879.4604
   -697602.25846   -543584.50846  21537619.0914   21537622.6064
     -1311.3594      -1021.8384
  -3855314.54747  -2919018.67446  21488486.2474   21488489.5404
      -711.2974       -554.2574
  11052525.83146   8574827.93245  23104108.1854   23104111.3844
     -3471.7194      -2705.2354
 96  8 31 15 52  0.0010000  0  6G17G 5G 6G10G16G24
  -1692143.95044  -1241073.31143  24497518.2634   24497522.7394
      1965.4384       1531.5104
   9404750.36046   7320171.86046  22179387.0754   22179390.0054
     -3733.6254      -2909.3184
  -7132987.42346  -5430163.27046  22111769.4894   22111771.7044
      1120.1724        872.8614
   -657910.31946   -512655.71646  21545172.2394   21545175.7674
     -1334.6254      -1039.9684
  -3833614.52347  -2902109.56046  21492615.9424   21492619.3174
      -735.3444       -572.9954
  11156786.47246   8656069.97745  23123948.1384   23123951.8294
     -3478.8124      -2710.7634
 96  8 31 15 52 30.0010000  0  6G17G 5G 6G10G16G24
  -1750967.60144  -1286909.86844  24486324.6464   24486329.0994
      1955.5164       1523.7784
   9516974.24846   7407619.01446  22200742.9354   22200745.7354
     -3748.6724      -2921.0434
  -7166472.06646  -5456255.19146  22105397.4744   22105399.8174
      1111.6564        866.2264
   -617537.20246   -481196.14046  21552855.0834   21552858.5634
     -1357.6094      -1057.8774
  -3811201.89847  -2884645.16746  21496880.4744   21496883.6854
      -759.4694       -591.7944
  11261238.15446   8737460.87645  23143824.7164   23143828.1144
     -3485.1254      -2715.6824
 96  8 31 15 53  0.0010000  0  6G17G 5G 6G10G16G24
  -1809484.00944  -1332507.02744  24475189.6464   24475194.9544
      1945.1564       1515.7064
   9629670.67746   7495434.38246  22222188.4354   22222191.0954
     -3764.9374      -2933.7184
  -7199696.50846  -5482144.35846  22099075.2314   22099077.6344
      1102.7814        859.3104
   -576456.54846   -449185.24246  21560672.5674   21560676.1064
     -1381.6254      -1076.5914
  -3788049.75547  -2866604.52746  21501286.2314   21501289.5954
      -784.4064       -611.2264
  11365886.52246   8819005.05045  23163738.7314   23163742.6924
     -3491.7974      -2720.8814
 96  8 31 15 53 30.0010000  0  6G17G 5G 6G10G16G24
  -1867701.07044  -1377870.91443  24464110.1144   24464115.5054
      1935.5474       1508.2184
   9742851.48446   7583627.19646  22243725.8494   22243728.3804
     -3780.9064      -2946.1614
  -7232656.47246  -5507827.43846  22092802.7864   22092804.8844
      1094.2344        852.6504
   -534656.49246   -416613.76646  21568626.8564   21568630.0674
     -1405.5004      -1095.1954
  -3764159.24547  -2847988.53846  21505832.2394   21505835.5444
      -808.6414       -630.1104
  11470720.59746   8900693.92245  23183687.8494   23183691.2124
     -3497.5314      -2725.3494
 96  8 31 15 54  0.0010000  0  6G17G 5G 6G10G16G24
  -1925615.51744  -1422999.01444  24453089.8024   24453093.6694
      1925.3594       1500.2804
   9856527.72846   7672206.05446  22265358.0834   22265360.9424
     -3797.4694      -2959.0674
  -7265356.54046  -5533308.00346  22086580.3334   22086582.5714
      1085.7814        846.0634
   -492128.47946   -383475.04946  21576719.7554   21576723.0014
     -1429.5004      -1113.8964
  -3739534.06447  -2828800.08046  21510518.3494   21510521.7354
      -832.9374       -649.0424
  11575729.40046   8982518.95345  23203670.2714   23203674.1494
     -3502.9224      -2729.5504
 96  8 31 15 54 30.0010000  0  6G17G 5G 6G10G16G24
  -1983228.64444  -1467892.33543  24442127.1384   24442131.5094
      1915.1884       1492.3544
   9970692.31146   7761165.44446  22287082.7554   22287085.5564
     -3813.7194      -2971.7294
  -7297808.66746  -5558595.36546  22080404.7394   22080407.1304
      1077.4384        839.5624
   -448896.47846   -349787.77446  21584946.4664   21584949.8174
     -1453.0474      -1132.2444
  -3714193.49046  -2809054.16446  21515340.4894   21515343.9584
      -856.8284       -667.6584
  11680891.63746   9064463.52845  23223681.8254   23223686.0564
     -3508.3444      -2733.7744
 96  8 31 15 55  0.0010000  0  6G17G 5G 6G10G16G24
  -2040534.96644  -1512546.55644  24431221.7784   24431227.4624
      1905.5634       1484.8544
  10085345.74246   7850505.74746  22308900.5054   22308903.6694
     -3829.5004      -2984.0264
  -7330004.87046  -5583683.30446  22074277.9974   22074280.5174
      1069.1254        833.0844
   -404945.75146   -315540.45346  21593309.8174   21593313.3454
     -1476.7034      -1150.6784
  -3688131.65347  -2788746.23146  21520300.0674   21520303.6424
      -880.3594       -685.9944
  11786228.77146   9146544.39745  23243726.9814   23243731.1774
     -3513.9224      -2738.1214
 96  8 31 15 55 30.0010000  0  6G17G 5G 6G10G16G24
  -2097559.69344  -1556981.36443  24420369.8254   24420375.3564
      1895.8754       1477.3054
  10200456.55346   7940202.45546  22330805.4814   22330808.8104
     -3844.6254      -2995.8124
  -7361952.19546  -5608577.31746  22068198.7784   22068201.0754
      1060.6884        826.5104
   -360297.64946   -280749.72346  21601806.1694   21601809.5444
     -1499.9064      -1168.7584
  -3661367.75747  -2767891.24246  21525392.9114   21525396.1574
      -904.1094       -704.5014
  11891731.13246   9228754.01545  23263803.5914   23263807.3294
     -3519.8284      -2742.7234
 96  8 31 15 56  0.0010000  0  6G17G 5G 6G10G16G24
  -2154297.29144  -1601192.44645  24409573.0914   24409577.7314
      1886.3594       1469.8904
  10316013.48546   8030246.79246  22352795.0444   22352798.0444
     -3859.5004      -3007.4034
  -7393658.32746  -5633283.38246  22062165.3964   22062167.6924
      1052.6254        820.2274
   -314961.79446   -245423.07846  21610433.3804   21610436.7554
     -1522.9224      -1186.6924
  -3633900.39847  -2746488.10046  21530619.9894   21530623.3174
      -927.3444       -722.6064
  11997405.74146   9311097.84945  23283912.8724   23283916.9504
     -3525.5624      -2747.1924
 96  8 31 15 56 30.0010000  0  6G17G 5G 6G10G16G24
  -2210753.79844  -1645184.47644  24398829.6854   24398833.6464
      1877.4844       1462.9754
  10432021.13346   8120642.32746  22374870.7554   22374873.6384
     -3874.3754      -3018.9944
  -7425112.41346  -5657793.05346  22056179.7634   22056181.9544
      1044.1884        813.6534
   -268925.92446   -209550.96746  21619193.6614   21619196.7084
     -1546.2974      -1204.9074
  -3605731.84547  -2724538.56746  21535980.2784   21535983.4784
      -950.7034       -740.8084
  12103266.17446   9393586.48745  23304057.4114   23304061.4194
     -3531.8594      -2752.0984
 96  8 31 15 57  0.0010000  0  6G17G 5G 6G10G16G24
  -2266953.82744  -1688976.66444  24388135.1224   24388140.7244
      1869.4844       1456.7414
  10548478.38346   8211388.20846  22397031.8724   22397034.9194
     -3889.2504      -3030.5844
  -7456312.24346  -5682104.60246  22050242.7714   22050245.1034
      1035.9384        807.2244
   -222186.65447   -173130.75546  21628088.1534   21628091.1774
     -1569.3594      -1222.8774
  -3576862.98447  -2702043.34447  21541473.8644   21541476.7714
      -973.5784       -758.6324
  12209310.80246   9476218.63545  23324237.1384   23324241.0284
     -3537.5004      -2756.4944
 96  8 31 15 57 30.0010000  0  6G17G 5G 6G10G16G24
  -2322896.85944  -1732568.60945  24377489.2164   24377493.5994
      1860.1254       1449.4484
  10665397.49046   8302493.97246  22419280.7164   22419283.5754
     -3905.2504      -3043.0524
  -7487249.35946  -5706211.43546  22044355.5444   22044357.8174
      1026.6094        799.9554
   -174747.95547   -136165.52646  21637115.4114   21637118.1184
     -1593.1724      -1241.4334
  -3547290.30847  -2678999.69446  21547101.3494   21547104.6424
      -997.8124       -777.5164
  12315536.83646   9558992.15145  23344451.4894   23344454.3604
     -3544.1414      -2761.6684
 96  8 31 15 58  0.0010000  0  6G17G 5G 6G10G16G24
  -2378583.44244  -1775960.67044  24366892.3644   24366896.4314
      1852.2344       1443.3004
  10782781.73446   8393962.18146  22441618.1384   22441621.2554
     -3920.4374      -3054.8864
  -7517919.41346  -5730110.17246  22038519.2084   22038521.4234
      1017.9224        793.1864
   -126606.00946    -98652.31846  21646276.3414   21646279.4814
     -1616.3444      -1259.4894
  -3517018.95047  -2655411.61646  21552861.9814   21552865.1924
     -1020.3914       -795.1104
  12421940.74846   9641904.28245  23364699.4194   23364702.5484
     -3549.5004      -2765.8444
 96  8 31 15 58 30.0010000  0  6G17G 5G 6G10G16G24
  -2434025.90344  -1819162.54944  24356341.8494   24356347.4744
      1844.1094       1436.9684
  10900620.66046   8485784.68446  22464042.5214   22464045.9784
     -3935.1564      -3066.3564
  -7548318.79446  -5753797.99546  22032734.3804   22032736.6064
      1008.8594        786.1244
    -77770.51746    -60598.68746  21655569.2554   21655572.5834
     -1639.0474      -1277.1794
  -3486054.23247  -2631283.25847  21558754.1694   21558757.2744
     -1043.8284       -813.3734
  12528506.80046   9724942.74545  23384978.4894   23384981.4894
     -3554.6874      -2769.8864
 96  8 31 15 59  0.0010000  0  6G17G 5G 6G10G16G24
  -2489226.93744  -1862176.31145  24345837.9424   24345843.4034
      1835.9064       1430.5764
  11018886.96346   8577940.21146  22486547.5604   22486550.6534
     -3949.0944      -3077.2164
  -7578446.97246  -5777274.49046  22027001.3564   22027003.8294
       999.8134        779.0754
    -28264.99346    -22022.94946  21664989.8254   21664993.1774
     -1661.1874      -1294.4324
  -3454386.40247  -2606607.02446  21564780.4424   21564783.6884
     -1067.2974       -831.6604
  12635228.45546   9808102.46745  23405286.8564   23405289.6574
     -3559.9534      -2773.9894
 96  8 31 15 59 30.0010000  0  6G17G 5G 6G10G16G24
  -2544158.06444  -1904979.71844  24335384.6774   24335388.9544
      1826.3444       1423.1254
  11137572.36346   8670422.30746  22509132.8884   22509136.0174
     -3963.0004      -3088.0524
  -7608296.67846  -5800533.99446  22021321.0994   22021323.3964
       990.5004        771.8184
     21912.53946     17076.42946  21674538.3254   21674541.7474
     -1683.8754      -1312.1104
  -3421998.55747  -2581369.73446  21570943.4424   21570946.5244
     -1091.7194       -850.6904
  12742117.46346   9891392.58945  23425626.9354   23425630.2634
     -3565.7664      -2778.5194
 96  8 31 16  0  0.0020000  0  6G17G 5G 6G10G16G24
  -2598807.26744  -1947563.49843  24324984.7754   24324989.0764
      1816.7344       1415.6374
  11256671.53446   8763226.81846  22531796.5414   22531799.9754
     -3976.6564      -3098.6934
  -7637875.83546  -5823582.67746  22015692.2834   22015694.7684
       981.5784        764.8664
     72775.58846     56709.97847  21684217.4944   21684220.6234
     -1706.7034      -1329.8994
  -3388879.15647  -2555562.40246  21577245.9244   21577249.2294
     -1116.2504       -869.8054
  12849179.50845   9974817.53145  23446000.0644   23446003.8384
     -3571.4534      -2782.9504
 96  8 31 16  0 30.0020000  0  6G17G 5G 6G10G16G24
  -2653152.23844  -1989910.19043  24314642.8144   24314647.8654
      1806.5004       1407.6624
  11376175.37346   8856346.66046  22554537.1434   22554540.3184
     -3990.1094      -3109.1764
  -7667187.31446  -5846422.78446  22010114.4324   22010116.7754
       972.7194        757.9634
    124317.56146     96872.55546  21694025.6274   21694028.6274
     -1729.3444      -1347.5414
  -3355012.04147  -2529172.43346  21583690.7214   21583693.7914
     -1141.3124       -889.3344
  12956412.81345  10058375.92845  23466405.7214   23466409.7174
     -3577.3124      -2787.5164
 96  8 31 16  1  0.0020000  0  6G17G 5G 6G10G16G24
  -2707206.96844  -2032030.70743  24304357.4084   24304362.7644
      1796.7664       1400.0774
  11496075.70146   8949775.45446  22577353.6894   22577356.8544
     -4003.6414      -3119.7204
  -7696250.32546  -5869069.27646  22004583.9324   22004586.2294
       964.5634        751.6074
    176533.01346    137559.92646  21703961.9164   21703965.0924
     -1752.0784      -1365.2564
  -3320418.70347  -2502216.57847  21590273.6114   21590276.8814
     -1165.0784       -907.8534
  13063808.29945  10142060.69945  23486842.7684   23486847.1044
     -3582.3914      -2791.4734
 96  8 31 16  1 30.0020000  0  6G17G 5G 6G10G16G24
     -1784.94654  -2073910.63444  24294130.2294   24294135.7254
      1786.4534       1392.0414
  11616401.43846   9043535.74546  22600251.1044   22600254.3734
     -4018.0004      -3130.9094
  -7725064.77546  -5891522.08946  21999100.5644   21999103.0254
       956.4694        745.3004
    229451.95646    178795.47246  21714031.7914   21714035.0614
     -1775.8754      -1383.7994
  -3285111.48647  -2474704.45046  21596992.2524   21596995.4284
     -1188.5784       -926.1654
  13171351.59645  10225860.65845  23507307.7364   23507311.4754
     -3587.1094      -2795.1504
 96  8 31 16  2  0.0020000  0  6G17G 5G 6G10G16G24
    -55237.68745  -2115562.08045  24283958.7604   24283962.8614
      1777.2194       1384.8464
  11737156.41746   9137630.50446  22623230.0574   22623233.1274
     -4032.2814      -3142.0374
  -7753637.62946  -5913786.63946  21993663.4554   21993665.7174
       948.4534        739.0544
    283085.44046    220587.79446  21724238.0254   21724241.2714
     -1799.4224      -1402.1474
  -3249110.04047  -2446651.37146  21603843.1044   21603846.5024
     -1211.2664       -943.8434
  13279036.07846  10309770.62245  23527799.0184   23527802.4514
     -3591.6414      -2798.6814
 96  8 31 16  2 30.0020000  0  6G17G 5G 6G10G16G24
   -108424.43545  -2157006.26745  24273837.0644   24273841.7174
      1768.3134       1377.9064
  11858328.90646   9232050.59046  22646288.6354   22646292.0214
     -4046.2814      -3152.9464
  -7781969.82946  -5935863.67046  21988272.0574   21988274.2364
       939.8914        732.3824
    337413.32446    262921.20946  21734576.2054   21734579.4164
     -1822.9534      -1420.4834
  -3212448.19247  -2418083.69046  21610819.5184   21610823.1744
     -1233.0784       -960.8404
  13386847.47346  10393779.47945  23548315.1664   23548319.1504
     -3596.1724      -2802.2124
 96  8 31 16  3  0.0020000  0  6G17G 5G 6G10G16G24
   -161334.90545  -2198235.14845  24263768.8074   24263774.1154
      1759.2194       1370.8204
  11979935.72346   9326809.11746  22669429.5414   22669432.4124
     -4060.6874      -3164.1724
  -7810036.97846  -5957734.16946  21982931.1194   21982933.6154
       931.3594        725.7354
    392458.23946    305813.35346  21745050.8304   21745054.2174
     -1846.5004      -1438.8314
  -3175124.17647  -2389000.03746  21617922.2294   21617925.8614
     -1255.1564       -978.0444
  13494805.32046  10477902.45145  23568859.0254   23568862.3544
     -3600.7814      -2805.8044
 96  8 31 16  3 30.0020000  0  6G17G 5G 6G10G16G24
   -213967.98345  -2239247.88145  24253752.6824   24253756.4674
      1750.0164       1363.6494
  12101969.23246   9421900.12746  22692651.9394   22692655.2444
     -4074.5004      -3174.9354
  -7837844.36946  -5979402.25946  21977639.2524   21977641.7014
       922.6724        718.9654
    448203.64746    349251.33746  21755658.8854   21755662.1314
     -1869.5474      -1456.7904
  -3137127.93847  -2359392.57546  21625152.6584   21625156.0334
     -1277.8284       -995.7104
  13602904.33846  10562135.43745  23589429.6044   23589433.7174
     -3605.7814      -2809.7004
 96  8 31 16  4  0.0020000  0  6G17G 5G 6G10G16G24
   -266329.00445  -2280048.64344  24243789.6044   24243793.5534
      1740.3594       1356.1244
  12224414.85246   9517312.26746  22715952.1664   22715955.6704
     -4088.8284      -3186.1004
  -7865381.65646  -6000859.87646  21972399.3144   21972401.6824
       912.8284        711.2954
    504626.01546    393216.82246  21766395.8694   21766399.3384
     -1892.0944      -1474.3594
  -3098443.35447  -2329248.73446  21632514.1114   21632517.2524
     -1301.3914      -1014.0714
  13711161.22046  10646491.41945  23610030.1584   23610034.2834
     -3611.4694      -2814.1314
 96  8 31 16  4 30.0020000  0  6G17G 5G 6G10G16G24
   -318404.33545  -2320626.78245  24233879.0724   24233883.3854
      1730.9384       1348.7824
  12347267.73046   9613041.74846  22739330.3694   22739333.8614
     -4101.5164      -3195.9864
  -7892637.61546  -6022098.27246  21967212.6744   21967215.1004
       904.0314        704.4404
    561706.93646    437695.45946  21777257.7364   21777261.0294
     -1913.5314      -1491.0634
  -3059063.57347  -2298563.18647  21640007.6894   21640011.0414
     -1324.3284      -1031.9444
  13819569.12646  10730965.09345  23630659.6044   23630662.8504
     -3615.9064      -2817.5894
 96  8 31 16  5  0.0020000  0  6G17G 5G 6G10G16G24
   -370180.59445  -2360971.87045  24224027.0104   24224031.5924
      1721.0474       1341.0754
  12470512.26446   9709076.41646  22762783.0724   22762786.3774
     -4114.3754      -3206.0064
  -7919626.20546  -6043128.33546  21962076.8384   21962079.1464
       895.3594        697.6834
    619435.65046    482678.86846  21788243.1504   21788246.2214
     -1934.7664      -1507.6104
  -3018975.79047  -2267325.95146  21647636.2604   21647639.7294
     -1347.8914      -1050.3044
  13928111.10446  10815543.23245  23651314.6584   23651318.2444
     -3619.9224      -2820.7184
 96  8 31 16  5 30.0020000  0  6G17G 5G 6G10G16G24
   -421676.55745  -2401098.54445  24214227.9004   24214232.4944
      1711.7504       1333.8314
  12594119.11846   9805393.41146  22786304.8074   22786308.3344
     -4126.2814      -3215.2844
  -7946353.49146  -6063954.78346  21956991.0024   21956993.0184
       886.1724        690.5244
    677791.25346    528150.76646  21799348.0494   21799351.3304
     -1955.8444      -1524.0344
  -2978201.69047  -2235553.92146  21655395.1114   21655398.3694
     -1370.5624      -1067.9714
  14036759.84846  10900204.57645  23671989.8144   23671993.7874
     -3623.5624      -2823.5554
 96  8 31 16  6  0.0020000  0  6G17G 5G 6G10G16G24
   -472883.04345  -2440999.66545  24204483.2834   24204487.7484
      1702.2504       1326.4294
  12718097.17946   9901999.65646  22809897.1824   22809900.5574
     -4138.6874      -3224.9514
  -7972794.99446  -6084558.54546  21951959.4084   21951961.4004
       876.7034        683.1454
    736786.06446    574120.75446  21810574.4004   21810577.7644
     -1977.0164      -1540.5324
  -2936746.84947  -2203251.43846  21663283.7914   21663286.9434
     -1392.8914      -1085.3694
  14145527.35445  10984958.45345  23692687.2754   23692691.0144
     -3627.4374      -2826.5754
 96  8 31 16  6 30.0020000  0  6G17G 5G 6G10G16G24
   -523811.45145  -2480684.09445  24194791.3854   24194795.4634
      1692.9384       1319.1724
  12842438.88746   9998889.26446  22833558.5574   22833561.5334
     -4150.9374      -3234.4974
  -7998954.49946  -6104942.56646  21946981.2914   21946983.5644
       867.1414        675.6944
    796422.98946    620591.08746  21821923.1354   21821926.4284
     -1998.7664      -1557.4804
  -2894618.57647  -2170424.20646  21671300.5184   21671303.7994
     -1415.8284      -1103.2434
  14254411.91945  11069803.55445  23713407.4634   23713410.9324
     -3631.7194      -2829.9114
 96  8 31 16  7  0.0020000  0  6G17G 5G 6G10G16G24
   -574471.56245  -2520159.45745  24185151.0574   24185156.0614
      1684.3284       1312.4634
  12967154.59346  10096070.29746  22857291.2444   22857294.3504
     -4163.7974      -3244.5174
  -8024824.02546  -6125100.62846  21942058.1824   21942060.4554
       857.2194        667.9634
    856704.68446    667563.83646  21833394.0494   21833397.4004
     -2020.3444      -1574.2944
  -2851807.34747  -2137064.80346  21679447.3224   21679450.7684
     -1438.4064      -1120.8364
  14363429.51545  11154752.30645  23734152.6354   23734156.0454
     -3636.3754      -2833.5394
 96  8 31 16  7 30.0020000  0  6G17G 5G 6G10G16G24
   -624878.17445  -2559437.28645  24175558.7834   24175562.5684
      1675.8754       1305.8774
  13092259.37946  10193554.50946  22881098.1504   22881101.4904
     -4176.9224      -3254.7444
  -8050393.39746  -6145024.80646  21937192.5724   21937194.8814
       847.4064        660.3174
    917636.03046    715042.81146  21844988.9164   21844992.0574
     -2041.8284      -1591.0354
  -2808319.45547  -2103178.13046  21687722.7524   21687725.7874
     -1461.0784      -1138.5024
  14472592.12445  11239814.05745  23754925.7684   23754929.3894
     -3641.3914      -2837.4474
 96  8 31 16  8  0.0020000  0  6G17G 5G 6G10G16G24
   -675025.55345  -2598513.14245  24166015.8774   24166020.8344
      1667.3914       1299.2654
  13217767.57546  10291353.06546  22904981.4324   22904984.5494
     -4190.2344      -3265.1184
  -8075680.54646  -6164729.07246  21932380.7214   21932383.3114
       838.4224        653.3164
    979214.64246    763026.14346  21856707.1044   21856710.1864
     -2063.4374      -1607.8734
  -2764138.48647  -2068751.39846  21696129.9714   21696133.2874
     -1484.3594      -1156.6444
  14581915.45045  11325001.02945  23775729.1824   23775732.6044
     -3646.7664      -2841.6364
 96  8 31 16  8 30.0020000  0  6G17G 5G 6G10G16G24
   -724911.69945  -2637385.40745  24156523.6194   24156527.9794
      1658.6254       1292.4354
  13343687.72446  10389472.62546  22928943.0104   22928946.1154
     -4204.0784      -3275.9054
  -8100694.13946  -6184220.17946  21927620.6584   21927623.3184
       829.5784        646.4254
   1041452.47046    811523.15546  21868550.3614   21868553.8184
     -2085.3124      -1624.9194
  -2719245.61647  -2033769.94146  21704672.7994   21704676.1504
     -1508.0164      -1175.0774
  14691397.50245  11410311.67945  23796563.0254   23796566.6114
     -3651.5164      -2845.3374
 96  8 31 16  9  0.0020000  0  6G17G 5G 6G10G16G24
   -774524.51845  -2676044.69945  24147082.4244   24147087.4044
      1649.2034       1285.0934
  13470028.76446  10487920.14846  22952985.2214   22952987.9984
     -4218.1094      -3286.8384
  -8125441.09246  -6203503.50746  21922911.4794   21922913.8934
       820.6564        639.4724
   1104354.52746    860537.74646  21880520.2214   21880523.5374
     -2107.8754      -1642.5004
  -2673646.24847  -1998237.95846  21713350.4244   21713353.8344
     -1531.5164      -1193.3894
  14801015.62845  11495728.40145  23817422.5024   23817426.6274
     -3655.9064      -2848.7584
 96  8 31 16  9 30.0020000  0  6G17G 5G 6G10G16G24
   -823855.71845  -2714484.54445  24137694.4554   24137699.3544
      1639.9064       1277.8494
  13596772.78846  10586681.69446  22977103.7994   22977106.8574
     -4230.9694      -3296.8594
  -8149933.06946  -6222588.15646  21918250.8854   21918253.2404
       812.6414        633.2264
   1167925.66246    910073.69746  21892617.6974   21892620.8964
     -2129.7974      -1659.5824
  -2627346.99747  -1962160.61746  21722160.8304   21722163.9364
     -1554.7194      -1211.4694
  14910759.65645  11581243.20345  23838306.2754   23838309.8854
     -3659.9844      -2851.9364
 96  8 31 16 10  0.0020000  0  6G17G 5G 6G10G16G24
   -872916.00045  -2752713.30145  24128358.9164   24128364.3074
      1630.8444       1270.7874
  13723886.80346  10685731.54145  23001292.7914   23001295.8734
     -4243.0624      -3306.2824
  -8174193.37846  -6241492.28846  21913634.3464   21913636.6194
       804.6884        627.0294
   1232147.44646    960116.64746  21904838.5024   21904841.8074
     -2151.6564      -1676.6154
  -2580362.55547  -1925549.36646  21731101.6194   21731104.7714
     -1577.4374      -1229.1724
  15020616.26445  11666845.73345  23859211.3544   23859214.1194
     -3663.5004      -2854.6754
 96  8 31 16 10 30.0020000  0  6G17G 5G 6G10G16G24
   -921705.81245  -2790731.29045  24119073.9394   24119078.9674
      1621.9224       1263.8354
  13851358.41446  10785060.03346  23025550.1274   23025553.3144
     -4254.7504      -3315.3904
  -8198210.24246  -6260206.71746  21909063.9554   21909066.3114
       796.5474        620.6864
   1297024.48046   1010670.18246  21917184.1894   21917187.4004
     -2173.2814      -1693.4664
  -2532703.52547  -1888412.45746  21740170.7294   21740173.8814
     -1599.7034      -1246.5224
  15130563.18145  11752518.62845  23880133.5414   23880137.6194
     -3666.2814      -2856.8434
 96  8 31 16 11  0.0020000  0  6G17G 5G 6G10G16G24
   -970218.63845  -2828533.45845  24109842.4324   24109847.6704
      1612.4224       1256.4334
  13979168.45746  10884652.24446  23049871.2994   23049874.6044
     -4265.7034      -3323.9254
  -8221974.84446  -6278724.57946  21904541.7524   21904544.0254
       787.8914        613.9414
   1362552.60946   1061731.06746  21929653.7214   21929656.9204
     -2195.1254      -1710.4874
  -2484376.63247  -1850755.13746  21749367.1824   21749370.5684
     -1621.9534      -1263.8604
  15240610.19445  11838269.54145  23901074.6354   23901078.9244
     -3670.2034      -2859.8994
 96  8 31 16 11 30.0020000  0  6G17G 5G 6G10G16G24
  -1018449.79345  -2866116.12845  24100664.2914   24100669.2014
      1603.1254       1249.1884
  14107303.80446  10984497.93346  23074254.5724   23074257.8894
     -4276.6414      -3332.4474
  -8245479.94846  -6297040.24046  21900068.7994   21900071.1784
       779.1724        607.1474
   1428730.16346   1113297.99346  21942246.9554   21942250.0494
     -2216.6564      -1727.2654
  -2435381.01047  -1812576.72946  21758690.4474   21758693.7294
     -1644.3444      -1281.3074
  15350780.37345  11924116.41445  23922039.3074   23922042.7174
     -3674.3594      -2863.1374
 96  8 31 16 12  0.0020000  0  6G17G 5G 6G10G16G24
  -1066403.03045  -2903482.24545  24091538.6044   24091542.7524
      1593.6724       1241.8224
  14235772.91346  11084603.70145  23098701.6194   23098705.0534
     -4287.8444      -3341.1774
  -8268715.44346  -6315145.81546  21895647.0964   21895649.8264
       769.8284        599.8664
   1495556.64246   1165370.57446  21954963.7834   21954967.1234
     -2238.4224      -1744.2254
  -2385716.37647  -1773877.01146  21768141.3774   21768144.7174
     -1666.5474      -1298.6084
  15461059.14445  12010047.90745  23943024.8934   23943028.3034
     -3677.4844      -2865.5724
 96  8 31 16 12 30.0020000  0  6G17G 5G 6G10G16G24
  -1114063.94445  -2940620.58745  24082469.5964   24082474.7054
      1583.7664       1234.1034
  14364586.74146  11184978.07145  23123213.9634   23123217.4204
     -4299.7194      -3350.4304
  -8291658.88846  -6333023.81446  21891281.1274   21891284.0214
       759.7974        592.0504
   1563042.45946   1217956.92646  21967805.7914   21967808.8964
     -2260.4844      -1761.4164
  -2335381.75647  -1734655.22446  21777719.8854   21777723.1664
     -1688.9844      -1316.0924
  15571443.75545  12096061.85845  23964030.2134   23964034.9474
     -3681.6094      -2868.7874
 96  8 31 16 13  0.0020000  0  6G17G 5G 6G10G16G24
  -1161421.96945  -2977522.90345  24073457.6824   24073462.7214
      1573.6414       1226.2134
  14493759.11046  11285631.82846  23147794.7994   23147797.5184
     -4311.7664      -3359.8174
  -8314302.40346  -6350668.10046  21886972.1274   21886974.8694
       749.7664        584.2334
   1631187.75246   1271057.15146  21980773.4554   21980776.6074
     -2282.4694      -1778.5474
  -2284374.11947  -1694909.01246  21787426.2994   21787429.6504
     -1711.4534      -1333.6004
  15681961.89345  12182179.86945  23985060.9474   23985064.8264
     -3686.1564      -2872.3304
 96  8 31 16 13 30.0020000  0  6G17G 5G 6G10G16G24
  -1208497.33345  -3014204.97745  24064500.0574   24064503.9244
      1564.6414       1219.2004
  14623289.65846  11386564.68645  23172443.5644   23172446.7754
     -4323.7814      -3369.1804
  -8336652.91746  -6368084.08046  21882719.1274   21882721.7174
       740.1724        576.7574
   1699979.20746   1324660.88246  21993863.9004   21993867.2174
     -2303.6414      -1795.0454
  -2232699.92347  -1654643.39947  21797259.6044   21797262.3694
     -1733.4844      -1350.7674
  15792605.34345  12268395.49545  24006115.5644   24006119.8544
     -3690.0784      -2875.3864
 96  8 31 16 14  0.0020000  0  6G17G 5G 6G10G16G24
  -1255302.74245  -3050676.67245  24055592.2994   24055596.4124
      1555.5004       1212.0784
  14753181.46546  11487779.04845  23197160.8224   23197164.2094
     -4335.7194      -3378.4824
  -8358713.29146  -6385273.97146  21878521.2994   21878523.8654
       730.3914        569.1364
   1769403.26846   1378757.55246  22007074.7994   22007078.1394
     -2324.7504      -1811.4944
  -2180371.40447  -1613867.93047  21807217.2364   21807220.1894
     -1755.3284      -1367.7884
  15903370.24145  12354705.77845  24027193.8464   24027198.0644
     -3694.5314      -2878.8564
 96  8 31 16 14 30.0020000  0  6G17G 5G 6G10G16G24
  -1301841.36745  -3086940.51145  24046736.7054   24046740.6314
      1547.1884       1205.6014
  14883421.81546  11589264.99145  23221945.1584   23221947.7954
     -4346.9844      -3387.2614
  -8380485.31446  -6402239.18346  21874378.2604   21874380.4984
       721.2034        561.9764
   1839451.51946   1433340.59646  22020404.7604   22020408.2054
     -2345.0164      -1827.2854
  -2127384.98847  -1572579.81346  21817300.2834   21817303.6584
     -1777.0784      -1384.7364
  16014279.39645  12441128.48045  24048299.0964   24048303.2794
     -3699.3754      -2882.6304
 96  8 31 16 15  0.0020000  0  6G17G 5G 6G10G16G24
  -1348127.05345  -3123007.24245  24037928.5494   24037932.3344
      1538.4534       1198.7954
  15014000.29646  11691014.43345  23246793.4244   23246796.9634
     -4358.2504      -3396.0394
  -8401981.83946  -6418989.71446  21870287.5414   21870289.8264
       711.5944        554.4894
   1910108.65246   1488398.10246  22033850.4084   22033853.6664
     -2365.6414      -1843.3564
  -2073735.72647  -1530775.18946  21827509.4864   21827512.7094
     -1799.6564      -1402.3304
  16125331.58645  12527662.64545  24069431.6434   24069436.3184
     -3704.0314      -2886.2584
 96  8 31 16 15 30.0020000  0  6G17G 5G 6G10G16G24
  -1394159.26845  -3158876.45245  24029169.4714   24029172.9984
      1530.1414       1192.3174
  15144914.46646  11793025.44345  23271705.7524   23271708.9754
     -4369.2344      -3404.5984
  -8423185.40546  -6435511.96647  21866252.7914   21866255.0184
       702.0314        547.0374
   1981379.43246   1543933.76746  22047412.6744   22047416.1314
     -2385.7034      -1858.9894
  -2019414.81547  -1488447.20946  21837846.3384   21837849.6434
     -1821.6094      -1419.4364
  16236505.11945  12614291.31945  24090587.1894   24090591.7134
     -3707.4534      -2888.9254
 96  8 31 16 16  0.0020000  0  6G17G 5G 6G10G16G24
  -1439921.79745  -3194535.53445  24020459.9714   24020464.7404
      1520.9064       1185.1224
  15276152.63846  11895288.90845  23296679.7294   23296683.0574
     -4379.5784      -3412.6584
  -8444093.90646  -6451804.29947  21862274.1664   21862276.4044
       692.0784        539.2824
   2053261.12346   1599945.47546  22061091.4554   22061094.9004
     -2406.2814      -1875.0244
  -1964428.68547  -1445600.87046  21848309.9794   21848313.2954
     -1843.9534      -1436.8474
  16347780.52545  12700999.41344  24111762.6354   24111766.4204
     -3710.5784      -2891.3604
 96  8 31 16 16 30.0020000  0  6G17G 5G 6G10G16G24
  -1485411.49345  -3229982.01745  24011804.1194   24011809.5454
      1511.6564       1177.9144
  15407697.41246  11997791.29845  23321712.0104   23321714.9754
     -4390.2664      -3420.9864
  -8464705.17346  -6467865.02147  21858351.7754   21858354.1784
       681.8754        531.3314
   2125758.47646   1656436.91646  22074886.9084   22074890.0024
     -2427.0164      -1891.1814
  -1908771.02947  -1402231.26946  21858901.0254   21858904.4364
     -1866.5624      -1454.4644
  16459135.21145  12787769.26645  24132952.4714   24132956.5844
     -3713.0944      -2893.3204
 96  8 31 16 17  0.0020000  0  6G17G 5G 6G10G16G24
  -1530619.10545  -3265208.68045  24003201.5184   24003205.8654
      1502.1564       1170.5114
  15539562.36446  12100543.16645  23346805.0254   23346808.5414
     -4400.7504      -3429.1564
  -8485007.54746  -6483685.04747  21854488.3544   21854490.4984
       671.5474        523.2834
   2198884.37446   1713418.13046  22088802.7364   22088806.2174
     -2448.1254      -1907.6304
  -1852441.05347  -1358337.77746  21869620.3224   21869623.7094
     -1888.7974      -1471.7904
  16570554.60145  12874589.55945  24154155.0574   24154159.0644
     -3714.9064      -2894.7324
 96  8 31 16 17 30.0020000  0  6G17G 5G 6G10G16G24
  -1575537.81945  -3300210.24545  23994653.4794   23994657.9904
      1492.7344       1163.1704
  15671743.59646  12203541.49845  23371957.6824   23371961.4434
     -4411.0624      -3437.1924
  -8505001.18046  -6499264.49747  21850683.6274   21850686.1114
       661.7664        515.6624
   2272646.10746   1770894.79446  22102838.9324   22102842.2364
     -2469.0624      -1923.9454
  -1795442.42047  -1313923.25946  21880466.7914   21880470.3074
     -1910.9224      -1489.0304
  16682037.06945  12961458.97344  24175369.5804   24175373.3184
     -3717.1564      -2896.4854
 96  8 31 16 18  0.0020000  0  6G17G 5G 6G10G16G24
  -1620186.28945  -3335001.23945  23986157.8384   23986162.2214
      1484.1884       1156.5104
  15804224.91646  12306773.65045  23397168.5104   23397172.1434
     -4420.8284      -3444.8014
  -8524706.39247  -6514619.20447  21846933.9394   21846936.2014
       652.2194        508.2224
   2347037.31846   1828861.96346  22116994.8384   22116998.2954
     -2490.0944      -1940.3334
  -1737777.03747  -1268989.20046  21891440.2684   21891443.6314
     -1933.2344      -1506.4164
  16793594.79645  13048387.06745  24196597.9634   24196601.0214
     -3719.7664      -2898.5194
 96  8 31 16 18 30.0020000  0  6G17G 5G 6G10G16G24
  -1664568.79245  -3369584.96145  23977712.0964   23977715.7644
      1475.1564       1149.4724
  15937024.53946  12410253.83645  23422439.4164   23422443.0374
     -4432.0474      -3453.5434
  -8544105.29447  -6529735.22247  21843242.4554   21843244.6584
       641.5474        499.9074
   2422072.33746   1887330.81046  22131273.5884   22131277.0214
     -2511.7814      -1957.2324
  -1679422.60747  -1223518.21946  21902544.7834   21902548.0064
     -1956.4844      -1524.5334
  16905251.46945  13135392.23245  24217845.7294   24217849.1504
     -3723.6724      -2901.5624
 96  8 31 16 19  0.0020000  0  6G17G 5G 6G10G16G24
  -1708697.83845  -3403971.18045  23969313.9084   23969317.5184
      1467.1414       1143.2264
  16070131.74746  12513973.69345  23447769.0254   23447771.8034
     -4441.4224      -3460.8484
  -8563211.32547  -6544623.03447  21839606.8144   21839609.0644
       632.6094        492.9424
   2497739.50846   1946292.23546  22145672.7214   22145676.0724
     -2532.3754      -1973.2794
  -1620398.95247  -1177525.76646  21913776.4634   21913779.6974
     -1978.2344      -1541.4814
  17017015.57845  13222481.12145  24239113.7134   24239118.8344
     -3727.0004      -2904.1564
 96  8 31 16 19 30.0020000  0  6G17G 5G 6G10G16G24
  -1752590.13445  -3438172.94245  23960961.6354   23960966.0884
      1459.0314       1136.9074
  16203519.71446  12617912.32745  23473151.9164   23473155.6194
     -4451.0164      -3468.3244
  -8582050.83147  -6559303.16147  21836021.7294   21836023.6974
       623.3594        485.7354
   2574017.26546   2005729.44346  22160187.9244   22160191.2994
     -2552.7814      -1989.1804
  -1560719.10447  -1131021.98347  21925133.3614   21925136.7014
     -2000.3284      -1558.6974
  17128884.18445  13309651.43145  24260401.7994   24260405.7254
     -3730.7974      -2907.1144
 96  8 31 16 20  0.0020000  0  6G17G 5G 6G10G16G24
  -1796248.14245  -3472192.14445  23952654.2054   23952657.9204
      1451.0634       1130.6984
  16337175.40746  12722059.59545  23498585.9004   23498589.1704
     -4459.7194      -3475.1064
  -8600625.13647  -6573776.64546  21832487.1434   21832489.2294
       614.6724        478.9654
   2650893.89746   2065633.30446  22174817.2524   22174820.6394
     -2572.5784      -2004.6064
  -1500397.55147  -1084018.17746  21936611.9864   21936615.4904
     -2021.3914      -1575.1104
  17240850.14745  13396897.62744  24281708.4164   24281712.8574
     -3733.8444      -2909.4894
 96  8 31 16 20 30.0020000  0  6G17G 5G 6G10G16G24
  -1839644.80145  -3506007.67245  23944395.6114   23944399.5374
      1442.2194       1123.8074
  16471109.93346  12826424.10745  23524072.6744   23524076.7054
     -4469.0164      -3482.3504
  -8618927.05546  -6588037.87547  21829004.1354   21829006.2684
       605.8284        472.0744
   2728375.22246   2126008.35946  22189561.3144   22189564.5614
     -2592.5624      -2020.1794
  -1439436.80547  -1036516.29946  21948212.6824   21948216.0214
     -2042.2974      -1591.4004
  17352914.59645  13484220.53345  24303033.4634   24303037.8934
     -3736.8444      -2911.8264
 96  8 31 16 21  0.0020000  0  6G17G 5G 6G10G16G24
  -1882776.63545  -3539616.85845  23936188.0724   23936191.8694
      1432.9064       1116.5504
  16605318.81146  12931002.41845  23549611.5964   23549614.7134
     -4478.6254      -3489.8384
  -8636975.53547  -6602101.62846  21825569.9244   21825572.3144
       597.0004        465.1954
   2806442.91446   2186840.32246  22204417.0414   22204420.4284
     -2612.2034      -2035.4834
  -1377856.98647   -988532.02246  21959930.6274   21959933.9904
     -2063.4224      -1607.8614
  17465061.81845  13571607.93545  24324374.2444   24324378.8034
     -3739.8914      -2914.2004
 96  8 31 16 21 30.0020000  0  6G17G 5G 6G10G16G24
  -1925625.64945  -3573005.66945  23928034.5254   23928038.0294
      1423.4844       1109.2094
  16739819.71945  13035808.26945  23575206.3694   23575210.0024
     -4488.1874      -3497.2894
  -8654745.90346  -6615948.66746  21822188.0104   21822190.3424
       587.4844        457.7804
   2885093.50446   2248126.49046  22219383.9714   22219387.2644
     -2631.1254      -2050.2274
  -1315641.32747   -940052.29146  21971769.9164   21971773.1974
     -2084.2814      -1624.1154
  17577289.80345  13659058.28545  24345730.5804   24345734.2834
     -3742.1254      -2915.9424
 96  8 31 16 22  0.0020000  0  6G17G 5G 6G10G16G24
  -1968183.40845  -3606167.53545  23919935.5024   23919938.8074
      1413.5784       1101.4894
  16874610.23445  13140839.80445  23600856.2444   23600860.2754
     -4498.2344      -3505.1184
  -8672226.66046  -6629570.03246  21818861.6114   21818863.8734
       577.6254        450.0974
   2964315.00146   2309857.52346  22234458.9554   22234462.1894
     -2650.4374      -2065.2764
  -1252798.20647   -891083.62546  21983728.7364   21983732.0644
     -2105.4844      -1640.6374
  17689592.66145  13746566.95944  24367101.2834   24367105.4324
     -3745.0164      -2918.1944
 96  8 31 16 22 30.0020000  0  6G17G 5G 6G10G16G24
  -2010435.51845  -3639091.21345  23911894.9394   23911899.9204
      1403.4844       1093.6244
  17009723.77945  13246123.04545  23626567.5494   23626571.5334
     -4509.0474      -3513.5434
  -8689392.61846  -6642946.09946  21815595.1974   21815597.3544
       566.9694        441.7944
   3044123.41646   2372045.88846  22249646.1274   22249649.6894
     -2669.9064      -2080.4464
  -1189306.93547   -841609.90546  21995810.4084   21995813.8304
     -2127.1254      -1657.5004
  17801994.67945  13834152.93644  24388490.4164   24388494.6114
     -3748.2814      -2920.7394
 96  8 31 16 23  0.0020000  0  6G17G 5G 6G10G16G24
  -2052394.98345  -3671786.87245  23903910.9164   23903915.0414
      1393.6414       1085.9544
  17145147.18545  13351647.73445  23652337.4244   23652341.0214
     -4519.3594      -3521.5794
  -8706242.71946  -6656076.04746  21812388.6354   21812390.8734
       556.0004        433.2474
   3124503.39246   2434679.62646  22264941.9164   22264945.5024
     -2689.1254      -2095.4224
  -1125169.22047   -791632.46646  22008015.6824   22008018.6934
     -2148.8914      -1674.4604
  17914496.29845  13921816.49743  24409899.0574   24409903.1354
     -3752.0164      -2923.6494
 96  8 31 16 23 30.0020000  0  6G17G 5G 6G10G16G24
  -2094068.50145  -3704259.69945  23895980.3544   23895984.9004
      1384.5944       1078.9044
  17280871.36845  13457406.80445  23678165.2214   23678168.3504
     -4528.9224      -3529.0304
  -8722762.83746  -6668948.86247  21809245.0494   21809247.4044
       545.4064        424.9924
   3205467.86246   2497768.82146  22280348.8614   22280352.6114
     -2708.6414      -2110.6294
  -1060390.50847   -741155.55046  22020342.5254   22020345.6784
     -2169.6724      -1690.6534
  18027101.09945  14009560.46743  24431326.9554   24431330.5414
     -3755.1254      -2926.0714
 96  8 31 16 24  0.0020000  0  6G17G 5G 6G10G16G24
  -2135475.10445  -3736524.56145  23888100.6354   23888105.4394
      1376.0944       1072.2814
  17416878.93845  13563386.69445  23704046.9714   23704050.9324
     -4538.1874      -3536.2504
  -8738971.78246  -6681579.20246  21806160.4864   21806162.8424
       535.2344        417.0664
   3287027.50246   2561321.77746  22295869.2524   22295872.4754
     -2728.6254      -2126.2014
   -994994.20447   -690197.39646  22032787.0644   22032790.4284
     -2190.0624      -1706.5424
  18139804.30545  14097381.10744  24452773.8074   24452777.7684
     -3758.2034      -2928.4704
 96  8 31 16 24 30.0030000  0  6G17G 5G 6G10G16G24
  -2176623.50845  -3768588.22645  23880270.5464   23880275.2224
      1367.2504       1065.3904
  17553174.37145  13669590.89145  23729982.9764   23729986.5264
     -4547.3754      -3543.4094
  -8754864.02746  -6693962.76346  21803136.2264   21803138.7574
       524.5164        408.7134
   3369193.79146   2625347.45646  22311505.0934   22311508.3864
     -2748.6564      -2141.8104
   -928980.21847   -638757.92146  22045349.0774   22045352.4764
     -2210.4374      -1722.4194
  18252597.13145  14185271.59143  24474237.5694   24474241.4604
     -3760.7194      -2930.4304
 96  8 31 16 25  0.0030000  0  6G17G 5G 6G10G16G24
  -2217513.45645  -3800450.48345  23872489.1874   23872493.9214
      1358.5004       1058.5714
  17689726.59545  13775995.17945  23755967.7724   23755971.4524
     -4556.2814      -3550.3494
  -8770440.87846  -6706100.56446  21800172.1084   21800174.5224
       513.7344        400.3134
   3451955.24046   2689836.88546  22327253.9604   22327257.1944
     -2768.9064      -2157.5894
   -862365.52147   -586850.36646  22058025.6324   22058028.8314
     -2230.5164      -1738.0644
  18365449.06645  14273208.11244  24495713.1014   24495715.8784
     -3762.8754      -2932.1104
 96  8 31 16 25 30.0030000  0  6G17G 5G 6G10G16G24
  -2258142.48245  -3832109.42345  23864757.9374   23864762.0504
      1349.8594       1051.8384
  17826536.19245  13882600.01445  23782001.7574   23782006.1044
     -4564.2814      -3556.5834
  -8785703.87046  -6717993.79746  21797267.6714   21797269.9334
       503.8134        392.5814
   3535315.45846   2754792.89146  22343117.0074   22343120.2294
     -2788.3284      -2172.7234
   -795159.60547   -534482.12646  22070814.3584   22070817.4874
     -2250.0784      -1753.3084
  18478356.87645  14361188.20743  24517198.8354   24517203.0544
     -3764.4534      -2933.3404
 96  8 31 16 26  0.0030000  0  6G17G 5G 6G10G16G24
  -2298486.83045  -3863546.56345  23857080.6874   23857084.9404
      1339.8594       1044.0464
  17963598.26545  13989401.58945  23808083.9134   23808087.8974
     -4573.1254      -3563.4744
  -8800658.44646  -6729646.70447  21794421.8824   21794424.0624
       493.2504        384.3514
   3619259.51046   2820203.83246  22359091.0464   22359094.6444
     -2807.6874      -2187.8084
   -727340.83347   -481636.33846  22083719.8124   22083722.9644
     -2271.2814      -1769.8304
  18591329.63145  14449218.89644  24538696.6554   24538700.4294
     -3766.8754      -2935.2274
 96  8 31 16 26 30.0030000  0  6G17G 5G 6G10G16G24
  -2338543.41745  -3894759.45845  23849458.6474   23849462.6674
      1330.2814       1036.5834
  18100918.48345  14096404.30545  23834214.9684   23834218.9404
     -4581.8124      -3570.2444
  -8815309.30446  -6741062.95447  21791634.0694   21791635.9094
       483.1884        376.5104
   3703763.27846   2886050.91346  22375171.5934   22375175.1324
     -2826.2814      -2202.2974
   -658887.03047   -428295.71346  22096746.1944   22096749.1244
     -2292.5474      -1786.4004
  18704361.44945  14537295.59944  24560205.3744   24560208.9724
     -3768.9224      -2936.8224
 96  8 31 16 27  0.0030000  0  6G17G 5G 6G10G16G24
  -2378311.08745  -3925747.22145  23841890.4764   23841895.2454
      1320.5784       1029.0224
  18238508.71445  14203617.42345  23860397.9684   23860401.4484
     -4591.0944      -3577.4764
  -8829652.53146  -6752239.48746  21788904.4604   21788906.5694
       472.7814        368.4014
   3788838.31946   2952343.14846  22391360.8974   22391364.0384
     -2845.6414      -2217.3824
   -589782.88047   -374448.32646  22109896.6014   22109899.8124
     -2314.7034      -1803.6654
  18817475.01945  14625435.99545  24581730.8124   24581734.3864
     -3772.3124      -2939.4644
 96  8 31 16 27 30.0030000  0  6G17G 5G 6G10G16G24
  -2417801.24645  -3956518.74445  23834375.8584   23834379.7024
      1312.0474       1022.3744
  18376357.78945  14311032.24645  23886629.1014   23886632.6874
     -4598.9844      -3583.6244
  -8843697.16046  -6763183.34947  21786231.7964   21786233.9764
       463.3594        361.0594
   3874477.53646   3019074.99546  22407657.6714   22407661.0224
     -2863.7344      -2231.4814
   -520016.80147   -320085.15446  22123172.5154   22123175.7494
     -2336.5944      -1820.7224
  18930680.38745  14713647.94544  24603272.4374   24603275.7884
     -3774.6874      -2941.3154
 96  8 31 16 28  0.0030000  0  6G17G 5G 6G10G16G24
  -2457028.01245  -3987085.02745  23826911.1244   23826915.3784
      1303.2814       1015.5444
  18514467.92845  14418650.48645  23912911.4444   23912914.8314
     -4608.4844      -3591.0274
  -8857437.69646  -6773890.25247  21783617.1244   21783619.5264
       452.5314        352.6224
   3960681.89446   3086247.21746  22424061.6404   22424064.9214
     -2883.3124      -2246.7374
   -449577.23947   -265197.18746  22136576.5934   22136579.8394
     -2359.2664      -1838.3894
  19043964.35245  14801921.15743  24624829.7964   24624833.5464
     -3777.5004      -2943.5064
 96  8 31 16 28 30.0030000  0  6G17G 5G 6G10G16G24
  -2496021.86645  -4017469.82345  23819491.0464   23819495.0544
      1295.8444       1009.7484
  18652842.79445  14526475.02745  23939243.0774   23939246.3234
     -4616.9064      -3597.5894
  -8870860.48646  -6784349.56646  21781063.0154   21781065.1714
       441.7034        344.1844
   4047467.61446   3153872.44646  22440576.5154   22440579.6674
     -2902.8444      -2261.9564
   -378490.37947   -209804.83746  22150104.0384   22150107.5304
     -2380.1254      -1854.6434
  19157319.03445  14890249.43144  24646400.0694   24646404.4994
     -3779.9064      -2945.3814
 96  8 31 16 29  0.0030000  0  6G17G 5G 6G10G16G24
  -2534784.01045  -4047674.05245  23812114.9914   23812118.7294
      1288.2344       1003.8194
  18791463.67645  14634491.25345  23965621.3824   23965626.1164
     -4624.5004      -3603.5064
  -8883949.46046  -6794548.76146  21778572.1014   21778574.3044
       430.8914        335.7594
   4134836.74846   3221952.27946  22457202.0384   22457205.1904
     -2921.6724      -2276.6274
   -306779.76147   -153926.43946  22163750.2184   22163753.5464
     -2400.6094      -1870.6054
  19270750.02345  14978637.17144  24667986.0544   24667990.6124
     -3782.1564      -2947.1354
 96  8 31 16 29 30.0030000  0  6G17G 5G 6G10G16G24
  -2573308.85845  -4077693.38345  23804783.6014   23804787.4684
      1280.2814        997.6224
  18930318.65945  14742689.88245  23992044.9684   23992048.9054
     -4632.4844      -3609.7284
  -8896707.43846  -6804490.03946  21776144.3744   21776146.8584
       419.7664        327.0904
   4222769.36646   3290471.19646  22473935.2494   22473938.5774
     -2940.3124      -2291.1534
   -234456.26847    -97570.47546  22177512.7024   22177516.0074
     -2420.6564      -1886.2264
  19384242.51345  15067072.83943  24689582.6794   24689586.4764
     -3783.8754      -2948.4744
 96  8 31 16 30  0.0030000  0  6G17G 5G 6G10G16G24
  -2611593.77845  -4107525.75845  23797498.1874   23797502.7804
      1271.7974        991.0114
  19069413.36745  14851075.33345  24018513.9374   24018517.2184
     -4640.5624      -3616.0234
  -8909134.70846  -6814173.62347  21773779.6014   21773781.7574
       408.6254        318.4094
   4311253.59146   3359419.93546  22490773.1714   22490776.4994
     -2958.7814      -2305.5444
   -161545.16147    -40756.63646  22191387.2654   22191390.5934
     -2440.1874      -1901.4454
  19497787.91945  15155549.75342  24711189.7414   24711193.8194
     -3785.9694      -2950.1064
 96  8 31 16 30 30.0030000  0  6G17G 5G 6G10G16G24
  -2649591.43145  -4137134.29245  23790267.5774   23790270.8824
      1262.4534        983.7304
  19208759.69345  14959656.83245  24045030.5624   24045033.7964
     -4648.0004      -3621.8184
  -8921209.15846  -6823582.27946  21771482.0694   21771484.2494
       397.6724        309.8744
   4400300.53046   3428807.15246  22507718.0224   22507721.5154
     -2976.2974      -2319.1924
    -88030.06247     16527.85146  22205376.6474   22205380.1634
     -2459.7664      -1916.7004
  19611418.11145  15244092.71745  24732812.5854   24732817.3784
     -3788.1254      -2951.7864
 96  8 31 16 31  0.0030000  0  6G17G 5G 6G10G16G24
  -2687281.10345  -4166502.83745  23783095.6084   23783099.4294
      1250.3444        974.2944
  19348348.26645  15068427.10545  24071593.6634   24071597.4834
     -4657.7814      -3629.4404
  -8932945.08546  -6832727.15446  21769248.6634   21769250.9954
       384.9064        299.9274
   4489882.27646   3498611.09546  22524765.1084   22524768.2144
     -2995.7814      -2334.3754
    -13900.83247     74290.87846  22219483.1084   22219486.3434
     -2482.1724      -1934.1604
  19725129.41445  15332698.87745  24754451.4764   24754456.4094
     -3792.5474      -2955.2314
 96  8 31 16 31 30.0030000  0  6G17G 5G 6G10G16G24
  -2724678.20945  -4195643.41845  23775979.0624   23775982.6474
      1243.2974        968.8034
  19488158.05545  15177369.74945  24098198.7414   24098202.7964
     -4662.2814      -3632.9464
  -8944372.19346  -6841631.38946  21767074.0154   21767076.2064
       377.5474        294.1924
   4579981.56246   3568818.32546  22541910.2494   22541913.9994
     -3010.2664      -2345.6624
     60830.93047    132523.41146  22233704.2184   22233707.4874
     -2499.3594      -1947.5534
  19838898.56945  15421350.14443  24776100.8124   24776104.6204
     -3791.6094      -2954.5014
 96  8 31 16 32  0.0030000  0  6G17G 5G 6G10G16G24
  -2761799.84645  -4224569.33745  23768915.1874   23768919.3474
      1233.6094        961.2544
  19628159.44645  15286461.69945  24124840.4054   24124844.0734
     -4669.0004      -3638.1824
  -8955519.94446  -6850317.94647  21764952.9444   21764955.2294
       367.8754        286.6564
   4670578.51246   3639413.34746  22559150.5694   22559154.0034
     -3027.3754      -2358.9944
    136140.81446    191206.43346  22248035.1164   22248038.6674
     -2519.0474      -1962.8944
  19952709.89745  15510034.24644  24797758.3584   24797763.0114
     -3793.5624      -2956.0234
 96  8 31 16 32 30.0030000  0  6G17G 5G 6G10G16G24
  -2798640.45145  -4253276.26945  23761904.6794   23761908.3354
      1222.2814        952.4274
  19768361.83445  15395710.26745  24151519.5854   24151523.4054
     -4678.2194      -3645.3654
  -8966379.44546  -6858779.89246  21762886.1634   21762888.4374
       355.7344        277.1964
   4761690.68846   3710409.83346  22576488.4764   22576492.0624
     -3047.0944      -2374.3594
    212037.69347    250346.85146  22262477.6634   22262481.1674
     -2541.0624      -1980.0494
  20066576.05845  15598761.11443  24819426.3194   24819432.2724
     -3797.9224      -2959.4204
 96  8 31 16 33  0.0030000  0  6G17G 5G 6G10G16G24
  -2835230.04545  -4281787.60545  23754941.9684   23754945.1904
      1214.9384        946.7054
  19908766.54045  15505116.48045  24178237.6874   24178241.6364
     -4684.1254      -3649.9684
  -8976944.60746  -6867012.48146  21760876.0154   21760878.3474
       346.4384        269.9514
   4853329.10646   3781816.38246  22593926.6944   22593930.5734
     -3064.3124      -2387.7764
    288518.33547    309942.15146  22277031.7724   22277035.2414
     -2559.7814      -1994.6354
  20180499.10145  15687532.28243  24841105.4524   24841109.8124
     -3799.0474      -2960.2964
 96  8 31 16 33 30.0030000  0  6G17G 5G 6G10G16G24
  -2871511.62445  -4310058.95145  23748037.6014   23748041.1874
      1205.3134        939.2054
  20049439.57745  15614731.79645  24205006.8434   24205010.2654
     -4692.5474      -3656.5304
  -8987134.37247  -6874952.55346  21758936.8824   21758938.8864
       334.4534        260.6134
   4945578.72246   3853699.18446  22611481.1474   22611484.6984
     -3084.0624      -2403.1664
    365648.29246    370043.41146  22291708.8904   22291712.3234
     -2580.5474      -2010.8164
  20294543.08945  15776397.67143  24862807.3744   24862811.1014
     -3802.3284      -2962.8534
 96  8 31 16 34  0.0030000  0  6G17G 5G 6G10G16G24
  -2907548.41645  -4338139.54245  23741179.8124   23741183.4914
      1196.7814        932.5574
  20190322.69745  15724510.78645  24231815.8974   24231820.2804
     -4700.0944      -3662.4114
  -8996998.34247  -6882638.75947  21757059.9214   21757061.8194
       322.5164        251.3114
   5038378.34546   3926010.56646  22629140.2804   22629144.0424
     -3103.0624      -2417.9714
    443352.56346    430592.18146  22306495.4294   22306498.8394
     -2600.2664      -2026.1814
  20408641.91845  15865305.83443  24884519.9684   24884524.8784
     -3804.7034      -2964.7044
 96  8 31 16 34 30.0030000  0  6G17G 5G 6G10G16G24
  -2943371.07645  -4366053.26945  23734363.2104   23734367.0304
      1190.5314        927.6874
  20331391.96945  15834434.84745  24258660.6014   24258664.0114
     -4705.2814      -3666.4534
  -9006528.49446  -6890064.84747  21755246.3584   21755248.4684
       311.8754        243.0194
   5131719.30346   3998743.76846  22646902.3274   22646906.0774
     -3120.4844      -2431.5464
    521625.66046    491584.19546  22321390.2104   22321393.6674
     -2618.8914      -2040.6944
  20522775.98245  15954241.43243  24906238.9524   24906243.4644
     -3805.1414      -2965.0454
 96  8 31 16 35  0.0030000  0  6G17G 5G 6G10G16G24
  -2978923.63745  -4393756.53345  23727597.3194   23727600.9174
      1180.3134        919.7244
  20472682.20845  15944531.08345  24285547.1554   24285550.8474
     -4713.0474      -3672.5044
  -9015665.72947  -6897184.76246  21753507.4994   21753509.7144
       298.2814        232.4274
   5225649.57046   4071936.16946  22664776.8434   22664780.2884
     -3140.5784      -2447.2044
    600529.97947    553068.07546  22336405.4294   22336408.6754
     -2640.5164      -2057.5454
  20636989.93144  16043239.26843  24927972.7574   24927976.7884
     -3808.2504      -2967.4684
 96  8 31 16 35 30.0030000  0  6G17G 5G 6G10G16G24
  -3014192.69745  -4421238.89145  23720885.9294   23720890.4404
      1172.1724        913.3814
  20614169.81145  16054781.10745  24312472.1164   24312476.1834
     -4718.1564      -3676.4854
  -9024441.30047  -6904022.86046  21751837.6944   21751840.0624
       288.1254        224.5134
   5320139.60546   4145564.75546  22682758.1474   22682761.5584
     -3157.3594      -2460.2804
    680044.48147    615027.41846  22351536.4994   22351539.5584
     -2659.0164      -2071.9604
      7614.68954                  24949718.2724
     -3808.8124
 96  8 31 16 36  0.0030000  0  6G17G 5G 6G10G16G24
  -3049184.46945  -4448505.17945  23714227.1014   23714231.1794
      1162.0164        905.4674
  20755839.96045  16165173.37745  24339430.7494   24339434.5224
     -4725.1874      -3681.9644
  -9032880.86046  -6910599.13846  21750231.6794   21750233.9174
       275.8134        214.9194
   5415159.08546   4219605.89846  22700839.6324   22700842.9254
     -3175.9374      -2474.7564
    760146.57446    677444.62446  22366779.7804   22366782.7804
     -2679.8914      -2088.2264
     87649.93054                  24971474.9214
     -3811.7504
 96  8 31 16 36 30.0030000  0  6G17G 5G 6G10G16G24
  -3083907.23445  -4475561.84845  23707619.8584   23707623.3624
      1152.1254        897.7604
  20897689.87645  16275705.71445  24366423.4444   24366427.7224
     -4732.0944      -3687.3464
  -9040994.11947  -6916921.15846  21748687.8514   21748690.0894
       264.5314        206.1284
   5510698.54646   4294052.22346  22719020.1014   22719023.5224
     -3193.8914      -2488.7464
    840839.30046    740322.06346  22382134.7964   22382137.9014
     -2700.0784      -2103.9574
    202032.20445     38624.63652  24993240.7654   24993245.6634
     -3814.3284      -2972.2044
 96  8 31 16 37  0.0030000  0  6G17G 5G 6G10G16G24
  -3118349.24545  -4502399.74545  23701065.4294   23701069.4604
      1142.7344        890.4424
  21039727.28645  16386384.14545  24393452.7964   24393457.0624
     -4738.4224      -3692.2774
  -9048801.71847  -6923004.99346  21747201.9604   21747203.8944
       254.6564        198.4334
   5606739.94846   4368889.67146  22737296.3124   22737299.4054
     -3210.2344      -2501.4814
    922094.98046    803638.16846  22397597.2804   22397601.0194
     -2718.3914      -2118.2264
    316466.93844    127794.54043  25015016.8824   25015021.6514
     -3815.9694      -2973.4824
 96  8 31 16 37 30.0030000  0  6G17G 5G 6G10G16G24
  -3152499.62946  -4529010.40845  23694567.1084   23694570.5654
      1134.1254        883.7344
  21181978.07645  16497228.88145  24420522.3434   24420526.1404
     -4745.2034      -3697.5614
  -9056285.16547  -6928836.24547  21745777.8584   21745779.9794
       244.0634        190.1794
   5703292.27746   4444125.24246  22755669.3354   22755672.7804
     -3226.6724      -2514.2904
   1003921.20046    867398.85146  22413168.3194   22413171.8824
     -2736.6414      -2132.4474
    430975.65445    217022.07042  25036807.4134   25036812.2064
     -3817.9694      -2975.0414
 96  8 31 16 38  0.0030000  0  6G17G 5G 6G10G16G24
  -3186416.70646  -4555439.26245  23688113.1324   23688116.2264
      1126.7194        877.9634
  21324424.86545  16608226.32044  24447629.1164   24447634.3084
     -4751.7194      -3702.6384
  -9063450.95447  -6934419.96846  21744414.2024   21744416.4294
       233.2504        181.7534
   5800331.09546   4519739.89146  22774135.4994   22774138.8274
     -3243.0164      -2527.0254
   1086287.56046    931580.42246  22428841.9294   22428845.3744
     -2754.9694      -2146.7294
    545530.45445    306285.49643  25058606.6014   25058609.6014
     -3819.3914      -2976.1494
 96  8 31 16 38 30.0030000  0  6G17G 5G 6G10G16G24
  -3220107.30246  -4581691.65545  23681702.0464   23681704.5544
      1119.9384        872.6794
  21467070.91145  16719379.01445  24474774.4444   24474777.7144
     -4757.2194      -3706.9244
  -9070289.94547  -6939749.04847  21743113.0154   21743115.2294
       223.3594        174.0464
   5897861.70646   4595737.75646  22792695.1014   22792698.7454
     -3258.3594      -2538.9814
   1169202.85446    996189.73446  22444620.2334   22444623.7614
     -2772.1094      -2160.0854
    660132.88545    395586.06042  25080414.2574   25080420.1874
     -3819.9224      -2976.5624
 96  8 31 16 39  0.0030000  0  6G17G 5G 6G10G16G24
  -3253543.90446  -4607746.11545  23675338.8584   23675341.8474
      1109.4384        864.4974
  21609923.86845  16830692.94145  24501957.8514   24501962.3044
     -4766.1094      -3713.8514
  -9076779.12047  -6944805.54547  21741878.2334   21741880.5654
       209.3914        163.1624
   5995900.72546   4672131.78846  22811351.1244   22811354.6754
     -3277.3754      -2553.7994
   1252689.60547   1061244.34146  22460507.5544   22460510.8124
     -2793.5944      -2176.8264
    774799.96744    484937.00643  25102235.1164   25102240.4014
     -3824.2974      -2979.9724
 96  8 31 16 39 30.0030000  0  6G17G 5G 6G10G16G24
  -3286754.06045  -4633624.12745  23669019.0624   23669022.4954
      1101.7974        858.5434
  21752954.75945  16942145.51444  24529175.7574   24529179.9524
     -4771.9374      -3718.3934
  -9082931.70047  -6949599.76047  21740707.3744   21740709.5424
       198.0634        154.3344
   6094433.00946   4748910.17446  22830100.9914   22830104.8474
     -3294.1874      -2566.8994
   1336736.96647   1126735.78046  22476501.2654   22476504.3584
     -2812.2034      -2191.3274
    889507.81144    574319.67742  25124062.8664   25124067.1674
     -3825.5314      -2980.9334
 96  8 31 16 40  0.0030000  0  6G17G 5G 6G10G16G24
  -3319660.66846  -4659265.62245  23662757.4764   23662761.1904
      1092.2034        851.0674
  21896215.71945  17053777.36943  24556437.0074   24556441.7184
     -4778.2814      -3723.3364
  -9088687.96647  -6954085.15447  21739611.8274   21739613.7614
       186.1564        145.0574
   6193536.64846   4826133.77346  22848959.9214   22848963.7414
     -3312.3284      -2581.0354
   1421415.21446   1192718.82146  22492614.4914   22492617.8314
     -2832.7034      -2207.3014
                     42095.34554  25145909.0224
     -3827.3594
 96  8 31 16 40 30.0030000  0  6G17G 5G 6G10G16G24
  -3352280.76146  -4684683.84045  23656550.0774   23656553.8514
      1082.3914        843.4214
  22039642.39245  17165538.35443  24583730.3274   24583734.0424
     -4783.5004      -3727.4034
  -9094104.59947  -6958305.89847  21738580.9444   21738583.1014
       174.8134        136.2184
   6293165.61646   4903766.71946  22867918.5224   22867922.1444
     -3329.7194      -2594.5864
   1506684.01346   1259162.03646  22508840.9054   22508844.1984
     -2851.8754      -2222.2404
                    156929.35544  25167761.5224
     -3828.2504
 96  8 31 16 41  0.0030000  0  6G17G 5G 6G10G16G24
  -3384603.99146  -4709870.74445  23650399.0464   23650402.4794
      1072.5634        835.7634
  22183228.03045  17277423.21844  24611053.7884   24611058.9684
     -4788.8444      -3731.5674
  -9099176.14947  -6962257.75047  21737615.9444   21737617.9724
       163.4694        127.3784
   6393318.61846   4981808.00446  22886977.1714   22886980.4524
     -3347.0944      -2608.1254
   1592528.94346   1326054.18046  22525176.6324   22525180.1124
     -2870.9534      -2237.1064
    271788.46944     32815.21651  25189618.5544   25189621.9994
     -3828.8444      -2983.5154
 96  8 31 16 41 30.0030000  0  5G17G 5G 6G10G16
  -3416652.08546  -4734843.25845  23644300.7024   23644304.3124
      1065.6724        830.3944
  22326957.98845  17389420.53945  24638404.8274   24638408.5074
     -4791.4064      -3733.5634
  -9103926.20347  -6965959.08647  21736712.2024   21736714.3124
       154.9534        120.7434
   6493978.01646   5060243.88246  22906132.0854   22906135.6474
     -3361.7194      -2619.5214
   1678921.46947   1393373.02446  22541616.7104   22541620.0974
     -2886.8444      -2249.4894
 96  8 31 16 42  0.0030000  0  6G17G 5G 6G10G16G24
  -3448442.47146  -4759614.96845  23638250.8744   23638254.2724
      1054.7504        821.8834
  22470817.48445  17501518.76443  24665780.8434   24665784.4054
     -4798.1874      -3738.8474
  -9108369.42347  -6969421.32847  21735866.6554   21735868.6594
       142.2034        110.8084
   6595113.75246   5139050.93146  22925377.7024   22925380.9834
     -3379.5004      -2633.3774
   1765844.85747   1461105.52446  22558157.5854   22558161.1594
     -2906.9694      -2265.1704
     88031.19654                  25233324.6404
     -3828.2194
 96  8 31 16 42 30.0030000  0  6G17G 5G 6G10G16G24
  -3479966.18346  -4784178.87045  23632252.1874   23632255.8904
      1047.2194        816.0154
  22614827.51845  17613734.32244  24693184.8974   24693187.8154
     -4802.2814      -3742.0374
  -9112476.16047  -6972621.37846  21735085.1164   21735087.0734
       131.7814        102.6874
   6696719.28146   5218224.05446  22944712.4524   22944715.8864
     -3393.9534      -2644.6394
   1853302.67546   1529254.45946  22574800.3194   22574803.9764
     -2923.3594      -2277.9424
     19141.73354                  25255179.3664
     -3828.0004
 96  8 31 16 43  0.0030000  0  5G17G 5G 6G10G16
  -3511216.51046  -4808529.75245  23626305.3974   23626309.0424
      1035.6254        806.9814
  22759014.34845  17726087.63144  24720622.8434   24720627.1794
     -4810.6254      -3748.5394
  -9116212.98347  -6975533.18547  21734373.9214   21734375.8194
       116.8444         91.0474
   6798812.51446   5297777.21746  22964140.1874   22964143.6674
     -3412.7814      -2659.3104
   1941318.28446   1597838.04446  22591549.1874   22591552.8314
     -2944.8594      -2294.6964
 96  8 31 16 43 30.0030000  0  5G17G 5G 6G10G16
  -3542224.41046  -4832691.72445  23620404.6014   23620407.7884
      1030.1094        802.6834
  22903348.13345  17838555.45043  24748088.8514   24748092.3904
     -4813.0004      -3750.3904
  -9119596.08347  -6978169.36446  21733730.2414   21733732.3044
       107.2974         83.6084
   6901366.83846   5377689.66946  22983655.6404   22983659.2374
     -3425.4534      -2669.1844
   2029877.33146   1666845.08146  22608401.4134   22608404.9644
     -2960.5004      -2306.8834
 96  8 31 16 44  0.0030000  0  5G17G 5G 6G10G16
  -3572979.46846  -4856656.67445  23614552.2724   23614555.6124
      1019.2974        794.2574
  23047831.53945  17951139.88244  24775583.1474   24775586.9564
     -4819.9694      -3755.8204
  -9122604.57347  -6980513.63747  21733157.6634   21733159.9254
        92.4384         72.0294
   7004379.30346   5457959.11346  23003258.5154   23003262.2764
     -3442.9534      -2682.8214
   2118992.56247   1736285.51546  22625359.6084   22625362.7494
     -2981.3754      -2323.1494
 96  8 31 16 44 30.0030000  0  5G17G 5G 6G10G16
  -3603490.14946  -4880431.19845  23608746.5544   23608750.1044
      1013.0474        789.3874
  23192439.71345  18063821.50043  24803101.2494   24803105.1044
     -4822.2504      -3757.5974
  -9125249.29746  -6982574.45346  21732654.3044   21732656.6124
        82.2974         64.1274
   7107845.13046   5538581.82446  23022947.2414   23022950.8624
     -3456.4374      -2693.3284
   2208652.53747   1806150.42646  22642421.2804   22642424.5624
     -2997.6254      -2335.8124
 96  8 31 16 45  0.0030000  0  5G17G 5G 6G10G16
  -3633748.68246  -4904009.24945  23602988.4214   23602991.7144
      1005.7974        783.7384
  23337177.97845  18176604.50045  24830644.0384   24830647.7414
     -4825.4374      -3760.0814
  -9127528.93547  -6984350.78547  21732220.5154   21732222.7534
        71.3754         55.6174
   7211780.27846   5619570.23946  23042725.2414   23042728.5584
     -3470.9224      -2704.6144
   2298868.49647   1876448.56846  22659589.0934   22659592.5854
     -3014.9374      -2349.3024
 96  8 31 16 45 30.0030000  0  5G17G 5G 6G10G16
  -3663764.49446  -4927398.17046  23597276.3514   23597279.7024
       997.4844        777.2614
  23482045.44545  18289488.16944  24858211.0154   24858215.0814
     -4830.1874      -3763.7824
  -9129458.86747  -6985854.62146  21731853.2804   21731855.4484
        59.5164         46.3764
   7316176.11246   5700917.62146  23062591.3194   23062594.8824
     -3486.5944      -2716.8264
   2389617.75447   1947162.27146  22676858.1874   22676861.3624
     -3032.7814      -2363.2064
 96  8 31 16 46  0.0030000  0  5G17G 5G 6G10G16
  -3693519.63446  -4950583.96045  23591614.1244   23591618.0854
       987.2974        769.3224
  23627063.79745  18402489.40844  24885808.2104   24885810.4954
     -4836.6094      -3768.7874
  -9131021.34947  -6987072.13146  21731555.9444   21731557.9834
        45.6564         35.5764
   7421060.21446   5782645.48346  23082550.1164   23082553.7844
     -3504.7504      -2730.9744
   2480918.19046   2018305.46546  22694231.7414   22694234.8824
     -3052.8124      -2378.8154
 96  8 31 16 46 30.0030000  0  5G17G 5G 6G10G16
  -3723014.09146  -4973566.63545  23586001.4684   23586005.4994
       980.5004        764.0264
  23772241.31345  18515614.68845  24913434.1634   24913437.8544
     -4840.4534      -3771.7824
  -9132207.81246  -6987996.63746  21731330.2264   21731332.2414
        34.7664         27.0904
   7526454.77746   5864771.10446  23102605.8354   23102609.5384
     -3520.1094      -2742.9424
   2572770.81446   2089878.92846  22711710.5624   22711714.0304
     -3069.3284      -2391.6844
 96  8 31 16 47  0.0040000  0  5G17G 5G 6G10G16
  -3752262.47846  -4996357.54945  23580435.4574   23580438.9734
       970.4694        756.2094
  23917581.52545  18628866.73544  24941091.5984   24941096.5784
     -4847.5314      -3777.2974
  -9133017.50146  -6988627.56546  21731175.9804   21731178.0314
        20.3754         15.8774
   7632359.92246   5947294.57046  23122758.8794   23122762.5474
     -3538.8594      -2757.5534
   2665172.14946   2161879.95746  22729293.8484   22729297.5624
     -3089.3914      -2407.3174
 96  8 31 16 47 30.0040000  0  5G17G 5G 6G10G16
  -3781296.19346  -5018981.20145  23574910.8014   23574914.0704
       962.6094        750.0854
  24063044.96145  18742214.79344  24968772.6054   24968777.3164
     -4852.2974      -3781.0114
  -9133481.51847  -6988989.13546  21731087.8244   21731089.6294
         7.9534          6.1974
   7738734.85246   6030184.11246  23143001.5824   23143005.5664
     -3555.2664      -2770.3374
   2758086.83746   2234281.00446  22746974.9264   22746978.3834
     -3107.5784      -2421.4894
 96  8 31 16 48  0.0040000  0  5G17G 5G 6G10G16
  -3810082.44046  -5041412.01546  23569432.9344   23569435.9104
       956.7034        745.4834
  24208643.55545  18855668.15144  24996478.9414   24996482.9144
     -4854.0624      -3782.3864
  -9133563.92947  -6989053.35046  21731072.1524   21731074.1804
        -2.1564         -1.6804
   7845602.36646   6113457.48346  23163337.8244   23163341.6214
     -3568.7814      -2780.8694
   2851564.57346   2307120.79346  22764763.3944   22764766.9924
     -3123.8444      -2434.1644
 96  8 31 16 48 30.0040000  0  5G17G 5G 6G10G16
  -3838640.12846  -5063664.73445  23563998.5274   23564001.7854
       946.6414        737.6424
  24354351.91344  18969207.07143  25024206.0744   25024211.4184
     -4860.3284      -3787.2694
  -9133295.03446  -6988843.81446  21731123.1994   21731125.0394
       -16.2664        -12.6754
   7952910.70446   6197074.35046  23183757.7304   23183761.4224
     -3585.5164      -2793.9084
   2945569.52146   2380371.39546  22782651.9104   22782655.3094
     -3143.6874      -2449.6274
 96  8 31 16 49  0.0040000  0  5G17G 5G 6G10G16
  -3866930.40446  -5085709.07445  23558614.9964   23558618.9574
       937.1564        730.2524
  24500200.00345  19082854.86643  25051960.3554   25051965.4064
     -4865.0944      -3790.9824
  -9132648.70346  -6988340.17346  21731246.3714   21731248.4224
       -29.0474        -22.6344
   8060670.05846   6281042.66346  23204263.7384   23204267.5824
     -3600.5004      -2805.5844
   3040125.19046   2454051.13246  22800645.2304   22800648.6294
     -3162.1414      -2464.0064
 96  8 31 16 49 30.0040000  0  5G17G 5G 6G10G16
  -3894938.01146  -5107533.15845  23553285.6214   23553289.5004
       927.9384        723.0684
  24646178.15845  19196603.97444  25079739.1914   25079743.3284
     -4868.7034      -3793.7954
  -9131618.37946  -6987537.31446  21731442.4104   21731444.3444
       -41.7974        -32.5694
   8168865.43846   6365350.72646  23224852.6764   23224856.6724
     -3614.5784      -2816.5544
   3135221.73246   2528152.32346  22818741.6914   22818745.1254
     -3179.5164      -2477.5454
 96  8 31 16 50  0.0040000  0  5G17G 5G 6G10G16
  -3922667.49146  -5129140.51845  23548008.5274   23548011.7974
       920.3754        717.1754
  24792255.84544  19310430.71443  25107536.7774   25107540.5984
     -4870.2504      -3795.0004
  -9130206.72746  -6986437.32246  21731710.9964   21731713.2234
       -52.7194        -41.0804
   8277481.52146   6449986.62746  23245521.6764   23245525.4734
     -3626.7504      -2826.0394
   3230820.00446   2602644.47746  22836933.4344   22836936.7384
     -3193.7344      -2488.6244
 96  8 31 16 50 30.0040000  0  5G17G 5G 6G10G16
  -3950080.65346  -5150501.39146  23542792.0824   23542795.0704
       910.3444        709.3594
  24938479.55844  19424371.19743  25135362.3404   25135366.6174
     -4874.5314      -3798.3364
  -9128368.28346  -6985004.75946  21732060.6994   21732062.9374
       -66.6414        -51.9284
   8386558.83946   6534981.91646  23266278.2384   23266282.0824
     -3642.0474      -2837.9594
   3326924.04146   2677530.72746  22855221.3794   22855224.8484
     -3210.1254      -2501.3964
 96  8 31 16 51  0.0040000  0  5G17G 5G 6G10G16
  -3977195.26946  -5171629.63945  23537631.9104   23537635.3914
       900.5784        701.7494
  25084807.88444  19538393.20445  25163206.9494   25163211.4734
     -4877.2974      -3800.4914
  -9126119.66946  -6983252.59246  21732488.4734   21732490.7814
       -80.0624        -62.3864
   8496098.60146   6620337.55946  23287122.9654   23287126.3874
     -3657.3594      -2849.8904
   3423513.21146   2752795.00246  22873601.6214   22873604.9374
     -3225.9534      -2513.7304
 96  8 31 16 51 30.0040000  0  5G17G 5G 6G10G16
  -4004028.55646  -5192538.67346  23532525.9734   23532529.1724
       889.6094        693.2024
     82966.67953                  25191066.6994
     -4881.7194
  -9123471.71946  -6981189.24646  21732992.4964   21732994.8874
       -95.0784        -74.0874
   8606098.37246   6706051.64646  23308055.1294   23308058.5514
     -3674.7664      -2863.4544
   3520576.74946   2828428.91646  22892072.1134   22892075.6294
     -3243.6724      -2527.5374
 96  8 31 16 52  0.0040000  0  5G17G 5G 6G10G16
  -4030599.69546  -5213243.42545  23527469.8944   23527473.0944
       879.5944        685.3984
    112304.20353                  25218941.8554
     -4886.1874
  -9120443.88546  -6978829.88346  21733568.7694   21733571.1484
      -108.8914        -84.8504
   8716559.02146   6792124.86046  23329075.1524   23329078.6094
     -3691.3754      -2876.3964
   3618114.21746   2904432.12846  22910632.8404   22910636.1914
     -3261.2034      -2541.1974
 96  8 31 16 52 30.0040000  0  5G17G 5G 6G10G16
  -4056895.59146  -5233733.71646  23522465.5594   23522468.5004
       871.8444        679.3594
    258903.37443                  25246839.5824
     -4888.6724
  -9117023.48047  -6976164.62846  21734219.5354   21734221.5394
      -120.5474        -93.9334
   8827498.05646   6878570.85246  23350186.1844   23350189.3484
     -3706.1724      -2887.9264
   3716170.80646   2980839.84246  22929292.4964   22929296.1764
     -3277.7034      -2554.0544
 96  8 31 16 53  0.0040000  0  6G17G 5G 6G10G16G26
  -4082956.61246  -5254040.98246  23517506.7464   23517509.9574
       863.7814        673.0764
    405573.85543     95240.37253  25274749.7544   25274752.4264
     -4891.4374      -3811.5104
  -9113256.52247  -6973229.33046  21734936.6134   21734938.6874
      -132.4534       -103.2104
   8938872.57146   6965356.17646  23371380.2154   23371383.7774
     -3720.4694      -2899.0674
   3814728.04346   3057637.68046  22948047.2934   22948050.5864
     -3294.6874      -2567.2894
    -61794.02854                  25197332.5194
      1502.4064
 96  8 31 16 53 30.0040000  0  6G17G 5G 6G10G16G26
  -4108768.84246  -5274154.38746  23512594.3014   23512597.9344
       855.8134        666.8674
    552364.06743    209622.30943  25302682.8794   25302687.7304
     -4895.7974      -3814.9074
  -9109116.79847  -6970003.57046  21735724.5124   21735726.1874
      -144.7034       -112.7564
   9050678.90646   7052477.98046  23392656.4574   23392660.0904
     -3734.3444      -2909.8784
   3913814.82746   3134848.14646  22966902.8874   22966906.4844
     -3312.1254      -2580.8774
   -106786.94344    -30377.12753  25188771.1374   25188775.2734
      1496.0784       1165.7754
 96  8 31 16 54  0.0040000  0  6G17G 5G 6G10G16G26
  -4134334.13346  -5294075.36946  23507729.6684   23507733.2424
       847.4694        660.3654
    699283.86744    324105.18343  25330641.2544   25330645.9534
     -4899.7664      -3817.9994
  -9104603.66247  -6966486.83646  21736583.0594   21736585.0744
      -157.1564       -122.4594
   9162895.66046   7139919.59346  23414010.3944   23414014.0744
     -3747.7194      -2920.3004
   4013420.96746   3212463.30646  22985857.3794   22985860.6024
     -3329.3124      -2594.2694
   -151588.93644    -65287.74043  25180245.2624   25180250.2074
      1489.6884       1160.7954
 96  8 31 16 54 30.0040000  0  6G17G 5G 6G10G16G26
  -4159639.54346  -5313793.84545  23502914.3324   23502917.6024
       838.7344        653.5594
     63721.99254    438675.58242  25358620.4414   25358624.0164
     -4903.1414      -3820.6294
  -9099717.10747  -6962679.12446  21737512.8714   21737515.0984
      -169.4534       -132.0414
   9275515.32146   7227675.16046  23435441.6524   23435444.7344
     -3761.0624      -2930.6984
   4113541.76046   3290479.49846  23004909.6844   23004913.1414
     -3346.2974      -2607.5044
    -19297.49354   -100039.81743  25171758.4264   25171761.6024
      1482.7504       1155.3904
 96  8 31 16 55  0.0040000  0  5G17G 6G10G16G26
  -4184665.71546  -5333294.73546  23498151.9024   23498154.7854
       829.9384        646.7054
  -9094444.20947  -6958570.36546  21738516.2774   21738518.2694
      -181.8124       -141.6724
   9388544.65046   7315749.94746  23456950.2234   23456953.5274
     -3774.0474      -2940.8164
   4214183.78946   3368901.84646  23024061.3404   23024064.8914
     -3362.9534      -2620.4834
     -7382.73154                  25163312.2774
      1476.6254
 96  8 31 16 55 30.0040000  0  7G17G 5G 6G10G16G26G23
  -4209421.43446  -5352584.87746  23493441.0434   23493444.1134
       820.8594        639.6314
     83449.57954                  25414642.7934
     -4909.6724
  -9088788.51447  -6954163.32546  21739592.3014   21739594.1874
      -194.8284       -151.8144
   9501985.73346   7404145.58146  23478537.4414   23478540.9924
     -3788.3284      -2951.9444
   4315336.58346   3447722.18946  23043309.9964   23043313.5474
     -3379.9694      -2633.7424
    -16184.86854                  25154901.0044
      1470.6414
    -24168.96653                  24734208.6764
      2196.0784
 96  8 31 16 56  0.0040000  0  7G17G 5G 6G10G16G26G23
  -4233934.50146  -5371685.94445  23488776.1214   23488779.5084
       814.5164        634.6884
    132561.01053     15300.75253  25442672.0044   25442676.4804
     -4909.0004      -3825.1954
  -9082773.58947  -6949476.36046  21740737.2234   21740739.2384
      -205.1254       -159.8384
   9615831.90946   7492856.87246  23500201.3164   23500204.8914
     -3800.4534      -2961.3924
   4416963.36146   3526911.87546  23062648.7154   23062652.5354
     -3394.1874      -2644.8214
    -39647.07554                  25146517.1294
      1467.7664
    -89963.16544                  25321273.2544
      2191.3914
 96  8 31 16 56 30.0040000  0  5G17G 6G10G16G26
  -4258184.48546  -5390582.00646  23484161.2074   23484164.8404
       804.5474        626.9204
  -9076368.26747  -6944485.19646  21741956.0274   21741957.8914
      -219.8914       -171.3434
   9730122.76046   7581914.65546  23521950.1054   23521953.9494
     -3816.7344      -2974.0794
   4519095.13446   3606495.05946  23082084.1764   23082087.6564
     -3412.2974      -2658.9334
     -7304.25354                  25138162.5984
      1461.0944
 96  8 31 16 57  0.0040000  0  7G17G 5G 6G10G16G26G23
  -4282189.00346  -5409286.79646  23479593.3324   23479596.9774
       795.6254        619.9684
     24569.27653                  25498766.6054
     -4915.8594
  -9069550.30147  -6939172.48846  21743253.5044   21743255.3554
      -234.8594       -183.0074
   9844855.94946   7671317.13046  23543783.5044   23543787.1024
     -3832.4064      -2986.2914
   4621719.95846   3686462.45246  23101612.9024   23101616.5824
     -3429.4844      -2672.3254
    -51060.39344                  25129836.0664
      1455.6564
    -63193.24744                  25296352.6444
      2175.4384
 96  8 31 16 57 30.0040000  0  4G17G 6G10G16
  -4305952.34346  -5427803.66346  23475071.7234   23475074.9224
       788.4384        614.3674
  -9062305.86347  -6933527.46546  21744632.1294   21744633.9224
      -248.1254       -193.3444
   9960030.80246   7761063.75046  23565700.3714   23565703.9574
     -3845.7974      -2996.7254
   4724829.14046   3766807.25546  23121233.8554   23121237.4184
     -3444.3124      -2683.8804
 96  8 31 16 58  0.0040000  0  4G17G 6G10G16
  -4329456.57446  -5446118.62445  23470599.0354   23470602.6094
       779.4694        607.3784
  -9054627.18446  -6927544.07546  21746093.3634   21746095.4494
      -262.7194       -204.7164
  10075634.70646   7851144.70546  23587699.1374   23587703.0744
     -3860.0164      -3007.8044
   4828416.52646   3847524.69146  23140946.0664   23140949.4184
     -3460.4694      -2696.4694
 96  8 31 16 58 30.0040000  0  4G17G 6G10G16
  -4352733.20446  -5464256.23346  23466169.3794   23466172.7424
       771.3284        601.0354
  -9046559.44447  -6921257.52046  21747628.5044   21747630.5784
      -275.9844       -215.0534
  10191612.90846   7941517.31246  23609768.9964   23609772.4884
     -3872.7664      -3017.7394
   4932435.84646   3928578.69946  23160740.2384   23160743.6134
     -3475.0624      -2707.8414
 96  8 31 16 59  0.0040000  0  6G17G 6G10G16G26G23
  -4375740.11346  -5482183.68046  23461791.4344   23461794.9264
       762.4064        594.0834
  -9038081.66446  -6914651.45446  21749241.5044   21749243.7074
      -289.1724       -225.3294
  10307991.50946   8032201.92046  23631915.1764   23631919.0084
     -3885.9534      -3028.0154
   5036918.41546   4009993.67246  23180622.7304   23180626.1874
     -3490.5784      -2719.9314
    -32956.94653                  25096863.9494
      1430.2034
    -10773.78654                  25246909.4344
      2154.7664
 96  8 31 16 59 30.0040000  0  4G17G 6G10G16
  -4398491.80046  -5499912.23546  23457461.9964   23457465.3364
       753.3754        587.0454
  -9029233.31246  -6907756.63346  21750925.4884   21750927.6094
      -301.7034       -235.0934
  10424751.00646   8123183.33546  23654133.8484   23654137.9734
     -3898.9064      -3038.1094
   5141851.72146   4091759.87346  23200590.8244   23200594.3874
     -3505.9224      -2731.8874
 96  8 31 17  0  0.0040000  0  4G17G 6G10G16
  -4420963.69846  -5517422.79046  23453185.8164   23453189.1914
       743.3284        579.2174
  -9019989.87146  -6900553.94246  21752684.2854   21752686.5004
      -316.0784       -246.2954
  10541913.77446   8214478.97946  23676429.1444   23676432.6724
     -3913.3754      -3049.3834
   5247265.39446   4173900.38646  23220650.2464   23220653.5274
     -3523.1094      -2745.2804
 96  8 31 17  0 30.0040000  0  4G17G 6G10G16
  -4443142.78946  -5534705.17846  23448964.9024   23448967.9494
       736.5634        573.9454
  -9010317.12546  -6893016.73046  21754524.9344   21754527.3014
      -327.6564       -255.3174
  10659507.78846   8306110.66746  23698806.4574   23698809.8914
     -3924.8914      -3058.3564
   5353189.91146   4256438.95846  23240806.8944   23240810.4924
     -3537.3754      -2756.3964
 96  8 31 17  1  0.0040000  0  5G17G 6G10G16G23
  -4465111.17746  -5551823.38546  23444784.4264   23444787.6024
       727.8914        567.1884
  -9000271.18647  -6885188.71546  21756436.7544   21756438.7464
      -342.3754       -266.7864
  10777454.10146   8398016.87046  23721251.1214   23721254.9414
     -3938.2664      -3068.7784
   5459560.98246   4339325.49946  23261048.9414   23261052.4804
     -3554.0784      -2769.4124
    -48977.65854                  25198017.9804
      2126.6254
 96  8 31 17  1 30.0040000  0  4G17G 6G10G16
  -4486776.08146  -5568705.09946  23440661.9104   23440664.9344
       716.7974        558.5434
  -8989740.98847  -6876983.37246  21758440.6444   21758442.6254
      -359.2814       -279.9594
  10895829.76646   8490257.62246  23743777.0514   23743780.8364
     -3952.9374      -3080.2114
   5566456.23746   4422620.49446  23281390.0824   23281393.7274
     -3571.9064      -2783.3044
 96  8 31 17  2  0.0040000  0  6G17G 6G10G16G26G23
  -4508141.01246  -5585353.08346  23436596.1914   23436599.5194
       708.0004        551.6884
  -8978727.53347  -6868401.44946  21760536.6134   21760538.4774
      -374.3754       -291.7214
  11014616.06546   8582818.35245  23766381.5044   23766385.1374
     -3965.7814      -3090.2194
   5673856.72846   4506309.18246  23301827.9654   23301831.7624
     -3587.6254      -2795.5524
    -23596.08454                  25048615.4024
      1386.1414      -4221.24454
                                  25173837.7934
      2110.8284
 96  8 31 17  2 30.0040000  0  6G17G 6G10G16G26G23
  -4529226.53746  -5601783.33846  23432584.0594   23432587.3634
       697.6254        543.6044
  -8967262.89447  -6859467.95446  21762718.1844   21762719.8014
      -389.8914       -303.8114
  11133804.66946   8675692.58446  23789062.2154   23789065.9774
     -3980.1094      -3101.3844
   5781735.63946   4590370.65746  23322356.3874   23322360.2544
     -3604.3124      -2808.5554
    -65043.97844     -6443.63653  25040727.0594   25040731.7234
      1376.9224       1072.9264
     -6309.38854                  25161808.3164
      2103.4384
 96  8 31 17  3  0.0040000  0  6G17G 6G10G16G26G23
  -4550029.59146  -5617993.49346  23428625.1294   23428628.4224
       688.4534        536.4574
  -8955368.17447  -6850199.33846  21764981.7624   21764983.2974
      -403.6414       -314.5254
  11253392.27546   8768877.70645  23811819.0664   23811823.1804
     -3993.2664      -3111.6364
   5890080.86646   4674795.49946  23342973.9654   23342977.9144
     -3619.3444      -2820.2684
   -106234.82345    -38540.31043  25032889.0744   25032892.7424
      1368.4064       1066.2914
    -48290.55154                  25149816.9964
      2096.7344
 96  8 31 17  3 30.0040000  0  6G17G 6G10G16G26G23
  -4570544.32746  -5633978.98446  23424721.4654   23424724.6414
       680.0314        529.8944
  -8943065.81847  -6840613.07946  21767322.6914   21767324.3324
      -415.7194       -323.9374
  11373388.13146   8862380.94645  23834653.4574   23834657.0084
     -4005.7194      -3121.3394
   5998877.44846   4759572.04446  23363677.5194   23363681.2814
     -3633.1094      -2830.9944
   -147161.04245    -70430.79244  25025100.4964   25025103.9304
      1360.8914       1060.4344
   -111085.12845    -14660.33953  25137867.4574   25137871.1724
      2090.1724       1628.7054
 96  8 31 17  4  0.0040000  0  6G17G 6G10G16G26G23
  -4590802.23546  -5649764.34746  23420866.4574   23420869.8324
       670.7034        522.6264
  -8930380.03147  -6830728.04646  21769736.9024   21769738.7894
      -429.8124       -334.9194
  11493781.67146   8956194.07646  23857563.6134   23857566.9884
     -4020.2194      -3132.6384
   6108111.46046   4844689.44746  23384464.0594   23384467.8204
     -3648.8914      -2843.2914
   -187849.50345   -102136.03144  25017358.5194   25017362.1174
      1351.7504       1053.3124
   -173657.16444    -63417.70644  25125960.0594   25125963.7504
      2081.2194       1621.7294
 96  8 31 17  4 30.0040000  0  6G17G 6G10G16G26G23
  -4610791.52846  -5665340.39746  23417062.5904   23417065.8594
       662.0474        515.8814
  -8917292.28247  -6820529.79546  21772227.3794   21772229.1374
      -442.6724       -344.9394
  11614577.23846   9050320.48646  23880550.3014   23880553.7114
     -4032.4224      -3142.1474
   6217794.76946   4930156.95046  23405335.9264   23405338.9144
     -3663.1254      -2854.3834
   -228269.94745   -133632.43943  25009666.0044   25009669.3204
      1343.0944       1046.5674
   -235960.21444   -111965.45344  25114103.9494   25114107.8404
      2072.3914       1614.8504
 96  8 31 17  5  0.0040000  0  6G17G 6G10G16G26G23
  -4630510.53146  -5680705.82646  23413310.1914   23413313.3674
       653.0164        508.8434
  -8903790.34147  -6810008.79746  21774796.4734   21774798.2194
      -457.1564       -356.2264
  11735737.82046   9144731.31245  23903606.4574   23903609.7624
     -4044.4844      -3151.5464
   6327919.36346   5015968.30946  23426291.8404   23426295.4734
     -3678.0784      -2866.0354
   -268429.24745   -164925.32343  25002024.4654   25002028.1444
      1334.5944       1039.9434
   -297991.21245   -160301.22343  25102299.9574   25102303.4614
      2063.4064       1607.8494
 96  8 31 17  5 30.0040000  0  6G17G 6G10G16G26G23
  -4650000.02946  -5695892.43046  23409601.5044   23409604.5394
       646.0944        503.4504
  -8889885.63047  -6799173.95346  21777442.4264   21777443.9614
      -470.2814       -366.4534
  11857210.19546   9239385.09645  23926722.1604   23926725.2544
     -4053.8444      -3158.8394
   6438456.72746   5102101.31046  23447326.5514   23447330.4304
     -3691.4374      -2876.4454
   -308383.73344   -196058.63344  24994421.1054   24994423.4734
      1328.6414       1035.3044
   -359793.80745   -208459.02345  25090539.1524   25090542.3524
      2056.5634       1602.5164
 96  8 31 17  6  0.0040000  0  6G17G 6G10G16G26G23
  -4669229.03846  -5710876.06646  23405941.9494   23405945.1604
       636.2344        495.7674
  -8875514.50547  -6787975.66746  21780177.1684   21780179.2894
      -487.1874       -379.6274
  11979022.03046   9334303.40145  23949902.1294   23949905.5164
     -4066.4374      -3168.6534
   6549464.36346   5188600.75646  23468450.2774   23468454.2274
     -3708.4844      -2889.7284
   -348086.93844   -226996.10843  24986865.1054   24986867.7544
      1318.8284       1027.6584
   -421331.45045   -256410.38045  25078829.0824   25078833.3124
      2046.6884       1594.8214
 96  8 31 17  6 30.0040000  0  6G17G 6G10G16G26G23
  -4688191.53646  -5725652.02146  23402333.6524   23402336.9804
       628.1564        489.4724
  -8860683.09147  -6776418.71846  21782999.4884   21783001.1994
      -501.4534       -390.7434
  12101170.60346   9429484.09345  23973146.4024   23973150.4104
     -4076.8594      -3176.7744
   6660941.87146   5275466.33646  23489663.8094   23489667.5354
     -3723.2974      -2901.2704
                         0.50654  24979358.8094
      1311.4384
   -482632.04145   -304177.01045  25067164.0744   25067168.1644
      2040.3754       1589.9034
 96  8 31 17  7  0.0040000  0  6G17G 6G10G16G26G23
  -4706896.62646  -5740227.39546  23398774.2234   23398777.6334
       619.3754        482.6304
  -8845389.22647  -6764501.41646  21785909.8944   21785912.0864
      -517.6094       -403.3324
  12223670.14446   9524938.25845  23996456.7854   23996460.7234
     -4089.4844      -3186.6114
   6772893.62946   5362701.45946  23510967.5124   23510971.4734
     -3739.6874      -2914.0424
                    -23503.58054  24971895.6444
      1303.2974
   -543729.38645   -351785.26744  25055537.4344   25055541.2074
      2033.1724       1584.2904
 96  8 31 17  7 30.0050000  0  6G17G 6G10G16G26G23
  -4725351.52846  -5754607.80946  23395262.3764   23395265.5284
       611.1884        476.2504
  -8829633.77247  -6752224.43346  21788908.1184   21788910.0524
      -532.5004       -414.9354
  12346549.95746   9620688.74745  24019840.1814   24019843.7554
     -4102.0314      -3196.3884
   6885318.64446   5450305.35446  23532361.3684   23532365.5524
     -3754.8444      -2925.8524
    -62489.21745    -28347.58954  24964476.5404   24964479.6574
      1295.5784       1009.5414
   -604621.97345   -399233.97545  25043950.0874   25043954.0364
      2026.4224       1579.0304
 96  8 31 17  8  0.0050000  0  6G17G 6G10G16G26G23
  -4743561.19446  -5768797.14046  23391797.3374   23391800.4664
       603.3444        470.1384
  -8813440.36347  -6739606.18946  21791989.4934   21791991.4744
      -546.2344       -425.6374
  12469803.93246   9716730.79145  24043294.5014   24043298.8134
     -4114.1874      -3205.8604
   6998186.17846   5538254.07346  23553839.6344   23553843.0914
     -3768.7504      -2936.6884
   -101233.54845    -58537.91443  24957103.8994   24957108.4464
      1288.1724       1003.7704
   -665317.28945   -446528.96345  25032400.1734   25032403.5954
      2020.6564       1574.5374
 96  8 31 17  8 30.0050000  0  6G17G 6G10G16G26G23
  -4761515.70046  -5782787.64946  23388380.6184   23388383.8994
       593.6254        462.5654
  -8796828.56447  -6726661.92946  21795150.6034   21795152.1384
      -561.3754       -437.4354
  12593430.28546   9813062.99345  24066819.6424   24066824.2004
     -4127.5784      -3216.2954
   7111470.56746   5626527.60946  23575397.0244   23575400.0714
     -3783.6414      -2948.2914
   -139754.98945    -88554.56544  24949773.2594   24949776.3764
      1279.8594        997.2934
   -725828.21145   -493680.28644  25020885.1494   25020889.6384
      2013.0784       1568.6324
 96  8 31 17  9  0.0050000  0  6G17G 6G10G16G26G23
  -4779209.62746  -5796575.10946  23385013.6574   23385016.7864
       585.4694        456.2094
  -8779784.72147  -6713381.00746  21798394.1264   21798395.8604
      -575.2504       -448.2474
  12717427.14746   9909683.91045  24090415.6034   24090419.8684
     -4139.2504      -3225.3904
   7225173.37646   5715127.19146  23597033.8374   23597037.3064
     -3796.8284      -2958.5674
   -178041.63345   -118388.26144  24942487.2674   24942490.6064
      1272.0164        991.1814
   -786112.37245   -540654.89245  25009413.1104   25009417.1064
      2005.3134       1562.5814
 96  8 31 17  9 30.0050000  0  6G17G 6G10G16G26G23
  -4796635.51646  -5810153.70646  23381697.5094   23381700.7904
       576.0164        448.8434
  -8762316.39447  -6699769.32146  21801718.2434   21801720.1064
      -589.7194       -459.5214
  12841789.35446  10006589.50645  24114080.9544   24114084.9274
     -4151.7504      -3235.1304
   7339285.87546   5804046.01346  23618748.7514   23618752.3374
     -3811.0784      -2969.6714
   -216066.16245   -148017.72343  24935251.2354   24935254.1774
      1262.5634        983.8154
   -846136.67145   -587427.02945  24997990.5404   24997994.2084
      1995.8754       1555.2274
 96  8 31 17 10  0.0050000  0  6G17G 6G10G16G26G23
  -4813790.02046  -5823520.83846  23378433.1424   23378436.4114
       567.4064        442.1354
  -8744414.56847  -6685819.85046  21805124.8534   21805126.7044
      -603.8594       -470.5404
  12966509.35146  10103773.90745  24137814.3994   24137818.2554
     -4163.0314      -3243.9204
   7453820.99046   5893294.14446  23640544.1654   23640547.5524
     -3824.6724      -2980.2644
   -253808.73545   -177427.46745  24928069.7434   24928073.0834
      1253.4694        976.7294
   -905886.36545   -633985.17545  24986621.2124   24986624.7744
      1987.2974       1548.5434
 96  8 31 17 10 30.0050000  0  7G17G28G 6G10G16G26G23
  -4830690.76546  -5836690.23846  23375217.1264   23375220.5244
       559.6724        436.1084
    -45194.67412    -26027.57915  25718849.395    25718847.290
      1964.563        1530.828
  -8726083.24847  -6671535.70446  21808613.0874   21808614.7744
      -618.0624       -481.6074
  13091566.71646  10201221.18745  24161612.3064   24161615.9974
     -4173.8124      -3252.3214
   7568768.75046   5982863.81646  23662418.0324   23662421.7474
     -3838.3444      -2990.9174
   -291273.17645   -206620.48944  24920940.2984   24920943.3104
      1244.1414        969.4604
   -965365.26445   -680332.31145  24975302.4854   24975305.9424
      1978.0314       1541.3234
 96  8 31 17 11  0.0050000  0  7G17G28G 6G10G16G26G23
  -4847344.65646  -5849667.27446  23372047.8844   23372051.4584
       551.6884        429.8864
   -104083.212 2    -71914.708 5  25707643.267    25707640.978
      1962.484        1529.209
  -8707306.22347  -6656904.24746  21812186.2904   21812187.9664
      -632.6414       -492.9674
  13216961.13546  10298931.10645  24185473.8454   24185478.0284
     -4184.7034      -3260.8084
   7684140.08146   6072763.54246  23684372.2434   23684375.8174
     -3851.8754      -3001.4614
   -328419.58345   -235565.68945  24913871.8924   24913874.7284
      1233.4224        961.1084
  -1024540.45545   -726442.79145  24964042.0954   24964046.7004
      1968.2504       1533.7014
 96  8 31 17 11 30.0050000  0  6G17G 6G10G16G26G23
  -4863741.53146  -5862444.04746  23368927.5014   23368930.6884
       541.0944        421.6314
  -8688075.15347  -6641918.99346  21815845.6734   21815847.6654
      -649.7664       -506.3114
  13342695.96346  10396906.27645  24209400.3994   24209404.5714
     -4197.7034      -3270.9374
   7799929.07646   6162988.72746  23706406.2284   23706409.6854
     -3867.6254      -3013.7344
   -365230.80645   -264249.70344  24906866.6184   24906870.0634
      1220.4534        951.0024
  -1083423.54745   -772325.65645  24952836.6264   24952840.4584
      1957.1564       1525.0574
 96  8 31 17 12  0.0050000  0  7G17G28G 6G10G16G26G23
  -4879880.26346  -5875019.67446  23365856.2044   23365859.4034
       533.6414        415.8244
    -33290.99012    -25941.11315  25685269.188    25685266.735
      1957.953        1525.678
  -8668394.66147  -6626583.54546  21819590.8134   21819592.7824
      -663.2194       -516.7944
  13468748.15046  10495128.73545  24233387.5794   24233391.7514
     -4206.9374      -3278.1334
   7916117.82246   6253525.40146  23728515.8924   23728520.0874
     -3879.1564      -3022.7194
   -401721.78945   -292684.18345  24899922.3924   24899924.4894
      1211.3594        943.9164
  -1142057.38545   -818014.33045  24941678.9704   24941682.7204
      1950.7504       1520.0654
 96  8 31 17 12 30.0050000  0  7G17G28G 6G10G16G26G23
  -4895763.82046  -5887396.45246  23362833.9464   23362837.2044
       524.6414        408.8114
    -92009.266 2    -71695.589 5  25674095.524    25674092.595
      1956.078        1524.217
  -8648282.27747  -6610911.55346  21823418.1034   21823419.9784
      -678.2344       -528.4944
  13595109.44146  10593592.05645  24257433.2354   24257437.3134
     -4217.7034      -3286.5224
   8032676.63846   6344350.43546  23750696.3604   23750700.2044
     -3891.8594      -3032.6184
   -437911.18045   -320883.65744  24893036.3604   24893039.5834
      1200.7194        935.6254
  -1200459.94445   -863522.76445  24930565.1654   24930568.6454
      1942.3444       1513.5154
 96  8 31 17 13  0.0050000  0  7G17G28G 6G10G16G26G23
  -4911360.49946  -5899549.69746  23359865.9464   23359869.2744
       514.8914        401.2134
   -150666.825 2   -117402.727 5  25662933.329    25662930.618
      1954.141        1522.707
  -8627708.84747  -6594880.30646  21827332.9784   21827334.8994
      -693.7344       -540.5724
  13721804.67746  10692315.60145  24281542.7674   24281546.5634
     -4229.1254      -3295.4224
   8149613.59846   6435470.14146  23772948.9784   23772952.8104
     -3904.3914      -3042.3824
   -473778.97345   -348832.53445  24886210.3994   24886213.5174
      1190.3754        927.5654
  -1258621.34345   -908843.30245  24919497.4154   24919501.3534
      1934.9534       1507.7564
 96  8 31 17 13 30.0050000  0  7G17G28G 6G10G16G26G23
  -4926666.64546  -5911476.54446  23356953.1264   23356956.4894
       505.4844        393.8844
   -209264.984 2   -163063.601 5  25651782.317    25651780.126
      1952.313        1521.282
  -8606664.04747  -6578481.75346  21831337.9234   21831339.8104
      -709.2504       -552.6624
  13848848.86246  10791311.05545  24305718.3764   24305722.0564
     -4240.5004      -3304.2864
   8266931.96046   6526887.03146  23795273.9784   23795277.8104
     -3917.0314      -3052.2324
   -509353.91645   -376553.22845  24879440.5244   24879443.3024
      1181.2034        920.4184
  -1316574.31245   -954001.40745  24908469.2354   24908473.3844
      1928.4064       1502.6544
 96  8 31 17 14  0.0050000  0  7G17G28G 6G10G16G26G23
  -4941677.74346  -5923173.49646  23354096.6814   23354099.9744
       496.2344        386.6764
   -267787.009 2   -208665.143 5  25640645.923    25640643.665
      1949.969        1519.456
  -8585137.00047  -6561707.42546  21835434.2124   21835435.9234
      -725.0314       -564.9594
  13976259.96546  10890592.42845  24329963.8604   24329966.9664
     -4252.7664      -3313.8434
   8384658.14846   6618621.70346  23817676.2984   23817680.0714
     -3930.5004      -3062.7274
   -544635.57545   -404045.37445  24872726.7354   24872729.4194
      1171.8284        913.1134
  -1374294.03645   -998977.79245  24897485.4314   24897489.2044
      1920.2664       1496.3114
 96  8 31 17 14 30.0050000  0  7G17G28G 6G10G16G26G23
  -4956426.95146  -5934666.37446  23351290.1344   23351293.4854
       487.5004        379.8704
   -326240.117 2   -254212.984 5  25629522.333    25629520.587
      1947.328        1517.399
  -8563134.83847  -6544562.88046  21839621.2824   21839622.8644
      -741.2974       -577.6344
  14104031.68846  10990154.78345  24354278.2984   24354282.1654
     -4264.8284      -3323.2434
   8502789.22046   6710671.88546  23840156.1884   23840159.7164
     -3944.4534      -3073.6004
   -579644.84745   -431325.27845  24866065.1104   24866068.6494
      1162.7034        906.0024
  -1431755.38145  -1043752.80845  24886551.2124   24886554.7864
      1911.0474       1489.1274
 96  8 31 17 15  0.0050000  0  7G17G28G 6G10G16G26G23
  -4970909.98246  -5945951.83946  23348533.9784   23348536.8254
       478.4224        372.7964
   -384612.008 2   -299697.542 5  25618414.630    25618412.712
      1944.313        1515.049
  -8540650.22947  -6527042.40646  21843899.8844   21843901.6304
      -757.2974       -590.1014
  14232164.64745  11089998.62245  24378660.6184   24378664.5674
     -4277.0624      -3332.7764
   8621346.43746   6803054.11646  23862716.7674   23862720.5404
     -3959.2504      -3085.1304
   -614388.53145   -458398.22645  24859453.4384   24859456.8844
      1153.8284        899.0874
  -1488943.18145  -1088314.70345  24875669.0174   24875673.0954
      1901.5944       1481.7614
 96  8 31 17 15 30.0050000  0  7G17G28G 6G10G16G26G23
  -4985164.96346  -5957059.60246  23345821.3374   23345824.6064
       471.0944        367.0864
   -442932.034 3   -345141.690 5  25607316.579    25607314.892
      1942.906        1513.953
  -8517736.38947  -6509187.46246  21848260.2354   21848261.9234
      -771.0474       -600.8164
  14360613.68445  11190088.75745  24403103.8764   24403107.4854
     -4286.8914      -3340.4344
   8740308.99746   6895752.19546  23885354.4234   23885357.8564
     -3972.2814      -3095.2844
   -648902.20145   -485291.94045  24852885.2124   24852888.9154
      1146.1254        893.0844
  -1545872.53545  -1132675.19745  24864835.5014   24864839.2744
      1892.7814       1474.8944
 96  8 31 17 16  0.0050000  0  7G17G28G 6G10G16G26G23
  -4999162.95846  -5967967.11746  23343157.2904   23343160.5014
       462.3134        360.2444
   -501173.198 3   -390524.387 5  25596233.782    25596231.923
      1940.156        1511.810
  -8494375.13347  -6490983.88246  21852705.7904   21852707.4894
      -786.2664       -612.6754
  14489387.66645  11290432.10245  24427608.7354   24427613.1884
     -4297.6564      -3348.8234
   8859696.50746   6988781.41046  23908073.1884   23908076.4584
     -3986.5004      -3106.3644
   -683135.77545   -511967.40345  24846370.9934   24846373.1144
      1136.3594        885.4754
  -1602490.51745  -1176793.06245  24854061.2434   24854065.8134
      1882.2344       1466.6764
 96  8 31 17 16 30.0050000  0  7G17G28G 6G10G16G26G23
  -5012899.80046  -5978671.13146  23340543.6884   23340546.7244
       453.6564        353.4984
   -559337.847 3   -435847.446 5  25585165.364    25585163.485
      1937.734        1509.923
  -8470557.59347  -6472424.75446  21857237.9934   21857239.7744
      -801.2974       -624.3874
  14618468.10445  11391014.23345  24452171.8604   24452176.4894
     -4307.3754      -3356.3964
   8979495.11646   7082130.96246  23930870.2284   23930873.8024
     -3999.7344      -3116.6764
   -717075.42345   -538413.82445  24839912.1034   24839915.4784
      1126.3594        877.6834
  -1658812.06245  -1220679.95645  24843342.8994   24843346.7434
      1872.8754       1459.3834
 96  8 31 17 17  0.0050000  0  7G17G28G 6G10G16G26G23
  -5026370.54046  -5989167.79746  23337980.2744   23337983.7784
       443.9534        345.9384
   -617428.800 3   -481113.089 5  25574110.997    25574109.056
      1934.547        1507.439
  -8446288.61847  -6453513.86246  21861856.3374   21861857.7674
      -817.3444       -636.8914
  14747839.60846  11491823.17645  24476790.5564   24476794.6454
     -4317.9374      -3364.6274
   9099682.04146   7175783.09546  23953741.0014   23953744.9624
     -4013.2664      -3127.2204
   -750697.92745   -564613.14745  24833514.0174   24833517.6854
      1114.3754        868.3444
  -1714859.12145  -1264352.94145  24832677.9624   24832682.1924
      1862.8594       1451.5794
 96  8 31 17 17 30.0050000  0  7G17G28G 6G10G16G26G23
  -5039532.20546  -5999423.63446  23335475.5634   23335478.9274
       434.3444        338.4504
   -675396.960 3   -526283.040 5  25563080.099    25563078.149
      1931.016        1504.688
  -8421502.54147  -6434200.03746  21866572.7204   21866574.3724
      -834.3284       -650.1264
  14877545.05346  11592892.33845  24501473.0244   24501477.1034
     -4328.2504      -3372.6624
   9220289.25046   7269762.72646  23976691.8294   23976695.6964
     -4026.2344      -3137.3254
   -783925.55145   -590504.76345  24827191.1344   24827194.2514
      1101.6094        858.3974
  -1770574.33845  -1307767.35045  24822075.5174   24822079.4194
      1852.4064       1443.4334
 96  8 31 17 18  0.0050000  0  7G17G28G 6G10G16G26G23
  -5052452.21446  -6009491.16446  23333016.9464   23333020.0174
       426.9384        332.6794
   -733307.367 3   -571407.995 5  25552060.103    25552058.017
      1929.641        1503.616
  -8396250.65947  -6414523.24546  21871377.8374   21871379.4424
      -849.0624       -661.6074
  15007516.98346  11694169.14045  24526205.7984   24526209.7124
     -4336.5004      -3379.0914
   9341239.30346   7364009.51046  23999707.7744   23999711.2674
     -4037.1094      -3145.8004
   -816818.82245   -616135.83345  24820931.6494   24820935.2704
      1091.2504        850.3254
  -1826025.52045  -1350976.02545  24811523.1734   24811527.9664
      1844.3914       1437.1884
 96  8 31 17 18 30.0050000  0  7G17G28G 6G10G16G26G23
  -5065140.78646  -6019378.35446  23330602.3844   23330605.5484
       419.1254        326.5914
   -791163.635 3   -616490.760 5  25541050.278    25541048.259
      1927.563        1501.997
  -8370547.98047  -6394495.18846  21876269.2124   21876270.8994
      -864.1564       -673.3694
  15137749.99546  11795649.39645  24550988.1734   24550991.5604
     -4345.5004      -3386.1044
   9462524.09246   7458517.12045  24022787.7514   24022791.5364
     -4048.5164      -3154.6874
   -849386.94745   -641513.55145  24814734.1494   24814737.5834
      1080.1414        841.6684
  -1881223.76145  -1393987.58245  24801020.0564   24801023.3254
      1835.5784       1430.3214
 96  8 31 17 19  0.0050000  0  7G17G28G 6G10G16G26G23
  -5077578.22846  -6029069.85746  23328235.6734   23328239.2004
       410.0164        319.4934
   -848938.950 3   -661510.459 5  25530055.962    25530054.173
      1924.078        1499.282
  -8344377.91147  -6374102.92946  21881249.2514   21881251.0204
      -880.6414       -686.2134
  15268273.88646  11897356.29845  24575826.3064   24575830.1854
     -4356.1564      -3394.4074
   9584178.80246   7553312.98246  24045937.9234   24045941.5564
     -4062.0474      -3165.2314
   -881613.41545   -666625.02945  24808601.6264   24808605.2004
      1068.2194        832.3784
  -1936140.24745  -1436779.61045  24790569.6734   24790573.2594
      1825.3754       1422.3704
 96  8 31 17 19 30.0050000  0  7G17G28G 6G10G16G26G23
  -5089752.28446  -6038556.12746  23325918.8684   23325922.1144
       401.5314        312.8814
   -906618.710 3   -706455.686 5  25519080.020    25519077.829
      1921.250        1497.078
  -8317725.71547  -6353334.98346  21886320.9934   21886322.7984
      -896.0624       -698.2314
  15399106.75546  11999303.96845  24600722.7824   24600726.8844
     -4366.0004      -3402.0784
   9706238.70446   7648424.57846  24069165.0174   24069168.7204
     -4075.2344      -3175.5074
   -913495.88945   -691468.46445  24802534.2674   24802537.4784
      1057.2974        823.8684
  -1990763.16045  -1479342.87545  24780175.2284   24780178.2514
      1816.3914       1415.3694
 96  8 31 17 20  0.0050000  0  7G17G28G 6G10G16G26G23
  -5101668.00746  -6047841.09746  23323651.3294   23323654.6104
       392.7814        306.0634
   -964216.336 3   -751336.915 5  25508119.603    25508117.462
      1918.406        1494.862
  -8290619.97947  -6332213.62946  21891479.1884   21891480.8294
      -911.2194       -710.0414
  15530238.95646  12101484.87545  24625676.6104   24625680.4544
     -4376.2034      -3410.0284
   9828695.44646   7743845.39346  24092468.0634   24092471.4154
     -4088.6874      -3185.9904
   -945053.13345   -716058.48345  24796528.8134   24796532.1534
      1046.2194        815.2354
  -2045128.15845  -1521705.16645  24769829.8374   24769834.0794
      1807.7814       1408.6614
 96  8 31 17 20 30.0050000  0  7G17G28G 6G10G16G26G23
  -5113318.30446  -6056919.24446  23321434.8374   23321437.8954
       383.8444        299.0994
  -1021720.903 3   -796145.640 5  25497176.622    25497174.595
      1915.203        1492.366
  -8263036.85747  -6310720.29246  21896727.8764   21896729.5174
      -927.7814       -722.9464
  15661683.09446  12203908.87345  24650690.0874   24650694.0714
     -4386.6564      -3418.1744
   9951555.49646   7839580.47946  24115847.3924   24115850.9424
     -4102.0164      -3196.3764
   -976263.15045   -740377.93445  24790590.3214   24790592.9354
      1034.4224        806.0434
  -2099228.83345  -1563861.47245  24759534.5404   24759538.5364
      1798.9224       1401.7574
 96  8 31 17 21  0.0050000  0  7G17G28G 6G10G16G26G23
  -5124700.37846  -6065788.37846  23319268.7744   23319272.0914
       375.1094        292.2934
  -1079133.510 3   -840882.697 5  25486251.481    25486249.478
      1912.469        1490.235
  -8234954.26447  -6288837.74846  21902071.8374   21902073.2784
      -944.2814       -735.8044
  15793431.95746  12306570.30145  24675760.8684   24675764.8764
     -4396.4224      -3425.7834
  10074806.77346   7935620.41945  24139301.4384   24139305.0834
     -4114.3124      -3205.9584
  -1007120.51645   -764422.58945  24784718.2354   24784721.7864
      1022.8754        797.0454
  -2153063.44745  -1605810.47145  24749289.9314   24749293.6454
      1790.1884       1394.9514
 96  8 31 17 21 30.0050000  0  7G17G28G 6G10G16G26G23
  -5135807.95246  -6074443.61846  23317154.9544   23317158.3064
       365.7814        285.0244
  -1136452.103 3   -885546.507 5  25475344.063    25475341.978
      1909.188        1487.679
  -8206369.43847  -6266563.85446  21907511.4464   21907513.1104
      -961.0314       -748.8564
  15925481.83046  12409466.28645  24700889.1574   24700892.8494
     -4406.4694      -3433.6124
  10198416.20346   8031939.44045  24162823.6734   24162826.8954
     -4125.7974      -3214.9074
  -1037612.89445   -788182.82445  24778916.1034   24778919.0794
      1010.4224        787.3424
  -2206617.94745  -1647541.18745  24739098.9934   24739102.9784
      1780.5474       1387.4394
 96  8 31 17 22  0.0050000  0  7G17G28G 6G10G16G26G23
  -5146644.43546  -6082887.61646  23315092.5794   23315095.6964
       356.6414        277.9024
  -1193676.488 3   -930136.904 5  25464454.634    25464452.517
      1905.719        1484.976
  -8177280.44047  -6243897.10346  21913046.5714   21913048.2124
      -978.3284       -762.3344
  16057828.06845  12512593.20145  24726073.6034   24726077.1304
     -4416.5314      -3441.4534
  10322361.31246   8128520.03245  24186409.7284   24186413.3724
     -4137.2814      -3223.8564
  -1067734.66145   -811654.28745  24773183.8454   24773187.0794
       997.8284        777.5284
  -2259875.77445  -1689040.75645  24728964.6814   24728968.3724
      1769.8444       1379.0994
 96  8 31 17 22 30.0050000  0  7G17G28G 6G10G16G26G23
  -5157214.82846  -6091124.27746  23313081.2984   23313084.7674
       347.7664        270.9864
  -1250804.637 3   -974652.318 5  25453583.419    25453581.321
      1902.516        1482.480
  -8147682.05947  -6220833.43746  21918678.9314   21918680.9464
      -994.9374       -775.2764
  16190459.18745  12615942.09645  24751312.3134   24751316.3564
     -4425.8124      -3448.6854
  10446644.26546   8225363.86645  24210059.6104   24210064.0874
     -4148.5784      -3232.6584
  -1097491.51545   -834841.39645  24767520.7984   24767524.1614
       985.8284        768.1784
  -2312821.26145  -1730296.93045  24718889.1264   24718892.0324
      1759.5474       1371.0754
 96  8 31 17 23  0.0050000  0  7G17G28G 6G10G16G26G23
  -5167514.24546  -6099149.78246  23311121.4704   23311124.7044
       338.6724        263.9004
  -1307828.474 3  -1019086.443 5  25442732.056    25442730.095
      1898.859        1479.631
  -8117597.85647  -6197391.20446  21924404.0174   21924405.6694
     -1010.7664       -787.6104
  16323377.24045  12719514.56745  24776605.9154   24776609.7244
     -4435.6564      -3456.3564
  10571278.94546   8322481.78245  24233776.6184   24233780.6734
     -4160.5004      -3241.9484
  -1126886.70245   -857746.70745  24761927.1104   24761930.4274
       973.7974        758.8034
  -2365449.73845  -1771306.08945  24708874.3064   24708878.4544
      1748.9224       1362.7964
 96  8 31 17 23 30.0050000  0  7G17G28G 6G10G16G26G23
  -5177554.91446  -6106973.66846  23309210.5014   23309213.6184
       330.5004        257.5324
  -1364757.855 3  -1063446.972 5  25431898.579    25431896.681
      1896.125        1477.500
  -8087060.19047  -6173595.62246  21930215.0874   21930216.6694
     -1025.4064       -799.0184
  16456574.02745  12823304.25445  24801952.3994   24801955.9504
     -4444.4374      -3463.1984
  10696260.47846   8419869.97145  24257560.1344   24257563.7904
     -4172.0944      -3250.9824
  -1155940.68745   -880386.12545  24756398.6264   24756401.4274
       962.8594        750.2804
  -2417782.88945  -1812085.12045  24698915.7824   24698919.8374
      1739.7034       1355.6134
 96  8 31 17 24  0.0050000  0  7G17G28G 6G10G16G26G23
  -5187340.04246  -6114598.43546  23307348.7044   23307351.6814
       322.3134        251.1534
  -1421586.172 3  -1107728.743 5  25421084.833    25421082.743
      1892.953        1475.028
  -8056061.52247  -6149440.81446  21936114.1034   21936115.6264
     -1040.4844       -810.7674
  16590049.96846  12927311.45945  24827352.1424   24827355.5174
     -4453.3124      -3470.1144
  10821617.37046   8517550.64445  24281414.5484   24281418.7784
     -4184.5004      -3260.6494
  -1184647.99345   -902755.41945  24750935.6184   24750938.6424
       951.4694        741.4044
  -2469823.93745  -1852636.53945  24689012.4544   24689016.2284
      1730.4224       1348.3814
 96  8 31 17 24 30.0050000  0  7G17G28G 6G10G16G26G23
  -5196881.39146  -6122033.24046  23305533.3684   23305536.5444
       313.6094        244.3714
  -1478322.969 3  -1151939.204 5  25410287.974    25410286.056
      1889.359        1472.228
  -8024621.88547  -6124942.39946  21942096.9624   21942098.4504
     -1055.7194       -822.6384
  16723781.12045  13031517.53445  24852800.3994   24852804.0204
     -4462.2504      -3477.0784
  10947336.94846   8615513.94445  24305338.1184   24305342.3254
     -4196.8284      -3270.2564
  -1213015.67445   -924860.05745  24745537.6574   24745540.0244
       939.4534        732.0414
  -2521601.24845  -1892982.44245  24679159.5714   24679163.4274
      1721.1094       1341.1244
 96  8 31 17 25  0.0050000  0  7G17G28G 6G10G16G26G23
  -5206149.68946  -6129255.28146  23303769.4384   23303772.5564
       303.5784        236.5544
  -1534941.459 3  -1196057.485 5  25399513.767    25399512.040
      1884.656        1468.563
  -7992705.43247  -6100072.43346  21948170.5244   21948172.1654
     -1072.8124       -835.9584
  16857790.33845  13135940.28145  24878301.2904   24878304.5834
     -4472.2034      -3484.8344
  11073421.46246   8713761.59445  24329331.2984   24329335.5754
     -4209.3284      -3279.9964
  -1241010.00945   -946673.78945  24740210.3064   24740213.6574
       926.2344        721.7414
  -2573076.27945  -1933092.80745  24669364.2674   24669368.0874
      1709.9694       1332.4434
 96  8 31 17 25 30.0050000  0  7G17G28G 6G10G16G26G23
  -5215154.25646  -6136271.81246  23302055.8134   23302058.9544
       296.0784        230.7104
  -1591458.620 4  -1240096.800 5  25388759.005    25388757.149
      1882.469        1466.859
  -7960306.40047  -6074826.43446  21954335.9234   21954337.3294
     -1087.8124       -847.6464
  16992049.30745  13240557.63545  24903850.2124   24903853.6924
     -4479.1414      -3490.2394
  11199836.00346   8812266.41145  24353387.0634   24353391.1884
     -4218.9534      -3287.4964
  -1268644.08345   -968206.76445  24734952.1494   24734954.5634
       915.1724        713.1214
  -2624252.21745  -1972970.12845  24659625.6494   24659630.1494
      1700.8444       1325.3334
 96  8 31 17 26  0.0050000  0  7G17G28G 6G10G16G26G23
  -5223904.00646  -6143089.78846  23300390.9544   23300394.0604
       287.1884        223.7824
  -1647875.899 4  -1284058.295 5  25378023.083    25378021.415
      1878.734        1463.949
  -7927420.76747  -6049201.27046  21960593.6184   21960595.3064
     -1104.4374       -860.6014
  17126550.34245  13345363.61845  24929444.8924   24929448.2554
     -4487.4374      -3496.7054
  11326561.56646   8911013.57545  24377502.5714   24377506.8254
     -4229.2664      -3295.5324
  -1295901.83045   -989446.55445  24729765.2904   24729767.9274
       902.0784        702.9184
  -2675110.56345  -2012599.95845  24649947.6424   24649951.4274
      1689.7194       1316.6644
 96  8 31 17 26 30.0050000  0  7G17G28G 6G10G16G26G23
  -5232384.09846  -6149697.64046  23298777.3134   23298780.4664
       278.6564        217.1354
  -1704181.269 4  -1327932.583 5  25367308.481    25367306.829
      1875.359        1461.319
  -7894031.43747  -6023183.60946  21966947.5714   21966949.3994
     -1121.2194       -873.6774
  17261304.41545  13450366.74945  24955087.5404   24955091.4894
     -4495.8914      -3503.2914
  11453593.48946   9009999.47645  24401675.9624   24401680.0754
     -4239.0624      -3303.1664
  -1322774.66045  -1010386.37145  24724651.0094   24724653.3064
       889.8444        693.3854
  -2725630.33045  -2051965.96845  24640333.8924   24640337.9114
      1678.5474       1307.9594
 96  8 31 17 27  0.0050000  0  7G17G28G 6G10G16G26G23
  -5240613.14646  -6156109.87746  23297211.1884   23297214.6454
       270.1564        210.5114
  -1760384.377 4  -1371727.178 5  25356613.474    25356611.642
      1871.625        1458.409
  -7860139.51947  -5996774.32846  21973396.7984   21973398.4744
     -1138.0314       -886.7784
  17396315.81445  13555570.40545  24980779.8374   24980783.9974
     -4504.8914      -3510.3044
  11580918.11546   9109213.45245  24425905.2984   24425909.0834
     -4249.2974      -3311.1404
  -1349277.53345  -1031037.93445  24719607.7744   24719610.7394
       877.1564        683.4984
  -2775814.23945  -2091070.28045  24630784.4074   24630787.5954
      1667.3754       1299.2534
 96  8 31 17 27 30.0060000  0  7G17G28G 6G10G16G26G23
  -5248602.37546  -6162335.23746  23295690.7874   23295694.0454
       262.2974        204.3874
  -1816482.205 4  -1415439.745 5  25345938.689    25345936.521
      1867.969        1455.560
  -7825753.55647  -5969980.06946  21979940.3654   21979941.8894
     -1154.3914       -899.5254
  17531601.60645  13660987.87045  25006523.9124   25006527.6864
     -4514.0314      -3517.4274
  11708558.61846   9208673.55645  24450194.0684   24450197.6784
     -4259.9694      -3319.4564
  -1375405.73845  -1051397.54145  24714635.1704   24714638.1824
       864.5004        673.6364
  -2825680.31045  -2129926.91645  24621294.5684   24621298.9984
      1656.7974       1291.0114
 96  8 31 17 28  0.0060000  0  7G17G28G 6G10G16G26G23
  -5256357.22746  -6168377.96246  23294214.9284   23294218.2564
       254.7034        198.4704
  -1872468.292 4  -1459065.238 5  25335284.818    25335282.459
      1864.531        1452.881
  -7790876.50047  -5942803.14546  21986577.2644   21986578.9634
     -1170.7664       -912.2854
  17667150.82245  13766610.61145  25032317.8654   25032320.9594
     -4522.4224      -3523.9654
  11836514.92546   9308379.74845  24474543.4754   24474547.3304
     -4270.5784      -3327.7234
  -1401160.72545  -1071466.31145  24709734.7254   24709737.5614
       852.7814        664.5054
  -2875238.51445  -2168543.65845  24611864.4674   24611868.1004
      1647.3444       1283.6444
 96  8 31 17 28 30.0060000  0  7G17G28G 6G10G16G26G23
  -5263873.95546  -6174235.14246  23292784.7254   23292788.3344
       246.2664        191.8954
  -1928345.223 3  -1502605.669 5  25324651.619    25324649.521
      1860.438        1449.692
  -7755500.01547  -5915237.05246  21993309.2094   21993310.6504
     -1187.7034       -925.4834
  17802960.03745  13872435.94145  25058161.6314   25058165.2874
     -4531.5944      -3531.1124
  11964805.05146   9408346.05245  24498956.1934   24498959.9084
     -4282.1724      -3336.7574
  -1426562.88445  -1091260.16145  24704900.4904   24704902.9044
       840.5004        654.9354
  -2924515.47845  -2206941.25845  24602487.4124   24602490.9514
      1637.6414       1276.0844
 96  8 31 17 29  0.0060000  0  7G17G28G 6G10G16G26G23
  -5271128.09946  -6179887.71146  23291404.0844   23291407.5534
       237.0474        184.7124
  -1984095.544 3  -1546047.440 5  25314042.689    25314040.514
      1855.984        1446.222
  -7719623.01447  -5887280.95446  22000136.2324   22000137.6624
     -1204.4374       -938.5234
  17939036.67245  13978469.65345  25084056.3034   25084061.2714
     -4540.5004      -3538.0524
  12093446.98546   9508586.50645  24523436.0684   24523440.3694
     -4294.3754      -3346.2664
  -1451590.44345  -1110762.12745  24700137.8034   24700139.9364
       827.6254        644.9034
  -2973498.98546  -2245110.17345  24593165.9754   24593169.7014
      1627.6414       1268.2914
 96  8 31 17 29 30.0060000  0  7G17G28G 6G10G16G26G23
  -5278105.11246  -6185324.33546  23290076.4124   23290079.8224
       228.0784        177.7234
  -2039715.665 3  -1589387.770 5  25303458.455    25303456.279
      1852.078        1443.178
  -7683237.05547  -5858928.26446  22007060.3814   22007061.8574
     -1221.2814       -951.6484
  18075370.76245  14084703.97545  25109999.5684   25110002.5684
     -4548.3124      -3544.1404
  12222453.32446   9609110.90745  24547985.3424   24547988.9984
     -4305.8754      -3355.2274
  -1476234.79945  -1129965.48945  24695448.3344   24695451.2754
       815.2664        635.2724
  -3022181.17546  -2283044.30945  24583902.3814   24583905.5684
      1617.7504       1260.5844
 96  8 31 17 30  0.0060000  0  7G17G28G 6G10G16G26G23
  -5284810.89946  -6190549.61646  23288800.3574   23288803.7684
       218.8134        170.5034
  -2095216.389 4  -1632635.055 5  25292897.158    25292894.975
      1847.688        1439.756
  -7646345.97847  -5830181.96546  22014080.4364   22014081.8424
     -1238.4694       -965.0414
  18211939.20445  14191120.92345  25135987.4754   25135991.1894
     -4556.6094      -3550.6054
  12351797.64946   9709898.67945  24572598.5374   24572602.0884
     -4317.4064      -3364.2134
  -1500500.29545  -1148873.62945  24690830.4754   24690833.4394
       802.0314        624.9594
  -3070564.66845  -2320745.71045  24574694.9284   24574698.6314
      1607.3914       1252.5124
 96  8 31 17 30 30.0060000  0  7G17G28G 6G10G16G26G23
  -5291252.61646  -6195569.12246  23287574.6234   23287577.9514
       210.3914        163.9414
  -2150593.477 4  -1675786.000 5  25282359.236    25282357.021
      1843.781        1436.713
  -7608949.48647  -5801041.83846  22021196.8814   22021198.4164
     -1254.9224       -977.8614
  18348752.07145  14297728.30145  25162022.4514   25162026.9164
     -4564.6564      -3556.8754
  12481480.52146   9810950.23745  24597276.6314   24597280.8034
     -4328.3754      -3372.7604
  -1524363.15445  -1167468.01545  24686289.4284   24686292.7324
       788.3444        614.2944
  -3118627.14446  -2358196.94545  24565548.7564   24565552.2604
      1596.3594       1243.9164
 96  8 31 17 31  0.0060000  0  7G17G28G 6G10G16G26G23
  -5297443.08046  -6200392.85346  23286396.4514   23286399.6744
       201.8444        157.2814
  -2205849.622 4  -1718842.707 5  25271844.064    25271842.193
      1839.438        1433.328
  -7571053.79147  -5771512.72746  22028408.2484   22028409.8534
     -1272.0944       -991.2424
  18485807.85645  14404524.99845  25188103.0214   25188106.4784
     -4572.9534      -3563.3404
  12611490.10746   9912256.39045  24622016.2324   24622020.3464
     -4339.4224      -3381.3684
  -1547808.64245  -1185737.21045  24681827.9124   24681830.7714
       774.1724        603.2514
  -3166352.69346  -2395385.66345  24556467.0924   24556470.3034
      1584.8134       1234.9194
 96  8 31 17 31 30.0060000  0  7G17G28G 6G10G16G26G23
  -5303375.76846  -6205015.72346  23285267.6624   23285271.0964
       193.6414        150.8894
  -2260967.615 4  -1761791.768 5  25261355.377    25261353.287
      1835.172        1430.004
  -7532631.20347  -5741573.04846  22035719.7484   22035721.3654
     -1289.1874      -1004.5624
  18623119.77145  14511521.25645  25214232.3964   25214236.5454
     -4581.0944      -3569.6834
  12741827.52845  10013818.00145  24646818.4904   24646822.5684
     -4349.5784      -3389.2824
  -1570820.51145  -1203668.50545  24677449.3264   24677452.5254
       760.0634        592.2564
  -3213727.29146  -2432300.89345  24547452.0844   24547455.7994
      1573.5784       1226.1654
 96  8 31 17 32  0.0060000  0  7G17G28G 6G10G16G26G23
  -5309063.40846  -6209447.63846  23284185.3114   23284188.6744
       185.6414        144.6554
  -2315958.908 4  -1804642.094 5  25250890.771    25250888.779
      1831.016        1426.765
  -7493709.67847  -5711244.58946  22043126.0924   22043127.5804
     -1305.4844      -1017.2614
  18760671.67645  14618704.52445  25240407.9904   25240412.9594
     -4588.9224      -3575.7834
  12872466.40945  10115614.50645  24671678.4044   24671682.6934
     -4359.5944      -3397.0864
  -1593413.65545  -1221273.50445  24673149.6074   24673152.3384
       746.2664        581.5064
  -3260770.02546  -2468957.53745  24538500.1074   24538503.6704
      1562.6564       1217.6544
 96  8 31 17 32 30.0060000  0  7G17G28G 6G10G16G26G23
  -5314503.82646  -6213686.91446  23283150.2094   23283152.9634
       177.2194        138.0934
  -2370825.502 4  -1847395.255 5  25240449.896    25240448.186
      1827.047        1423.673
  -7454295.90147  -5680532.55746  22050626.3654   22050627.8534
     -1321.7344      -1029.9234
  18898458.11345  14726070.56645  25266627.7094   25266631.9634
     -4596.5164      -3581.7004
  13003401.94545  10217642.16345  24696594.3114   24696599.1974
     -4369.0474      -3404.4524
  -1615593.58245  -1238556.51345  24668929.1624   24668931.6354
       732.8594        571.0594
  -3307484.14346  -2505358.11445  24529610.3574   24529614.2834
      1552.0784       1209.4124
 96  8 31 17 33  0.0060000  0  7G17G28G 6G10G16G26G23
  -5319680.58246  -6217720.73546  23282165.1074   23282168.5064
       168.0784        130.9704
  -2425568.303 4  -1890051.954 5  25230032.713    25230030.834
      1822.656        1420.252
  -7414393.37747  -5649439.67746  22058219.7174   22058221.0064
     -1338.2664      -1042.8044
  19036475.15345  14833616.27545  25292891.6934   25292895.6544
     -4604.2974      -3587.7644
  13134617.97045  10319888.39045  24721564.0534   24721568.6354
     -4378.4374      -3411.7694
  -1637374.87845  -1255528.89845  24664784.0684   24664786.2834
       719.4384        560.6014
  -3353888.62446  -2541517.41945  24520780.0614   24520782.9904
      1541.7974       1201.4004
 96  8 31 17 33 30.0060000  0  7G17G28G 6G10G16G26G23
  -5324590.69746  -6221546.79046  23281230.6314   23281233.9714
       158.9384        123.8474
  -2480183.289 4  -1932609.060 5  25219639.893    25219638.006
      1818.188        1416.769
  -7373998.51147  -5617963.16446  22065906.6154   22065907.7644
     -1354.8914      -1055.7594
  19174721.63345  14941340.79945  25319199.1234   25319203.0494
     -4612.3124      -3594.0104
  13266108.36646  10422348.40445  24746586.4434   24746590.8964
     -4387.9694      -3419.1964
  -1658753.32345  -1272187.38145  24660715.9204   24660718.7914
       705.4844        549.7284
  -3399992.58746  -2577442.56645  24512006.9364   24512010.1824
      1531.5164       1193.3894
 96  8 31 17 34  0.0060000  0  7G17G28G 6G10G16G26G23
  -5329231.92846  -6225163.33046  23280347.4044   23280350.5214
       150.1564        117.0054
  -2534667.847 4  -1975064.528 5  25209271.771    25209269.795
      1813.688        1413.263
  -7333102.42347  -5586096.08846  22073688.8734   22073690.3854
     -1372.0784      -1069.1524
  19313199.46945  15049245.56945  25345550.3734   25345554.8144
     -4620.0314      -3600.0244
  13397890.58746  10525035.83645  24771663.6624   24771667.5764
     -4397.8914      -3426.9284
  -1679710.09145  -1288517.30445  24656727.8344   24656730.5414
       691.1094        538.5274
  -3445783.13046  -2613123.48245  24503293.4204   24503296.4554
      1520.7504       1185.0004
 96  8 31 17 34 30.0060000  0  7G17G28G 6G10G16G26G23
  -5333606.00146  -6228571.68646  23279515.1394   23279518.4674
       141.2814        110.0894
  -2589013.826 4  -2017412.017 5  25198930.002    25198928.084
      1809.219        1409.781
  -7291677.44247  -5553816.87946  22081571.7324   22081573.1034
     -1389.7664      -1082.9344
  19451914.54845  15157335.22045  25371946.5924   25371951.1394
     -4627.6724      -3605.9784
  13529973.24746  10627957.36545  24796798.2874   24796802.0724
     -4407.7504      -3434.6104
  -1700229.09545  -1304506.10945  24652822.8034   24652825.2404
       676.7664        527.3504
  -3491246.40046  -2648549.37245  24494641.9824   24494645.0884
      1510.0004       1176.6234
 96  8 31 17 35  0.0060000  0  7G17G28G 6G10G16G26G23
  -5337713.93346  -6231772.66046  23278733.5214   23278736.6274
       132.7034        103.4054
  -2643219.597 4  -2059650.255 5  25188615.049    25188613.037
      1804.500        1406.104
  -7249718.55847  -5521121.64746  22089556.1544   22089557.8304
     -1407.4694      -1096.7294
  19590857.67045  15265602.53944  25398386.5064   25398390.1504
     -4634.9064      -3611.6154
  13662358.37546  10731114.59145  24821989.9824   24821994.1314
     -4417.8444      -3442.4764
  -1720309.64545  -1320153.24545  24649002.1074   24649005.1894
       661.9224        515.7834
  -3536373.96646  -2683713.67645  24486054.1004   24486057.1464
      1498.5474       1167.6994
 96  8 31 17 35 30.0060000  0  7G17G28G 6G10G16G26G23
  -5341574.92046  -6234781.21246  23277998.3184   23278001.6704
       124.5314         97.0374
  -2697295.143 4  -2101787.024 5  25178324.803    25178322.662
      1800.438        1402.938
  -7207240.29447  -5488021.71146  22097639.5064   22097641.2754
     -1424.4374      -1109.9514
  19729997.48345  15374023.13345  25424864.3034   25424869.2714
     -4641.0944      -3616.4374
  13795033.29846  10834497.62445  24847237.7484   24847241.2174
     -4427.3444      -3449.8784
  -1739955.37945  -1335461.56545  24645264.1864   24645266.6584
       647.7344        504.7284
  -3581164.64146  -2718615.45845  24477531.0294   24477534.4984
      1487.3444       1158.9694
 96  8 31 17 36  0.0060000  0  7G17G28G 6G10G16G26G23
  -5345169.43146  -6237582.12146  23277314.5454   23277318.0144
       115.2504         89.8054
  -2751228.101 4  -2143812.680 5  25168061.353    25168059.436
      1795.203        1398.860
  -7164240.29147  -5454515.22446  22105821.8964   22105823.7364
     -1442.0314      -1123.6614
  19869331.69845  15482595.22144  25451378.6314   25451382.5334
     -4647.7814      -3621.6484
  13928012.84346  10938118.02045  24872543.1784   24872546.9754
     -4437.6724      -3457.9264
  -1759166.20345  -1350431.01645  24641608.0214   24641610.4124
       633.1884        493.3934
  -3625594.11246  -2753235.79845  24469076.4514   24469079.5104
      1474.8754       1149.2534
 96  8 31 17 36 30.0060000  0  7G17G28G 6G10G16G26G23
  -5348499.05346  -6240176.62346  23276680.5844   23276683.8654
       106.6724         83.1214
  -2805021.722 4  -2185729.764 5  25157824.853    25157822.873
      1791.016        1395.597
  -7120743.33447  -5420621.49746  22114099.3574   22114101.1274
     -1457.7034      -1135.8734
  20008842.76945  15591305.11245  25477927.0294   25477930.6394
     -4652.9694      -3625.6904
  14061276.92346  11041960.13145  24897902.1544   24897905.5064
     -4446.5164      -3464.8174
  -1777967.71045  -1365081.50045  24638030.3424   24638032.7214
       620.0944        483.1904
  -3669675.51246  -2787584.90545  24460687.8574   24460690.4474
      1463.7344       1140.5724
 96  8 31 17 37  0.0060000  0  7G17G28G 6G10G16G26G23
  -5351554.67246  -6242557.61846  23276099.2954   23276102.6354
        97.0784         75.6454
  -2858664.395 4  -2227529.223 5  25147616.971    25147615.092
      1785.219        1391.080
  -7076757.87347  -5386347.11446  22122469.4434   22122471.0254
     -1474.6094      -1149.0464
  20148531.99445  15700153.82844  25504509.1934   25504513.8694
     -4659.4694      -3630.7554
  14194822.76146  11146021.80545  24923314.9674   24923318.8464
     -4456.4374      -3472.5494
  -1796344.83945  -1379401.31245  24634532.9984   24634535.5644
       605.0164        471.4414
  -3713393.74146  -2821651.03245  24452368.4594   24452371.5294
      1451.0634       1130.6984
 96  8 31 17 37 30.0060000  0  7G17G28G 6G10G16G26G23
  -5354329.69946  -6244719.96346  23275571.3114   23275574.4284
        88.1254         68.6694
  -2912147.770 4  -2269204.561 5  25137439.432    25137437.506
      1780.516        1387.415
  -7032274.72547  -5351684.92746  22130934.4984   22130936.0214
     -1490.7974      -1161.6604
  20288405.79045  15809146.35544  25531126.0764   25531129.9784
     -4665.3754      -3635.3574
  14328650.14646  11250302.86345  24948781.6074   24948785.0184
     -4465.1724      -3479.3554
  -1814281.15045  -1393377.60845  24631119.6704   24631122.0374
       590.9694        460.4954
  -3756757.86746  -2855441.23445  24444116.5374   24444119.6784
      1440.0474       1122.1144
 96  8 31 17 38  0.0060000  0  7G17G28G 6G10G16G26G23
  -5356844.77946  -6246679.76046  23275092.5294   23275096.0104
        79.7974         62.1794
  -2965483.887 4  -2310765.149 5  25127289.744    25127287.904
      1775.375        1383.409
  -6987300.09647  -5316639.75846  22139492.9434   22139494.5844
     -1507.4534      -1174.6394
  20428464.39845  15918282.88845  25557778.8034   25557783.0574
     -4671.8444      -3640.3984
  14462737.47946  11354786.48045  24974297.5454   24974301.1314
     -4473.6564      -3485.9664
  -1831790.52245  -1407021.22045  24627787.9364   24627790.7714
       576.4534        449.1844
  -3799788.08046  -2888971.24545  24435928.1314   24435931.5764
      1428.9064       1113.4334
 96  8 31 17 38 30.0060000  0  7G17G28G 6G10G16G26G23
  -5359118.52246  -6248451.49646  23274659.9754   23274663.1864
        71.3444         55.5934
  -3018668.166 4  -2352207.416 5  25117169.248    25117167.545
      1769.781        1379.050
  -6941818.93847  -5281199.90346  22148147.3894   22148148.8774
     -1525.2194      -1188.4824
  20568719.26145  16027572.35745  25584468.2564   25584472.8854
     -4679.1094      -3646.0594
  14597069.45045  11459460.71845  24999859.9434   24999864.1974
     -4482.1874      -3492.6144
  -1848861.49745  -1420323.24745  24624539.5144   24624542.0684
       561.0004        437.1434
  -3842491.95546  -2922246.96045  24427801.5214   24427804.5454
      1417.5004       1104.5454
 96  8 31 17 39  0.0060000  0  7G17G28G 6G10G16G26G23
  -5361142.03946  -6250028.25646  23274274.9514   23274278.2564
        63.6414         49.5904
  -3071683.961 5  -2393518.400 5  25107080.771    25107078.881
      1764.703        1375.093
  -6895796.54147  -5245338.30046  22156905.3734   22156906.9904
     -1542.8444      -1202.2164
  20709199.41945  16137037.37844  25611200.7324   25611205.5374
     -4686.0784      -3651.4894
  14731657.38445  11564334.40145  25025471.3344   25025475.4714
     -4490.2504      -3498.8964
  -1865466.52745  -1433262.20845  24621379.6704   24621382.4474
       546.2194        425.6254
  -3884858.20146  -2955259.58645  24419739.6864   24419742.6744
      1407.1094       1096.4494
 96  8 31 17 39 30.0060000  0  7G17G28G 6G10G16G26G23
  -5362927.10246  -6251419.20646  23273935.4204   23273938.3034
        55.6414         43.3564
  -3124545.211 5  -2434708.965 5  25097021.428    25097019.889
      1759.438        1370.990
  -6849241.96747  -5209062.01546  22165764.3964   22165766.0374
     -1560.6874      -1216.1204
  20849894.30345  16246669.72045  25637974.7254   25637978.5574
     -4693.5624      -3657.3214
  14866494.57245  11669402.28845  25051129.7484   25051133.9084
     -4498.8284      -3505.5804
  -1881629.62445  -1445856.77545  24618303.3964   24618306.1744
       531.6094        414.2414
  -3926908.38646  -2988025.93845  24411737.3344   24411740.9434
      1396.1254       1087.8904
 96  8 31 17 40  0.0060000  0  7G17G28G 6G10G16G26G23
  -5364485.88746  -6252633.83446  23273638.5764   23273641.6704
        48.1254         37.5004
  -3177246.725 5  -2475775.057 5  25086992.814    25086991.053
      1754.016        1366.765
  -6802151.57747  -5172368.21846  22174725.5294   22174727.2754
     -1578.6254      -1230.0974
  20990811.65245  16356475.41144  25664790.0144   25664794.5374
     -4700.8914      -3663.0324
  15001590.05745  11774671.48045  25076837.8504   25076841.7524
     -4507.5784      -3512.3994
  -1897360.26345  -1458114.38645  24615310.2094   24615312.7054
       516.9844        402.8454
  -3968616.34446  -3020525.61345  24403801.0294   24403805.0024
      1384.4384       1078.7824
 96  8 31 17 40 30.0060000  0  7G17G28G 6G10G16G26G23
  -5365818.37746  -6253672.13546  23273385.0534   23273388.1704
        39.8914         31.0844
  -3229798.452 5  -2516724.425 5  25076992.482    25076990.842
      1748.703        1362.626
  -6754535.07247  -5135264.45746  22183786.4514   22183787.9514
     -1596.4224      -1243.9654
  21131927.04545  16466435.42144  25691643.4124   25691647.3964
     -4707.5474      -3668.2184
  15136936.85346  11880136.48845  25102593.6934   25102597.5964
     -4516.3754      -3519.2534
  -1912659.53845  -1470035.85845  24612398.9364   24612401.3504
       502.1414        391.2784
  -4009990.00846  -3052764.80545  24395927.8424   24395931.0884
      1372.9844       1069.8584
 96  8 31 17 41  0.0060000  0  7G17G28G 6G10G16G26G23
  -5366893.76346  -6254510.08246  23273180.4044   23273183.7794
        31.3284         24.4124
  -3282184.463 5  -2557544.673 5  25067023.701    25067022.139
      1743.109        1358.267
  -6706390.52647  -5097749.23246  22192948.1004   22192949.6114
     -1613.7974      -1257.5044
  21273245.94045  16576554.00343  25718535.2174   25718539.1074
     -4714.1094      -3673.3324
  15272557.99545  11985815.28545  25128401.1464   25128404.0184
     -4525.5624      -3526.4124
  -1927507.67145  -1481605.81145  24609573.5454   24609576.7094
       487.1414        379.5904
  -4051008.98846  -3084727.62345  24388121.8964   24388125.3424
      1360.9534       1060.4834
 96  8 31 17 41 30.0060000  0  7G17G28G 6G10G16G26G23
  -5367714.77046  -6255149.82946  23273024.1704   23273027.0884
        23.0634         17.9714
  -3334401.990 5  -2598233.632 5  25057087.029    25057085.490
      1737.672        1354.030
  -6657726.38447  -5059829.12746  22202208.5374   22202210.2254
     -1630.9374      -1270.8604
  21414754.78145  16686820.60344  25745463.6154   25745467.2834
     -4720.1564      -3678.0444
  15408449.99945  12091705.13345  25154260.7714   25154264.2404
     -4534.2344      -3533.1704
  -1941898.06645  -1492819.06345  24606834.8264   24606837.2174
       471.8134        367.6464
  -4091661.81846  -3116405.12645  24380385.8964   24380389.6354
      1348.9224       1051.1084
 96  8 31 17 42  0.0060000  0  7G17G28G 6G10G16G26G23
  -5368292.79946  -6255600.23546  23272914.1624   23272917.3144
        14.8284         11.5544
  -3386464.146 5  -2638801.523 5  25047179.955    25047178.381
      1732.531        1350.024
  -6608559.85947  -5021517.55846  22211564.7404   22211566.6974
     -1647.3444      -1283.6444
  21556430.14145  16797216.95845  25772423.4754   25772428.5254
     -4725.3444      -3682.0864
  15544579.54845  12197780.07345  25180165.8034   25180169.3774
     -4541.6254      -3538.9294
  -1955829.88945  -1503674.98845  24604183.6624   24604186.1464
       456.1724        355.4594
  -4131972.73446  -3147816.21245  24372715.0214   24372718.7604
      1338.0474       1042.6344
 96  8 31 17 42 30.0060000  0  7G17G28G 6G10G16G26G23
  -5368602.84546  -6255841.82546  23272855.1784   23272858.4124
         5.5784          4.3474
  -3438353.794 5  -2679235.000 5  25037305.568    25037303.928
      1726.422        1345.264
  -6558886.67247  -4982811.18146  22221017.2094   22221018.8734
     -1664.4694      -1296.9894
  21698279.04445  16907748.53043  25799416.7324   25799419.7094
     -4731.5474      -3686.9204
  15680947.54745  12304040.82445  25206115.4364   25206118.9044
     -4549.9844      -3545.4424
  -1969270.14245  -1514147.89245  24601626.1314   24601628.5104
       439.5314        342.4924
  -4171945.95546  -3178964.14845  24365108.5534   24365112.0454
      1326.4064       1033.5634
 96  8 31 17 43  0.0060000  0  7G17G28G 6G10G16G26G23
  -5368652.93946  -6255880.84846  23272845.8264   23272848.8384
        -2.4844         -1.9364
  -3490072.456 5  -2719535.233 5  25027463.936    25027462.232
      1721.250        1341.234
  -6508717.29047  -4943718.15946  22230564.2324   22230565.8144
     -1680.5474      -1309.5174
  21840301.79645  17018415.58345  25826442.9674   25826447.2444
     -4736.7664      -3690.9864
  15817553.97345  12410487.36045  25232110.8504   25232114.4004
     -4557.3124      -3551.1534
  -1982229.30745  -1524245.91545  24599159.8574   24599162.3074
       424.1724        330.5244
  -4211579.18546  -3209847.15745  24357566.4434   24357569.7604
      1315.5634       1025.1144
 96  8 31 17 43 30.0060000  0  7G17G28G 6G10G16G26G23
  -5368437.80646  -6255713.20246  23272886.6934   23272889.8344
       -12.0474         -9.3874
  -3541616.668 5  -2759699.539 5  25017655.252    25017653.654
      1714.891        1336.278
  -6458038.91547  -4904228.52546  22240207.9984   22240209.7794
     -1698.1564      -1323.2394
  21982497.53145  17129217.41044  25853501.8814   25853506.0294
     -4743.0944      -3695.9174
  15954397.49845  12517118.63645  25258151.0534   25258155.3424
     -4565.8444      -3557.8004
  -1994708.60045  -1533970.01445  24596785.3964   24596788.1394
       407.7034        317.6914
  -4250863.60546  -3240458.37345  24350091.0374   24350094.9164
      1303.3134       1015.5684
 96  8 31 17 44  0.0060000  0  7G17G28G 6G10G16G26G23
  -5367949.50346  -6255332.70546  23272979.4824   23272982.4004
       -20.4064        -15.9014
  -3592978.464 5  -2799721.699 5  25007881.486    25007879.873
      1709.313        1331.932
  -6406838.77647  -4864332.32746  22249950.8964   22249952.7714
     -1715.2034      -1336.5224
  22124868.76145  17240155.97443  25880594.0534   25880598.1074
     -4748.3284      -3699.9964
  16091494.22845  12623947.23445  25284239.7484   25284244.6234
     -4573.8594      -3564.0464
  -2006711.64846  -1543322.98945  24594501.1314   24594503.8504
       392.6094        305.9294
  -4289790.68346  -3270791.12946  24342683.4204   24342686.8654
      1291.7194       1006.5344
 96  8 31 17 44 30.0060000  0  7G17G28G 6G10G16G26G23
  -5367214.40646  -6254759.89046  23273119.4904   23273122.0454
       -29.2814        -22.8174
  -3644180.913 5  -2839619.690 5  24998137.975    24998136.209
      1703.578        1327.463
  -6355125.01147  -4824035.89546  22259791.8964   22259793.7604
     -1733.0164      -1350.4024
  22267389.32945  17351210.94245  25907714.8344   25907719.8734
     -4753.6094      -3704.1114
  16228830.30045  12730962.30945  25310373.9594   25310378.0374
     -4582.4694      -3570.7554
  -2018275.74045  -1552333.94945  24592300.4364   24592303.0724
       377.8754        294.4484
  -4328358.70246  -3300844.10946  24335344.1074   24335346.8614
      1278.7664        996.4414
 96  8 31 17 45  0.0060000  0  7G17G28G 6G10G16G26G23
  -5366196.79246  -6253966.93446  23273313.1704   23273315.8184
       -38.2974        -29.8424
  -3695200.057 5  -2879374.847 5  24988429.287    24988427.506
      1697.875        1323.019
  -6302862.49747  -4783311.87346  22269736.9824   22269738.7404
     -1751.0004      -1364.4164
  22410070.60745  17462391.11643  25934866.7484   25934871.8574
     -4758.3914      -3707.8374
  16366434.25945  12838186.12545  25336559.4204   25336563.3344
     -4590.8124      -3577.2564
  -2029394.60546  -1560997.97845  24590185.1704   24590187.8654
       363.5634        283.2954
  -4366522.23846  -3330581.90346  24328081.7174   24328085.0214
      1265.7504        986.2994
 96  8 31 17 45 30.0060000  0  7G17G28G 6G10G16G26G23
  -5364910.85646  -6252964.89846  23273557.9984   23273560.6934
       -47.3124        -36.8674
  -3746046.268 5  -2918995.246 5  24978753.506    24978751.771
      1691.969        1318.417
  -6250054.18447  -4742162.54846  22279785.9284   22279787.4514
     -1769.4064      -1378.7584
  22552896.40745  17573683.89943  25962044.9674   25962049.4084
     -4763.2814      -3711.6484
  16504286.67245  12945603.56445  25362792.0924   25362796.3114
     -4599.1724      -3583.7704
  -2040078.96746  -1569323.43245  24588151.4904   24588154.1504
       348.8444        271.8264
  -4404300.89946  -3360019.80246  24320892.4824   24320896.0924
      1253.0474        976.4004
 96  8 31 17 46  0.0060000  0  7G17G28G 6G10G16G26G23
  -5363361.97046  -6251757.96646  23273852.3424   23273855.4824
       -56.1254        -43.7344
  -3796718.444 5  -2958480.034 5  24969110.982    24969109.139
      1685.938        1313.718
  -6196695.58247  -4700584.42346  22289940.0614   22289941.8304
     -1787.9694      -1393.2224
  22695867.35344  17685089.80643  25989251.1864   25989255.6864
     -4768.3284      -3715.5804
  16642382.42545  13053210.61645  25389070.3264   25389073.8424
     -4607.1874      -3590.0164
  -2050319.08646  -1577302.73045  24586203.0144   24586205.7684
       333.5944        259.9434
  -4441708.51346  -3389168.56546  24313774.3184   24313777.8934
      1240.4694        966.5994
 96  8 31 17 46 30.0070000  0  7G17G28G 6G10G16G26G23
  -5361551.58046  -6250347.26746  23274197.0424   23274199.9364
       -64.2194        -50.0414
  -3847217.106 5  -2997829.623 5  24959501.222    24959499.628
      1680.781        1309.700
  -6142792.93647  -4658582.37246  22300197.2844   22300198.9014
     -1805.0164      -1406.5064
  22838987.74344  17796612.16043  26016486.2614   26016491.5224
     -4772.4374      -3718.7824
  16780706.95045  13160995.91545  25415392.7144   25415396.5344
     -4613.8754      -3595.2274
  -2060102.20746  -1584925.90545  24584341.0974   24584343.4874
       318.8134        248.4254
  -4478742.40846  -3418026.12546  24306726.8544   24306730.5694
      1228.8914        957.5774
 96  8 31 17 47  0.0070000  0  7G17G28G 6G10G16G26G23
  -5359494.37446  -6248744.24546  23274588.5974   23274591.2104
       -72.6254        -56.5914
  -3897542.345 5  -3037044.069 5  24949924.714    24949922.995
      1674.328        1304.671
  -6088371.87847  -4616176.36746  22310553.2224   22310554.7694
     -1823.0624      -1420.5684
  22982242.54344  17908239.25943  26043746.5974   26043751.2614
     -4777.9534      -3723.0804
  16919238.13445  13268942.25445  25441754.1984   25441759.0384
     -4621.3754      -3601.0714
  -2069416.78046  -1592183.99145  24582568.9014   24582571.6554
       302.0004        235.3254
  -4515433.98446  -3446616.93046  24299744.9334   24299748.3784
      1217.3754        948.6044
 96  8 31 17 47 30.0070000  0  7G17G28G 6G10G16G26G23
  -5357183.49846  -6246943.55346  23275028.3944   23275031.2064
       -80.9694        -63.0934
  -3947661.599 5  -3076098.014 5  24940387.280    24940385.729
      1667.391        1299.265
  -6033396.28947  -4573338.24646  22321014.6514   22321016.5734
     -1841.5784      -1434.9964
  23125682.23544  18020010.38943  26071042.6044   26071047.3154
     -4784.1094      -3727.8774
  17057997.94945  13377066.73945  25468159.6364   25468164.2184
     -4628.8444      -3606.8914
  -2078194.60646  -1599023.82345  24580897.9094   24580900.2884
       283.6094        220.9944
  -4551772.00046  -3474932.23746  24292829.7064   24292833.2804
      1205.4694        939.3264
 96  8 31 17 48  0.0070000  0  7G17G28G 6G10G16G26G23
  -5354655.70546  -6244973.83846  23275509.1364   23275512.2534
       -87.2974        -68.0244
  -3997598.546 5  -3115009.903 5  24930884.686    24930883.183
      1661.875        1294.968
  -5977897.64447  -4530092.55546  22331576.0034   22331577.5854
     -1858.1254      -1447.8904
  23269273.35444  18131899.52443  26098366.6674   26098371.9524
     -4788.5004      -3731.2994
  17196947.96445  13485339.44145  25494600.8004   25494605.7574
     -4634.3284      -3611.1654
  -2086446.44646  -1605453.80245  24579327.7694   24579330.5114
       266.7504        207.8574
  -4587768.51946  -3502981.44946  24285980.0654   24285983.8514
      1194.3914        930.6944
 96  8 31 17 48 30.0070000  0  7G17G28G 6G10G16G26G23
  -5351927.33746  -6242847.83046  23276028.3394   23276031.3864
       -94.1874        -73.3934
  -4047361.861 5  -3153786.498 5  24921414.878    24921413.558
      1656.000        1290.390
  -5921896.92147  -4486455.63146  22342232.3864   22342234.0614
     -1875.0164      -1461.0514
  23413001.50544  18243895.42643  26125717.3154   26125722.2964
     -4793.1254      -3734.9034
  17336072.77345  13593748.34145  25521075.8624   25521080.5974
     -4640.5164      -3615.9864
  -2094191.39846  -1611488.81445  24577854.2454   24577856.3194
       249.7504        194.6104
  -4623428.83046  -3530768.67746  24279193.8944   24279197.6554
      1183.3754        922.1104
 96  8 31 17 49  0.0070000  0  8G17G28G 6G10G16G26G23G22
  -5348988.27646  -6240557.64446  23276587.7294   23276590.7294
      -101.7034        -79.2494
  -4096938.928 5  -3192417.958 5  24911980.819    24911979.245
      1649.172        1285.069
  -5865375.18947  -4442412.73346  22352988.2374   22352989.9954
     -1893.0784      -1475.1264
  23556880.80643  18356009.12043  26153096.2844   26153102.4724
     -4798.7814      -3739.3104
  17475394.52245  13702310.71245  25547587.6444   25547591.6514
     -4647.5624      -3621.4774
  -2101410.22646  -1617113.84945  24576480.0974   24576482.9794
       231.6254        180.4874
  -4658748.74546  -3558290.65946  24272472.8314   24272476.1124
      1171.1724        912.6014
     -1354.07854                  25211536.9094
       120.0164
 96  8 31 17 49 30.0070000  0  8G17G28G 6G10G16G26G23G22
  -5345818.17046  -6238087.42046  23277190.9874   23277193.9994
      -109.8284        -85.5804
  -4146310.247 5  -3230889.092 5  24902585.718    24902583.995
      1642.234        1279.663
  -5808321.32447  -4397955.18346  22363845.0424   22363846.9764
     -1910.4844      -1488.6894
  23700927.61344  18468253.35942  26180507.7294   26180512.6984
     -4804.2814      -3743.5964
  17614929.45545  13811039.20045  25574140.3474   25574144.8004
     -4654.8284      -3627.1394
  -2108096.54046  -1622323.94645  24575208.0424   24575210.7264
       214.4064        167.0704
  -4693692.15746  -3585519.27146  24265823.1444   24265826.4604
      1158.2814        902.5574
     -2745.58954                  26110280.8004
       102.3754
 96  8 31 17 50  0.0070000  0  8G17G28G 6G10G16G26G23G22
  -5342398.20046  -6235422.50046  23277841.8474   23277844.8354
      -118.0784        -92.0094
  -4195477.186 5  -3269200.974 5  24893229.429    24893227.776
      1635.781        1274.635
  -5750754.05147  -4353097.57846  22374799.8474   22374801.7694
     -1927.0944      -1501.6314
  23845132.93544  18580621.08543  26207949.0194   26207953.3084
     -4809.2344      -3747.4554
  17754679.79845  13919935.54245  25600733.4484   25600738.5464
     -4661.7504      -3632.5324
  -2114289.35646  -1627149.50445  24574029.3084   24574032.3314
       198.6414        154.7854
  -4728251.09646  -3612448.29146  24259246.8704   24259249.9644
      1146.0004        892.9874
     -5556.89144     -1643.61853  26109745.2144   26109747.8744
        85.4534         66.5874
 96  8 31 17 50 30.0070000  0  8G17G28G 6G10G16G26G23G22
  -5338719.12046  -6232555.68346  23278541.8394   23278544.7804
      -127.2664        -99.1684
  -4244450.802 5  -3307362.216 5  24883910.034    24883908.440
      1629.125        1269.448
  -5692687.64147  -4307851.02846  22385849.6124   22385851.6864
     -1944.0314      -1514.8304
  23989479.55944  18693098.91643  26235417.7374   26235423.5854
     -4813.8284      -3751.0354
  17894645.06945  14028999.35545  25627368.0264   25627372.7844
     -4669.2034      -3638.3404
  -2120009.45246  -1631606.70345  24572940.9334   24572943.8274
       182.5474        142.2444
  -4762453.68446  -3639099.63246  24252738.5194   24252742.0464
      1134.1414        883.7464
     -7869.76044     -3445.84043  26109304.9484   26109308.4174
        68.7504         53.5714
 96  8 31 17 51  0.0070000  0  8G17G28G 6G10G16G26G23G22
  -5334753.78246  -6229465.79746  23279296.6444   23279299.4334
      -137.1414       -106.8634
  -4293214.406 5  -3345359.809 5  24874630.526    24874629.011
      1621.828        1263.762
  -5634106.86947  -4262203.68146  22396997.1284   22396998.7224
     -1961.2194      -1528.2224
  24133970.85944  18805689.51842  26262913.3474   26262919.4294
     -4818.8284      -3754.9314
  18034839.49045  14138241.73345  25654046.2224   25654051.2614
     -4676.8444      -3644.2944
  -2125240.31346  -1635682.67845  24571945.1984   24571947.7654
       166.4224        129.6794
  -4796285.18646  -3665461.82546  24246300.4404   24246304.1674
      1121.4694        873.8724
     -9665.65644     -4845.22943  26108964.0194   26108968.4484
        50.9384         39.6924
 96  8 31 17 51 30.0070000  0  8G17G28G 6G10G16G26G23G22
  -5330501.87246  -6226152.60946  23280105.5424   23280108.7884
      -146.5474       -114.1924
  -4341773.122 5  -3383197.753 5  24865390.308    24865388.667
      1615.281        1258.661
  -5575027.10947  -4216167.50846  22408239.3084   22408241.3584
     -1977.8124      -1541.1534
  24278591.18244  18918380.63943  26290433.9644   26290439.4254
     -4822.5164      -3757.8044
  18175239.38845  14247644.19745  25680763.1984   25680766.7144
     -4683.2664      -3649.2984
  -2130011.77346  -1639400.68845  24571037.3864   24571039.7884
       151.5314        118.0764
  -4829752.30446  -3691540.07746  24239931.5114   24239934.8394
      1109.5004        864.5454
    -10936.18544     -5835.25343  26108723.8944   26108728.4994
        33.5474         26.1404
 96  8 31 17 52  0.0070000  0  8G17G28G 6G10G16G26G23G22
  -5325951.94546  -6222607.20646  23280971.3084   23280974.4014
      -156.5624       -121.9974
  -4390122.081 5  -3420872.247 5  24856189.765    24856188.308
      1608.047        1253.024
  -5515417.98447  -4169718.83646  22419582.5894   22419584.4994
     -1996.1724      -1555.4594
  24423325.16444  19031160.32043  26317975.9564   26317981.1944
     -4826.3594      -3760.8004
  18315844.64945  14357206.69145  25707519.9484   25707524.0614
     -4690.3594      -3654.8254
  -2134309.80346  -1642749.78045  24570220.0654   24570222.4684
       134.9224        105.1344
  -4862841.70446  -3717324.00046  24233634.9794   24233638.5074
      1096.5474        854.4524
    -11670.00344     -6407.04144  26108582.6364   26108584.9334
        15.5164         12.0904
 96  8 31 17 52 30.0070000  0  8G17G28G 6G10G16G26G23G22
  -5321107.57946  -6218832.36946  23281893.2534   23281896.3584
      -166.0624       -129.3994
  -4438251.993 5  -3458376.051 5  24847031.003    24847029.323
      1600.891        1247.447
  -5455249.00547  -4122833.93146  22431032.3234   22431034.3274
     -2014.7504      -1569.9354
  24568174.98244  19144030.24743  26345540.2064   26345546.6514
     -4830.1874      -3763.7824
  18456664.36645  14466936.31444  25734316.7614   25734322.0464
     -4697.2814      -3660.2194
  -2138098.54046  -1645702.00245  24569498.9954   24569502.1944
       117.9694         91.9244
  -4895535.36846  -3742799.56646  24227413.7694   24227417.2844
      1083.1094        843.9814
    -11856.56044     -6552.42044  26108546.0654   26108548.5154
        -2.9064         -2.2654
 96  8 31 17 53  0.0070000  0  8G17G28G 6G10G16G26G23G22
  -5315993.93746  -6214847.70646  23282866.4014   23282869.3314
      -174.8124       -136.2184
  -4486171.577 5  -3495715.968 5  24837912.503    24837910.425
      1593.703        1241.847
  -5394527.31647  -4075518.34246  22442587.5034   22442589.4254
     -2033.4224      -1584.4854
  24713148.81444  19256996.83043  26373127.7454   26373133.1594
     -4834.7974      -3767.3744
  18597687.24545  14576824.25044  25761152.8784   25761157.9524
     -4704.2194      -3665.6254
  -2141387.13946  -1648264.53045  24568873.0974   24568876.0734
       101.2034         78.8604
  -4927818.12746  -3767954.94046  24221270.4174   24221273.9914
      1069.0314        833.0114
    -11490.81144     -6267.40343  26108615.7454   26108618.9214
       -21.4224        -16.6924
 96  8 31 17 53 30.0070000  0  7G17G28G 6G10G16G26G23
  -5310630.81346  -6210668.64146  23283886.7224   23283889.4874
      -182.8594       -142.4884
  -4533878.817 5  -3532890.418 5  24828834.011    24828832.034
      1586.531        1236.258
  -5333237.49347  -4027760.04646  22454250.6444   22454252.2724
     -2052.9064      -1599.6674
  24858259.81044  19370070.28542  26400741.2144   26400746.7104
     -4839.4064      -3770.9664
  18738914.16045  14686871.14145  25788027.6674   25788032.6364
     -4711.2814      -3671.1284
  -2144161.25046  -1650426.14145  24568345.0264   24568347.5114
        83.3594         64.9554
  -4959676.50746  -3792779.62346  24215208.0584   24215211.5504
      1054.6094        821.7744
 96  8 31 17 54  0.0070000  0  8G17G28G 6G10G16G26G23G22
  -5305033.96446  -6206307.45146  23284951.8154   23284954.8154
      -190.6094       -148.5274
  -4581369.154 5  -3569895.857 5  24819796.644    24819794.948
      1578.953        1230.353
  -5271362.20647  -3979545.54346  22466024.8154   22466026.6084
     -2072.4534      -1614.8994
  25003512.46044  19483254.13243  26428382.3314   26428388.1444
     -4844.8444      -3775.2034
  18880356.95245  14797086.28444  25814943.5344   25814947.6124
     -4718.6724      -3676.8874
  -2146391.10246  -1652163.68045  24567920.9484   24567923.8904
        64.8284         50.5154
  -4991105.45346  -3817269.69046  24209227.4564   24209230.6324
      1040.2664        810.5974
      1417.94544                  26109067.0584
       -57.9374
 96  8 31 17 54 30.0070000  0  7G17G28G 6G16G26G23G22
  -5299213.20446  -6201771.78446  23286059.5034   23286062.6794
      -196.8754       -153.4094
  -4628631.139 5  -3606723.355 5  24810803.050    24810801.394
      1572.359        1225.215
  -5208913.33147  -3930884.08946  22477908.5654   22477910.3114
     -2090.1564      -1628.6934
  19022019.60745  14907472.71344  25841900.4644   25841904.9294
     -4724.9064      -3681.7454
  -2148071.79346  -1653473.27545  24567601.0194   24567604.3114
        47.8444         37.2814
  -5022111.85446  -3841430.49446  24203327.0034   24203329.9444
      1027.5784        800.7104
      3420.93344       933.30653  26109448.5264   26109451.5974
       -75.0164        -58.4544
 96  8 31 17 55  0.0070000  0  7G17G28G 6G16G26G23G22
  -5293196.06046  -6197083.09546  23287204.4794   23287207.5154
      -203.5314       -158.5964
  -4675683.330 5  -3643387.385 5  24801849.175    24801847.542
      1565.109        1219.566
  -5145922.84547  -3881800.60346  22489895.4174   22489897.4094
     -2108.5944      -1643.0604
  19163868.91245  15018004.58544  25868893.4954   25868897.5034
     -4730.9374      -3686.4454
  -2149234.92646  -1654379.59545  24567379.6674   24567382.0464
        30.2194         23.5474
  -5052740.71446  -3865297.12146  24197498.4404   24197501.2884
      1015.2034        791.0674
      5934.60444      2892.00543  26109929.1284   26109933.1594
       -91.8284        -71.5544
 96  8 31 17 55 30.0070000  0  7G17G28G 6G16G26G23G22
  -5286979.74846  -6192239.21246  23288387.3544   23288390.3664
      -211.2344       -164.5984
  -4722522.752 5  -3679885.618 5  24792935.874    24792934.261
      1557.234        1213.429
  -5082385.23547  -3832290.79446  22501986.1834   22501988.1514
     -2127.3594      -1657.6834
  19305883.68945  15128665.41745  25895918.3394   25895923.0034
     -4736.9844      -3691.1574
  -2149870.03446  -1654874.46045  24567258.7294   24567261.4254
        11.9694          9.3264
  -5083012.90046  -3888885.82046  24191737.6364   24191740.9644
      1002.7344        781.3514
      8943.25944      5236.43143  26110499.7144   26110503.5224
      -109.0944        -85.0084
 96  8 31 17 56  0.0070000  0  7G17G28G 6G16G26G23G22
  -5280525.37746  -6187209.82746  23289615.7534   23289618.6944
      -219.3284       -170.9054
  -4769128.997 5  -3716202.153 5  24784067.019    24784065.315
      1549.594        1207.476
  -5018304.02347  -3782357.39546  22514180.5114   22514182.3974
     -2144.8124      -1671.2824
  19448074.95445  15239463.75643  25922976.2614   25922980.3044
     -4742.5314      -3695.4794
  -2149970.53046  -1654952.73345  24567239.6204   24567241.8584
        -5.3914         -4.2004
  -5112922.68946  -3912192.12946  24186046.0814   24186049.2574
       991.0474        772.2444
     12466.74744      7982.01543  26111170.2534   26111174.7414
      -126.0624        -98.2314
 96  8 31 17 56 30.0070000  0  7G17G28G 6G16G26G23G22
  -5273819.66346  -6181984.58946  23290891.6284   23290894.4764
      -227.9064       -177.5894
  -4815504.576 5  -3752338.954 5  24775242.147    24775240.354
      1542.109        1201.644
  -4953702.04947  -3732018.20446  22526473.8624   22526475.5974
     -2162.0944      -1684.7484
  19590429.17445  15350389.08445  25950065.5894   25950069.3514
     -4747.7034      -3699.5094
  -2149551.31946  -1654626.05345  24567319.4564   24567321.5194
       -22.5944        -17.6064
  -5142482.06446  -3935225.38446  24180420.9794   24180424.2724
       979.6094        763.3324
      3533.72254     11132.40243  26111940.5894   26111944.0464
      -143.4534       -111.7824
 96  8 31 17 57  0.0070000  0  7G17G28G 6G16G26G23G22
  -5266831.34046  -6176539.13946  23292221.5894   23292224.6594
      -237.3914       -184.9804
  -4861642.244 5  -3788290.364 5  24766462.491    24766460.511
      1534.391        1195.629
  -4888566.65447  -3681263.36046  22538868.4874   22538870.5384
     -2179.5784      -1698.3734
  19732940.70245  15461436.99145  25977184.9724   25977189.9524
     -4752.5004      -3703.2474
  -2148601.70746  -1653886.08245  24567500.1834   24567502.4444
       -40.0784        -31.2304
  -5171683.77446  -3957979.94546  24174864.3944   24174867.2294
       967.7504        754.0914
      8113.42344     14701.00543  26112810.5504   26112814.3474
      -161.2664       -125.6624
 96  8 31 17 57 30.0070000  0  7G17G28G 6G16G26G23G22
  -5259552.78646  -6170867.53646  23293606.7374   23293609.7264
      -247.9534       -193.2104
  -4907546.554 5  -3824059.942 5  24757727.101    24757725.237
      1525.844        1188.969
  -4822915.00247  -3630106.24546  22551361.8004   22551363.6284
     -2197.1874      -1712.0944
  19875603.08945  15572602.43844  26004332.7614   26004337.3314
     -4758.4694      -3707.8984
  -2147128.53246  -1652738.12545  24567780.3784   24567783.0154
       -58.1254        -45.2924
  -5200523.08146  -3980452.11546  24169376.0584   24169379.2924
       954.7814        743.9854
     13242.67744     18697.83343  26113786.3004   26113789.9444
      -180.8124       -140.8934
 96  8 31 17 58  0.0070000  0  7G17G28G 6G16G26G23G22
  -5251967.96546  -6164957.27846  23295049.9254   23295053.1124
      -257.4064       -200.5764
  -4953201.947 5  -3859635.557 5  24749039.362    24749037.386
      1518.078        1182.918
  -4756742.31947  -3578543.12846  22563954.1044   22563955.9444
     -2214.1564      -1725.3174
  20018434.72545  15683899.77544  26031511.9644   26031515.1514
     -4763.3594      -3711.7094
  -2145124.82246  -1651176.76845  24568161.5654   24568163.9214
       -75.3284        -58.6974
  -5228982.17846  -4002628.02146  24163960.6204   24163964.0424
       942.6414        734.5254
     18953.51144     23147.83643  26114873.5424   26114876.9524
      -199.6254       -155.5524
 96  8 31 17 58 30.0070000  0  7G17G28G 6G16G26G23G22
  -5244107.08646  -6158831.91646  23296545.9484   23296548.9134
      -267.2504       -208.2474
  -4998628.367 5  -3895032.753 5  24740394.936    24740393.159
      1509.766        1176.441
  -4690056.79247  -3526580.38747  22576643.9564   22576645.8544
     -2232.1724      -1739.3554
  20161411.47045  15795310.18744  26058720.1364   26058724.0974
     -4769.0624      -3716.1534
  -2142596.83646  -1649206.89145  24568642.4724   24568644.8514
       -93.8914        -73.1624
  -5257075.82746  -4024519.15946  24158614.5654   24158617.6944
       929.5944        724.3594
     25218.29744     28029.49643  26116065.0424   26116069.7184
      -218.6254       -170.3574
 96  8 31 17 59  0.0070000  0  7G17G28G 6G16G26G23G22
  -5235961.92447  -6152485.03046  23298095.8234   23298098.7534
      -276.0474       -215.1014
  -5043805.751 5  -3930235.892 5  24731797.983    24731796.261
      1501.563        1170.049
  -4622834.03447  -3474199.02947  22589436.0344   22589438.2264
     -2249.7814      -1753.0764
  20304564.89245  15906858.26345  26085961.5114   26085964.5114
     -4775.1874      -3720.9254
  -2139513.05546  -1646803.92545  24569229.4174   24569231.8784
      -112.1564        -87.3944
  -5284772.06146  -4046100.62146  24153344.2294   24153347.5224
       916.2974        713.9984
     32047.56044     33351.00743  26117364.7374   26117368.3234
      -237.1564       -184.7974
 96  8 31 17 59 30.0070000  0  7G17G28G 6G16G26G23G22
  -5227567.73846  -6145944.10146  23299693.3084   23299696.3084
      -283.7664       -221.1164
  -5088743.121 5  -3965252.007 5  24723246.577    24723245.065
      1494.047        1164.192
  -4555085.79347  -3421408.20246  22602328.1984   22602330.2964
     -2267.0624      -1766.5424
  20447907.33245  16018553.64744  26113238.5424   26113242.6674
     -4781.1414      -3725.5644
  -2135884.77146  -1643976.65845  24569919.7534   24569922.2724
      -129.9534       -101.2624
  -5312077.46746  -4067377.54146  24148148.3234   24148151.3584
       903.7814        704.2454
     39422.95444     39098.06243  26118768.4564   26118771.9724
      -254.6874       -198.4584
 96  8 31 18  0  0.0070000  0  7G17G28G 6G16G26G23G22
  -5218921.47646  -6139206.75446  23301338.5194   23301341.8234
      -292.0004       -227.5324
  -5133431.400 5  -4000074.028 5  24714742.667    24714741.151
      1485.828        1157.788
  -4486790.77447  -3368191.31746  22615324.1364   22615326.3514
     -2285.2814      -1780.7394
  20591449.41445  16130404.55744  26140553.8234   26140558.5934
     -4787.6414      -3730.6294
  -2131696.99446  -1640713.43745  24570716.5344   24570719.3114
      -148.5944       -115.7874
  -5338981.00846  -4088341.31846  24143028.4794   24143031.7844
       890.3444        693.7744
     47341.61444     45268.47341  26120275.7844   26120277.6124
      -272.5004       -212.3384
 96  8 31 18  0 30.0070000  0  7G17G28G 6G16G26G23G22
  -5210045.71646  -6132290.57546  23303027.6124   23303030.5194
      -300.3444       -234.0344
  -5177886.708 5  -4034714.514 5  24706282.956    24706281.370
      1477.203        1151.067
  -4417965.64347  -3314561.35846  22628421.1834   22628423.3154
     -2303.7034      -1795.0934
  20735177.02545  16242400.07243  26167903.8624   26167908.7844
     -4794.8444      -3736.2424
  -2126963.66346  -1637025.10245  24571617.3084   24571620.1084
      -167.4224       -130.4594
  -5365490.79746  -4108998.28046  24137983.8784   24137987.2764
       876.3914        682.9024
     55776.69444     51841.26344  26121881.8084   26121885.1474
      -290.6094       -226.4494
 96  8 31 18  1  0.0070000  0  7G17G28G 6G16G26G23G22
  -5200918.02947  -6125178.09347  23304764.5894   23304767.5544
      -308.2664       -240.2074
  -5222076.183 5  -4069147.854 5  24697873.913    24697872.409
      1468.656        1144.407
  -4348581.74347  -3260495.99846  22641624.6364   22641626.7104
     -2322.0164      -1809.3634
  20879120.82345  16354564.02843  26195295.8314   26195299.8974
     -4801.3594      -3741.3194
  -2121676.50646  -1632905.21045  24572623.3704   24572626.0194
      -185.1254       -144.2534
  -5391581.57946  -4129328.73846  24133018.9564   24133022.5074
       862.8594        672.3584
     64770.82844     58849.73446  26123592.4874   26123597.7614
      -309.0784       -240.8404
 96  8 31 18  1 30.0070000  0  7G17G28G 6G16G26G23G22
  -5191545.59047  -6117874.89047  23306548.0654   23306550.8904
      -316.9694       -246.9894
  -5266010.982 5  -4103382.753 5  24689513.421    24689511.722
      1459.984        1137.650
  -4278651.42147  -3206004.85247  22654931.8704   22654934.0504
     -2340.2974      -1823.6084
  21023235.46945  16466861.09243  26222719.9334   26222725.4524
     -4806.3284      -3745.1914
  -2115859.83446  -1628372.71946  24573730.0264   24573733.1084
      -203.0784       -158.2434
  -5417266.97546  -4149343.32146  24128131.3394   24128134.2694
       848.9694        661.5344
      7680.72854     66289.58045  26125409.2454   26125414.0264
      -327.7974       -255.4264
 96  8 31 18  2  0.0070000  0  7G17G28G 6G16G26G23G22
  -5181924.36447  -6110377.82846  23308379.0584   23308382.0584
      -324.4224       -252.7964
  -5309689.587 5  -4137418.015 5  24681201.882    24681199.917
      1451.875        1131.331
  -4208180.79147  -3151092.68647  22668341.7374   22668344.0114
     -2357.7664      -1837.2204
  21167483.54345  16579262.16244  26250168.9484   26250174.1514
     -4810.1724      -3748.1864
  -2109506.99446  -1623422.43445  24574939.3544   24574942.0264
      -220.5004       -171.8184
  -5442532.75846  -4169030.92546  24123323.3944   24123326.4644
       835.4064        650.9664
     17793.08344     74169.38642  26127332.0654   26127335.2414
      -346.3444       -269.8784
 96  8 31 18  2 30.0070000  0  7G17G28G 6G16G26G23G22
  -5172076.67047  -6102704.29447  23310252.7294   23310255.9174
      -331.9374       -258.6534
  -5353114.841 5  -4171255.859 5  24672938.304    24672936.409
      1443.328        1124.671
  -4137174.72547  -3095763.29346  22681853.9404   22681856.1674
     -2375.7814      -1851.2584
  21311849.91345  16691755.40343  26277641.1204   26277645.4684
     -4814.0624      -3751.2184
  -2102618.14746  -1618054.48345  24576250.0504   24576252.7694
      -238.6564       -185.9664
  -5467382.52746  -4188394.36846  24118594.5734   24118597.4914
       821.5314        640.1544
     28473.22445     82491.58443  26129366.0734   26129368.4404
      -365.5624       -284.8544
 96  8 31 18  3  0.0070000  0  7G17G28G 6G16G26G23G22
  -5162004.53546  -6094855.87246  23312169.3084   23312172.4954
      -339.6414       -264.6554
  -5396288.437 5  -4204897.605 5  24664722.597    24664720.675
      1434.828        1118.048
  -4065632.17747  -3040015.87046  22695468.0034   22695470.2294
     -2393.7974      -1865.2964
  21456324.17245  16804332.68543  26305134.3314   26305138.3514
     -4817.5784      -3753.9574
  -2095184.51246  -1612262.02845  24577665.1044   24577667.6244
      -257.1874       -200.4064
  -5491821.97946  -4207438.07646  24113943.8154   24113946.7454
       807.5164        629.2334
     39719.99444     91255.28944  26131506.6044   26131510.3194
      -384.2344       -299.4034
 96  8 31 18  3 30.0070000  0  7G17G28G 6G16G26G23G22
  -5151684.22246  -6086814.06446  23314133.3314   23314136.6474
      -348.2034       -271.3274
  -5439194.858 5  -4238331.167 5  24656557.733    24656556.058
      1425.750        1110.974
  -3993536.94547  -2983837.78246  22709187.2694   22709189.3314
     -2412.4534      -1879.8344
  21600908.08844  16916995.45843  26332647.3784   26332652.4764
     -4821.4064      -3756.9404
  -2087168.20146  -1606015.52645  24579190.0584   24579192.3784
      -277.0784       -215.9054
  -5515827.92546  -4226143.98746  24109375.8004   24109378.8824
       793.0314        617.9464
     51528.50945    100456.75543  26133752.9794   26133755.0654
      -402.8284       -313.8924
 96  8 31 18  4  0.0070000  0  7G17G28G 6G16G26G23G22
  -5141123.35646  -6078584.81646  23316143.0814   23316146.3744
      -356.0784       -277.4634
  -5481834.913 5  -4271557.169 5  24648443.499    24648442.058
      1416.859        1104.046
  -3920884.82347  -2927225.74946  22723012.5584   22723014.9254
     -2431.1564      -1894.4074
  21745615.87644  17029754.72243  26360184.5424   26360189.5584
     -4825.9534      -3760.4834
  -2078562.30646  -1599309.61945  24580827.9484   24580830.1284
      -296.6564       -231.1614
  -5539413.04846  -4244521.99146  24104887.4874   24104890.6754
       779.3284        607.2694
     63877.35245    110079.20343  26136103.3864   26136106.4684
      -420.3124       -327.5164
 96  8 31 18  4 30.0070000  0  7G17G28G 6G16G26G23G22
  -5130312.49146  -6070160.76447  23318200.2694   23318203.6324
      -364.3914       -283.9414
  -5524209.594 5  -4304576.388 5  24640379.819    24640378.425
      1408.500        1097.532
  -3847670.68247  -2870175.77946  22736944.9334   22736947.1244
     -2449.2974      -1908.5434
  21890461.94144  17142621.71443  26387747.4484   26387752.3824
     -4830.0474      -3763.6734
  -2069372.45146  -1592148.67546  24582576.5344   24582578.6674
      -315.5004       -245.8444
  -5562589.95246  -4262581.89946  24100477.1674   24100480.0974
       766.3284        597.1394
     76743.29145    120104.64443  26138552.9794   26138556.2024
      -436.9844       -340.5074
 96  8 31 18  5  0.0080000  0  7G17G28G 6G16G26G23G22
  -5119238.55646  -6061531.72046  23320307.5624   23320310.8794
      -373.5944       -291.1124
  -5566331.049 6  -4337398.289 5  24632364.344    24632363.008
      1399.750        1090.714
  -3773914.57647  -2812703.50047  22750979.8204   22750981.8594
     -2467.2504      -1922.5324
  22035445.69344  17255596.02542  26415336.6334   26415340.6054
     -4834.8444      -3767.4114
  -2059620.59646  -1584549.80645  24584432.3594   24584434.7854
      -334.1874       -260.4064
  -5585380.42646  -4280340.68746  24096140.2504   24096143.3444
       753.2814        586.9724
     90111.20245    130521.19143  26141096.2114   26141099.8674
      -453.9534       -353.7304
 96  8 31 18  5 30.0080000  0  7G17G28G 6G16G26G23G22
  -5107899.28746  -6052695.91846  23322465.2894   23322468.6764
      -382.4224       -297.9914
  -5608199.403 6  -4370022.968 5  24624397.133    24624395.711
      1391.297        1084.127
  -3699638.96947  -2754826.42946  22765114.2584   22765116.3794
     -2484.5624      -1936.0234
  22180552.12544  17368665.92443  26442949.7814   26442956.2734
     -4839.0944      -3770.7224
  -2049324.49846  -1576526.86445  24586391.3754   24586393.5904
      -352.3124       -274.5294
  -5607791.75746  -4297804.04546  24091875.2974   24091878.3444
       740.7344        577.1964
    103980.67745    141328.55543  26143734.2734   26143738.2114
      -470.9224       -366.9524
 96  8 31 18  6  0.0080000  0  7G17G28G 6G16G26G23G22
  -5096284.68946  -6043645.57946  23324675.3124   23324678.6524
      -391.4064       -304.9924
  -5649799.543 6  -4402438.646 5  24616480.848    24616479.187
      1382.500        1077.273
  -3624833.25147  -2696536.27246  22779349.2424   22779351.2114
     -2501.9534      -1949.5744
  22325806.67044  17481851.21442  26470590.7424   26470596.8714
     -4844.0164      -3774.5584
  -2038475.51446  -1568073.08945  24588455.8204   24588458.5394
      -370.4374       -288.6534
  -5629810.60946  -4314961.57746  24087685.4614   24087688.1564
       727.7194        567.0544
    118388.14045    152555.18843  26146476.2034   26146479.4264
      -489.2504       -381.2344
 96  8 31 18  6 30.0080000  0  7G17G28G 6G16G26G23G22
  -5084403.22946  -6034387.30147  23326936.5394   23326939.9024
      -400.2664       -311.8954
  -5691139.718 6  -4434651.758 5  24608613.988    24608612.437
      1373.797        1070.491
  -3549515.17946  -2637846.88446  22793681.5864   22793683.7074
     -2518.8914      -1962.7724
  22471199.63744  17595144.40043  26498258.2974   26498263.6994
     -4848.5944      -3778.1254
  -2027095.68746  -1559205.68246  24590621.7664   24590623.9104
      -388.0164       -302.3504
  -5651450.08646  -4331823.49846  24083567.4924   24083570.4224
       715.2194        557.3134
    133353.93245    164216.84942  26149323.0784   26149326.7234
      -508.2344       -396.0274
 96  8 31 18  7  0.0080000  0  7G17G28G 6G16G26G23G22
  -5072263.88647  -6024928.06746  23329246.4224   23329249.7734
      -408.9374       -318.6534
  -5732212.354 6  -4466656.394 5  24600798.187    24600796.469
      1364.266        1063.064
  -3473682.52546  -2578756.51946  22808112.1644   22808114.4374
     -2536.8594      -1976.7744
  22616735.86044  17708549.18442  26525952.9694   26525958.0904
     -4853.6564      -3782.0704
  -2015177.55646  -1549918.81245  24592889.7344   24592892.0194
      -406.5624       -316.8024
  -5672704.62346  -4348385.45346  24079523.0474   24079526.1764
       701.5634        546.6724
    148894.43445    176326.28743  26152282.1564   26152285.4264
      -527.8594       -411.3194
 96  8 31 18  7 30.0080000  0  7G17G28G 6G16G26G23G22
  -5059885.14346  -6015282.28947  23331602.1414   23331605.5514
      -416.5004       -324.5454
  -5773007.890 6  -4498445.113 5  24593034.914    24593033.281
      1355.188        1055.990
  -3397305.56147  -2519242.01246  22822646.2424   22822648.5984
     -2555.1724      -1991.0434
  22762399.36744  17822053.17442  26553671.8914   26553676.0984
     -4857.4224      -3785.0044
  -2002709.52346  -1540203.45346  24595261.6874   24595263.8554
      -425.0944       -331.2424
  -5693553.99846  -4364631.70646  24075555.4454   24075558.8444
       688.2344        536.2874
    165011.27945    188884.90243  26155349.4614   26155352.2854
      -546.8284       -426.1004
 96  8 31 18  8  0.0080000  0  7G17G28G 6G16G26G23G22
  -5047279.90446  -6005460.02547  23334000.6724   23334004.0594
      -423.9534       -330.3534
  -5813528.637 6  -4530019.706 5  24585324.090    24585322.656
      1346.156        1048.953
  -3320377.98646  -2459298.46046  22837285.0554   22837287.3404
     -2573.3124      -2005.1794
  22908175.00644  17935644.53843  26581412.0864   26581417.3014
     -4860.9694      -3787.7684
  -1989684.09846  -1530053.74046  24597740.8444   24597742.6954
      -443.3124       -345.4384
  -5714006.12846  -4380568.40646  24071663.6094   24071666.7734
       675.1724        526.1084
    181692.21945    201883.03443  26158522.5784   26158526.6334
      -565.2974       -440.4914
 96  8 31 18  8 30.0080000  0  7G17G28G 6G16G26G23G22
  -5034433.87047  -5995450.12547  23336445.3284   23336448.5984
      -432.0164       -336.6364
  -5853765.143 6  -4561372.818 5  24577667.238    24577665.797
      1336.641        1041.538
  -3242892.54647  -2398920.21446  22852030.2584   22852032.6844
     -2592.0314      -2019.7654
  23054068.80044  18049328.01243  26609175.1334   26609179.4344
     -4864.8594      -3790.8004
  -1976098.24146  -1519467.34146  24600325.6414   24600327.8444
      -462.1254       -360.0974
  -5734050.01046  -4396187.00946  24067849.2274   24067852.2504
       661.2504        515.2604
    198930.20444    215315.22444  26161801.7504   26161803.6954
      -583.3914       -454.5904
 96  8 31 18  9  0.0080000  0  7G17G28G 6G16G26G23G22
  -5021361.57447  -5985263.91447  23338933.0784   23338936.2894
      -439.6564       -342.5894
  -5893728.789 6  -4592513.309 5  24570062.508    24570060.945
      1327.516        1034.428
  -3164860.45147  -2338115.99647  22866879.4064   22866881.3404
     -2610.1254      -2033.8644
  23200055.17044  18163083.54643  26636955.2274   26636960.9694
     -4867.5784      -3792.9184
  -1961957.45146  -1508448.53045  24603016.9844   24603019.3984
      -480.5474       -374.4524
  -5753683.83246  -4411486.07246  24064113.0864   24064116.0744
       647.6724        504.6794
    216686.32345    229151.17244  26165182.5234   26165186.4614
      -600.3914       -467.8374
 96  8 31 18  9 30.0080000  0  7G17G28G 6G16G26G23G22
  -5008040.80047  -5974884.09347  23341467.9844   23341471.0784
      -448.4694       -349.4564
  -5933411.439 6  -4623434.841 5  24562511.078    24562509.664
      1317.984        1027.001
  -3086289.56647  -2276891.94546  22881830.6254   22881832.8164
     -2627.7194      -2047.5734
  23346136.11744  18276912.78143  26664753.2664   26664758.6804
     -4871.3284      -3795.8404
  -1947256.54846  -1496993.27646  24605814.5314   24605816.7934
      -499.6414       -389.3304
  -5772907.43146  -4426465.48146  24060455.1254   24060457.8914
       633.9384        493.9774
    234960.46445    243390.76143  26168659.0784   26168662.6414
      -617.8284       -481.4254
 96  8 31 18 10  0.0080000  0  7G17G28G 6G16G26G23G22
  -4994449.17747  -5964293.20947  23344054.1644   23344057.3054
      -457.1874       -356.2504
  -5972804.050 6  -4654130.373 5  24555014.867    24555013.477
      1308.484        1019.598
  -3007198.58847  -2215262.63346  22896881.2424   22896883.4924
     -2644.7974      -2060.8814
  23492341.87044  18390839.29243  26692575.5624   26692581.9844
     -4875.5314      -3799.1154
  -1931978.99046  -1485088.67246  24608721.5084   24608723.9574
      -518.4534       -403.9894
  -5791714.29746  -4441120.17646  24056876.3284   24056879.2464
       620.1884        483.2634
    253758.84845    258038.83743  26172236.3124   26172239.5124
      -635.1254       -494.9034
 96  8 31 18 10 30.0080000  0  6G17G28G 6G26G23G22
  -4980601.83347  -5953503.07347  23346689.0944   23346692.2584
      -466.1254       -363.2144
  -6011912.408 6  -4684604.407 5  24547572.715    24547571.391
      1298.422        1011.757
  -2927591.82647  -2153231.40146  22912030.0314   22912032.2814
     -2662.6094      -2074.7614
  -1916140.92046  -1472747.30746  24611735.5394   24611738.1054
      -537.9694       -419.1964
  -5810112.84346  -4455456.69046  24053374.9304   24053377.8944
       606.1414        472.3174
    273074.11645    273089.71243  26175911.4844   26175914.5904
      -652.8124       -508.6854
 96  8 31 18 11  0.0080000  0  6G17G28G 6G26G23G22
  -4966494.97747  -5942510.71547  23349373.4844   23349376.6724
      -474.4844       -369.7284
  -6050723.386 6  -4714846.715 5  24540187.363    24540185.875
      1288.922        1004.355
  -2847460.32747  -2090791.28947  22927278.5084   22927280.7464
     -2679.5784      -2087.9834
  -1899708.05246  -1459942.45645  24614862.6094   24614865.2694
      -557.6094       -434.5014
  -5828100.71746  -4469473.19946  24049952.1414   24049955.3164
       593.0944        462.1514
    292926.77545    288559.28744  26179689.5944   26179693.3794
      -670.7664       -522.6754
 96  8 31 18 11 30.0080000  0  6G17G28G 6G26G23G22
  -4952139.38047  -5931324.53847  23352105.5004   23352108.5474
      -482.5004       -375.9744
  -6089247.288 6  -4744865.327 5  24532856.625    24532855.016
      1279.266         996.830
  -2766813.24347  -2027949.41646  22942625.1804   22942627.2894
     -2697.2194      -2101.7294
  -1882682.66746  -1446675.91146  24618102.3204   24618104.6644
      -577.5944       -450.0734
  -5845696.28746  -4483184.01846  24046603.6094   24046606.8554
       579.8754        451.8514
    313323.84645    304453.12044  26183571.4064   26183574.9454
      -689.2664       -537.0904
 96  8 31 18 12  0.0080000  0  6G17G28G 6G26G23G22
  -4937554.52447  -5919959.71347  23354880.9224   23354883.8984
      -490.0624       -381.8674
  -6127482.596 6  -4774659.063 5  24525580.625    24525578.969
      1269.547         989.257
  -2685627.67747  -1964687.94446  22958074.3594   22958076.5984
     -2715.3754      -2115.8774
  -1865059.05546  -1432943.22046  24621456.0394   24621458.1254
      -597.3594       -465.4754
  -5862901.59446  -4496590.74246  24043329.4454   24043332.5864
       567.0004        441.8184
    334286.74145    320787.84445  26187561.5704   26187565.1564
      -708.5944       -552.1514
 96  8 31 18 12 30.0080000  0  6G17G28G 6G26G23G22
  -4922739.45547  -5908415.50147  23357700.1564   23357703.1914
      -497.7344       -387.8454
  -6165426.119 6  -4804225.430 5  24518360.301    24518358.453
      1259.891         981.733
  -2603901.17446  -1901004.97446  22973626.1094   22973628.6294
     -2733.0004      -2129.6104
  -1846848.14446  -1418752.89146  24624921.3284   24624923.7424
      -616.9064       -480.7064
  -5879716.39146  -4509693.16146  24040129.3914   24040132.8594
       553.7814        431.5184
    355832.77445    337576.95244  26191661.1024   26191664.9694
      -727.8594       -567.1634
 96  8 31 18 13  0.0080000  0  6G17G28G 6G26G23G22
  -4907680.76447  -5896681.45347  23360565.7424   23360568.7194
      -506.0624       -394.3344
  -6203066.951 6  -4833555.937 5  24511197.469    24511195.641
      1249.578         973.697
  -2521640.70346  -1836905.92846  22989279.8054   22989282.4884
     -2750.9694      -2143.6124
  -1828038.50946  -1404096.02146  24628500.6954   24628503.2034
      -636.7664       -496.1814
  -5896117.74346  -4522473.42446  24037008.4144   24037011.8244
       539.7974        420.6214
    377968.97445    354825.95044  26195873.0084   26195876.6874
      -747.6564       -582.5894
 96  8 31 18 13 30.0080000  0  6G17G28G 6G26G23G22
  -4892396.68547  -5884771.77947  23363474.0864   23363477.1214
      -513.2814       -399.9594
  -6240410.931 6  -4862655.129 5  24504091.090    24504089.469
      1239.578         965.905
  -2438852.15646  -1772395.39346  23005034.1414   23005036.5194
     -2768.6254      -2157.3704
  -1808658.74146  -1388994.89746  24632188.8834   24632191.0864
      -655.7344       -510.9624
  -5912115.13046  -4534938.89746  24033964.6804   24033967.8444
       526.3134        410.1144
    400675.45645    372519.31944  26200193.6414   26200197.3324
      -766.4064       -597.2004
 96  8 31 18 14  0.0080000  0  6G17G28G 6G26G23G22
  -4876877.35447  -5872678.79347  23366427.4064   23366430.7344
      -521.0624       -406.0234
  -6277437.965 6  -4891507.355 5  24497045.016    24497043.422
      1229.250         957.857
  -2355533.59647  -1707471.85946  23020889.1414   23020891.4144
     -2785.4534      -2170.4834
  -1788690.24246  -1373435.01446  24635988.7974   24635990.5554
      -675.0164       -525.9864
  -5927692.11546  -4547076.80446  24031000.2114   24031002.9414
       512.3594        399.2414
    423949.71745    390655.07843  26204623.0394   26204626.4144
      -784.6724       -611.4334
 96  8 31 18 14 30.0080000  0  6G17G28G 6G26G23G22
  -4861133.64647  -5860410.96547  23369423.3124   23369426.5354
      -528.6414       -411.9284
  -6314169.354 6  -4920129.207 5  24490055.344    24490053.742
      1219.406         950.187
  -2271725.15047  -1642166.59447  23036837.1954   23036839.4694
     -2801.8444      -2183.2554
  -1768162.54246  -1357439.39346  24639894.9694   24639896.6914
      -693.8284       -540.6454
  -5942858.10546  -4558894.44446  24028114.0554   24028117.2664
       498.6414        388.5514
    447745.12844    409196.95243  26209149.1254   26209154.3874
      -801.5474       -624.5824
 96  8 31 18 15  0.0080000  0  6G17G28G 6G26G23G22
  -4845148.16947  -5847954.75347  23372465.2664   23372468.4654
      -536.7814       -418.2714
  -6350593.947 6  -4948511.997 6  24483123.953    24483122.367
      1209.094         942.151
  -2187409.75947  -1576466.31147  23052882.2424   23052884.1414
     -2819.0784      -2196.6844
  -1747047.99146  -1340986.48746  24643912.6724   24643914.9574
      -713.5944       -556.0474
  -5957610.17246  -4570389.54846  24025306.9064   24025310.2934
       485.0634        377.9714
                      4087.46755  26213777.6954
      -819.0314
 96  8 31 18 15 30.0080000  0  6G17G28G 6G26G23G22
  -4828918.98947  -5835308.63647  23375553.4924   23375556.7504
      -545.5164       -425.0774
  -6386712.481 6  -4976656.300 6  24476250.746    24476249.281
      1198.594         933.969
  -2102577.61347  -1510363.35846  23069025.1254   23069027.2934
     -2836.5784      -2210.3214
  -1725343.93146  -1324074.22246  24648042.6414   24648044.9024
      -733.5944       -571.6314
  -5971958.45146  -4581570.01746  24022576.5554   24022579.6724
       471.1884        367.1594
                     28923.06245  26218503.1484
      -837.0314
 96  8 31 18 16  0.0080000  0  6G17G28G 6G26G23G22
  -4812419.33346  -5822451.76346  23378693.2034   23378696.3914
      -554.2034       -431.8474
  -6422520.365 6  -5004558.539 6  24469436.785    24469435.195
      1188.891         926.408
  -2017225.92147  -1443855.56947  23085267.0474   23085269.4264
     -2853.4064      -2223.4334
  -1703045.67946  -1306698.95346  24652286.1334   24652288.4414
      -752.5164       -586.3764
  -5985885.65646  -4592422.37146  24019926.4454   24019929.5514
       457.4694        356.4694
     54301.12645     14540.61553  26223331.7974   26223334.4104
      -854.5784       -665.9054
 96  8 31 18 16 30.0080000  0  6G17G28G 6G26G23G22
  -4795665.34047  -5809396.70547  23381881.5164   23381884.8914
      -562.6094       -438.3974
  -6458040.465 6  -5032236.527 6  24462677.422    24462675.867
      1179.094         918.774
  -1931362.10547  -1376948.71947  23101606.4454   23101608.6374
     -2870.8914      -2237.0584
  -1680187.19946  -1288887.14346  24656636.0474   24656638.3204
      -771.5314       -601.1934
  -5999410.17446  -4602960.94646  24017352.6644   24017355.9224
       444.2504        346.1694
     80202.05645     34723.12645  26228261.8834   26228266.5944
      -872.1414       -679.5904
 96  8 31 18 17  0.0080000  0  6G17G28G 6G26G23G22
  -4778658.33647  -5796144.49447  23385118.0164   23385121.3674
      -571.3124       -445.1794
  -6493253.452 6  -5059675.210 6  24455976.723    24455974.898
      1168.266         910.337
  -1844965.08347  -1309626.38847  23118047.2734   23118049.6414
     -2889.1414      -2251.2784
  -1656740.49146  -1270616.96746  24661097.7034   24661099.6954
      -791.5164       -616.7654
  -6012530.82346  -4613184.81846  24014855.8914   24014858.8674
       430.2504        335.2604
    106648.68845     55330.90143  26233294.6724   26233297.8944
      -891.2034       -694.4444
 96  8 31 18 17 30.0080000  0  6G17G28G 6G26G23G22
  -4761395.59647  -5782693.00747  23388402.8444   23388406.0314
      -579.1724       -451.3034
  -6528144.924 6  -5086863.358 6  24449337.078    24449335.227
      1158.172         902.472
  -1758026.01647  -1241881.67747  23134591.1484   23134593.5624
     -2906.3914      -2264.7204
  -1632708.85146  -1251891.01846  24665670.8444   24665672.5664
      -810.2034       -631.3274
  -6025235.18446  -4623084.30446  24012438.6874   24012441.3594
       417.1254        325.0324
    133659.61145     76378.37444  26238434.6564   26238437.6094
      -909.1414       -708.4214
 96  8 31 18 18  0.0080000  0  7G17G28G 6G21G26G23G22
  -4743906.08047  -5769064.81247  23391731.1174   23391734.3524
      -586.6564       -457.1354
  -6562729.412 6  -5113812.299 6  24442755.867    24442754.070
      1147.453         894.119
  -1670564.98547  -1173730.24046  23151234.5554   23151236.7584
     -2924.3754      -2278.7344
    -36297.84853                  27073107.9374
      1647.5944
  -1608111.56546  -1232724.29246  24670351.4694   24670353.6724
      -829.6094       -646.4494
  -6037549.20446  -4632679.63046  24010095.2734   24010098.2384
       403.9384        314.7564
    161210.49645     97846.61043  26243677.7664   26243679.7464
      -927.4534       -722.6914
 96  8 31 18 18 30.0080000  0  7G17G28G 6G21G26G23G22
  -4726210.53047  -5755276.06747  23395098.2974   23395101.4024
      -593.2664       -462.2854
  -6597002.590 6  -5140518.662 6  24436233.769    24436232.133
      1137.219         886.144
  -1582577.52547  -1105168.60447  23167978.1024   23167980.3054
     -2941.4844      -2292.0664
    -85647.11543     -6400.30653  27063715.9614   27063720.7304
      1642.3284       1279.7364
  -1582940.99846  -1213110.85346  24675141.0554   24675143.5044
      -848.5944       -661.2424
  -6049488.87046  -4641983.25346  24007822.7034   24007826.0664
       391.9064        305.3814
    189295.38745    119730.93645  26249019.3914   26249021.7694
      -945.2034       -736.5224
 96  8 31 18 19  0.0080000  0  7G17G28G 6G21G26G23G22
  -4708300.78947  -5741320.42747  23398506.4534   23398509.6524
      -600.8444       -468.1904
  -6630966.653 6  -5166984.158 6  24429770.613    24429769.133
      1126.922         878.121
  -1494081.52347  -1036210.70247  23184818.2034   23184820.4774
     -2958.3914      -2305.2394
   -134847.07743    -44737.89143  27054352.6874   27054360.7664
      1637.6254       1276.0714
  -1557199.45646  -1193052.49546  24680039.5864   24680041.9774
      -867.4694       -675.9504
  -6061060.33546  -4650999.96646  24005620.8834   24005624.3524
       379.3594        295.6054
    217923.40145    142038.45143  26254469.3054   26254474.1804
      -963.5004       -750.7794
 96  8 31 18 19 30.0080000  0  7G17G28G 6G21G26G23G22
  -4690151.35547  -5727178.00947  23401960.2344   23401963.2464
      -609.0474       -474.5824
  -6664610.042 6  -5193199.775 6  24423368.441    24423366.977
      1116.000         869.610
  -1405064.63747   -966846.91047  23201757.6334   23201759.7194
     -2975.9534      -2318.9254
   -183903.42043    -82963.53943  27045017.1094   27045022.0434
      1632.8284       1272.3344
  -1530877.26746  -1172541.69246  24685048.3524   24685050.4024
      -887.3754       -691.4614
  -6072244.59746  -4659714.95546  24003492.8054   24003495.7694
       366.3594        285.4754
    247107.03245    164778.94945  26260022.7114   26260027.0824
      -982.0004       -765.1954
 96  8 31 18 20  0.0080000  0  7G17G28G 6G21G26G23G22
  -4671768.16347  -5712853.44347  23405458.4614   23405461.7544
      -616.9374       -480.7314
  -6697935.471 6  -5219167.634 6  24417026.906    24417025.344
      1105.375         861.331
  -1315533.94447   -897082.75246  23218794.8054   23218797.2424
     -2993.1094      -2332.2934
   -232823.35543   -121082.92743  27035709.2664   27035713.8834
      1628.1564       1268.6934
  -1503965.87646  -1151571.77146  24690169.7734   24690172.0234
      -906.9844       -706.7414
  -6083048.14046  -4668133.29146  24001436.8594   24001439.8124
       353.4224        275.3944
    276832.53345    187941.68445  26265679.4534   26265683.0624
      -999.8444       -779.0994
 96  8 31 18 20 30.0080000  0  7G17G28G 6G21G26G23G22
  -4653142.28147  -5698339.77047  23409002.7344   23409005.9454
      -625.1724       -487.1474
  -6730948.000 6  -5244891.670 6  24410744.680    24410743.047
      1095.109         853.332
  -1225497.98947   -826924.88247  23235928.0624   23235930.3124
     -3009.6414      -2345.1754
   -281607.98244   -159096.83543  27026425.7584   27026429.1444
      1623.8754       1265.3574
  -1476477.55846  -1130152.29746  24695400.4924   24695402.7074
      -925.9064       -721.4854
  -6093458.60346  -4676245.32846  23999455.9144   23999459.0314
       340.2504        265.1304
    307083.26845    211513.67244  26271435.0234   26271437.8714
     -1017.3444       -792.7354
 96  8 31 18 21  0.0080000  0  7G17G28G 6G21G26G23G22
  -4634258.94347  -5683625.47847  23412596.1804   23412599.1684
      -633.0314       -493.2714
  -6763640.255 6  -5270366.143 6  24404523.465    24404522.086
      1084.766         845.272
  -1134951.86747   -756369.47847  23253158.4694   23253160.6024
     -3026.4534      -2358.2754
   -330247.81244   -196997.93241  27017169.6874   27017174.3874
      1619.1564       1261.6804
  -1448402.34946  -1108275.50446  24700742.5314   24700744.8984
      -945.3284       -736.6194
  -6103462.76346  -4684040.76646  23997552.1334   23997555.2034
       327.1254        254.9034
    337870.23045    235503.48243  26277293.3914   26277297.3754
     -1034.5784       -806.1654
 96  8 31 18 21 30.0080000  0  7G17G28G 6G21G26G23G22
  -4615153.36847  -5668738.01947  23416231.7734   23416234.7854
      -640.7664       -499.2984
  -6796019.242 6  -5295596.517 6  24398362.027    24398360.461
      1073.859         836.774
  -1043897.67947   -685418.18447  23270485.5474   23270487.6564
     -3043.8284      -2371.8144
   -378738.90043   -234783.17343  27007941.5004   27007945.4264
      1613.5164       1257.2854
  -1419750.07146  -1085949.04946  24706195.2114   24706197.4844
      -964.7814       -751.7784
  -6113070.93846  -4691527.64146  23995723.6254   23995726.9654
       313.4224        244.2254
    369167.31845    259890.81243  26283249.6414   26283253.1684
     -1051.8754       -819.6434
 96  8 31 18 22  0.0080000  0  7G17G28G 6G21G26G23G22
  -4595814.22446  -5653668.55347  23419911.8524   23419915.0274
      -648.5004       -505.3254
  -6828066.968 6  -5320568.762 6  24392263.551    24392262.023
      1062.656         828.044
   -952316.13947   -614055.96446  23287912.7344   23287914.9614
     -3061.6724      -2385.7184
   -427056.44244   -272433.13543  26998747.7344   26998750.9454
      1607.7664       1252.8044
  -1390523.67046  -1063175.22146  24711756.9534   24711759.4374
      -983.6564       -766.4854
  -6122260.41146  -4698688.25646  23993974.9614   23993978.3124
       299.0474        233.0244
    400988.53845    284686.56145  26289304.7894   26289307.1914
     -1069.5944       -833.4504
 96  8 31 18 22 30.0090000  0  7G17G28G 6G21G26G23G22
  -4576242.71546  -5638418.03147  23423636.3724   23423639.6184
      -656.3594       -511.4494
  -6859778.035 6  -5345278.679 6  24386229.368    24386227.669
      1051.188         819.107
   -860197.04747   -542274.87646  23305442.7084   23305444.8294
     -3079.4534      -2399.5744
   -475203.65144   -309950.36843  26989585.6694   26989591.8334
      1601.7664       1248.1294
  -1360719.74946  -1039951.38146  24717427.9424   24717429.9464
     -1003.4534       -781.9124
  -6131010.45346  -4705506.45846  23992310.0834   23992313.1064
       284.2664        221.5064
    433347.81945    309901.58444  26295463.3884   26295466.8454
     -1087.8594       -847.6834
 96  8 31 18 23  0.0090000  0  7G17G28G 6G21G26G23G22
  -4556442.02346  -5622988.92247  23427404.4744   23427407.7554
      -663.7974       -517.2444
  -6891147.809 6  -5369722.652 6  24380259.942    24380258.224
      1039.938         810.341
   -767555.09646   -470086.35746  23323071.5994   23323073.8494
     -3096.7974      -2413.0884
   -523171.08444   -347327.53143  26980458.0364   26980463.2744
      1595.8594       1243.5274
  -1330320.48346  -1016263.63646  24723213.1924   24723215.3254
     -1023.2504       -797.3384
  -6139329.03746  -4711988.45346  23990726.8954   23990729.9774
       270.0634        210.4384
    466245.33345    335536.01345  26301723.5364   26301726.0444
     -1105.3124       -861.2824
 96  8 31 18 23 30.0090000  0  7G17G28G 6G21G26G23G22
  -4536412.18047  -5607381.25147  23431215.8334   23431218.7744
      -671.7664       -523.4544
  -6922175.791 6  -5393900.297 6  24374355.485    24374353.911
      1028.484         801.416
   -674393.19146   -397492.68246  23340799.5754   23340802.1184
     -3114.0314      -2426.5184
   -570953.87843   -384560.83743  26971364.4504   26971368.0364
      1589.5314       1238.5964
  -1299330.58546   -992115.65646  24729110.6774   24729112.8564
     -1043.0474       -812.7644
  -6147213.01946  -4718131.80246  23989226.6304   23989229.7354
       255.5474        199.1274
    499667.26145    361579.05844  26308082.1694   26308085.4624
     -1122.9534       -875.0284
 96  8 31 18 24  0.0090000  0  7G17G28G 6G21G26G23G22
  -4516142.24347  -5591586.49547  23435073.2474   23435076.0484
      -679.7664       -529.6874
  -6952856.021 6  -5417806.962 6  24368517.091    24368515.505
      1016.703         792.236
   -580717.59147   -324498.72947  23358625.8494   23358628.1104
     -3131.0004      -2439.7404
   -618545.46144   -421645.10743  26962308.6304   26962313.9384
      1583.2034       1233.6654
  -1267727.38146   -967489.77946  24735124.2944   24735126.6264
     -1064.0624       -829.1404
  -6154667.52546  -4723940.49946  23987808.2164   23987811.2744
       241.3284        188.0484
    533622.59045    388037.75544  26314544.3024   26314547.3374
     -1140.8754       -888.9944
 96  8 31 18 24 30.0090000  0  7G17G28G 6G21G26G23G22
  -4495631.13647  -5575603.81347  23438976.0444   23438979.1854
      -687.6564       -535.8364
  -6983189.987 6  -5441443.811 6  24362744.657    24362743.216
      1005.578         783.567
   -486550.58147   -251121.86746  23376545.2554   23376547.3414
     -3146.8124      -2452.0624
   -665951.32844   -458584.69943  26953286.8804   26953292.6104
      1577.1414       1228.9414
  -1235497.17046   -942375.32146  24741257.6064   24741259.5874
     -1084.5314       -845.0894
  -6161708.27646  -4729426.78746  23986468.3884   23986471.2944
       228.2504        177.8574
    568105.38345    414907.43545  26321105.5134   26321108.1144
     -1157.9694       -902.3134
 96  8 31 18 25  0.0090000  0  7G17G28G 6G21G26G23G22
  -4474876.42646  -5559431.31147  23442925.5444   23442928.6854
      -695.7664       -542.1554
  -7013178.490 6  -5464811.468 6  24357037.977    24357036.630
       993.828         774.412
   -391892.96147   -177362.70247  23394558.2864   23394560.4544
     -3163.5004      -2465.0654
   -713163.00344   -495372.97942  26944303.8494   26944308.4194
      1570.5634       1223.8154
  -1202652.73246   -916782.25346  24747507.7314   24747509.1144
     -1104.8444       -860.9174
  -6168355.95046  -4734606.77646  23985203.0834   23985206.3764
       215.1564        167.6544
    603111.04845    442184.58144  26327767.6224   26327772.0634
     -1175.6564       -916.0964
 96  8 31 18 25 30.0090000  0  7G17G28G 6G21G26G23G22
  -4453887.04746  -5543075.95247  23446919.6454   23446922.9744
      -703.8284       -548.4374
  -7042816.357 6  -5487905.901 6  24351398.145    24351396.731
       981.859         765.085
   -296738.25147   -103216.19847  23412665.4354   23412667.5444
     -3180.3124      -2478.1664
   -760186.23844   -532014.42243  26935355.4354   26935359.0204
      1564.0944       1218.7744
  -1169205.18946   -890719.22546  24753872.5204   24753874.4664
     -1125.2974       -876.8554
  -6174613.92246  -4739483.10446  23984012.3724   23984015.6534
       201.9534        157.3664
    638656.80945    469882.55945  26334532.4034   26334535.5674
     -1194.3444       -930.6574
 96  8 31 18 26  0.0090000  0  7G17G28G 6G21G26G23G22
  -4432658.98946  -5526534.60647  23450959.5524   23450962.7744
      -711.5784       -554.4764
  -7072103.246 6  -5510726.842 6  24345825.177    24345823.458
       970.438         756.185
   -201084.64347    -28680.94147  23430867.7784   23430869.9114
     -3196.8124      -2491.0234
   -807028.61244   -568514.91043  26926440.8174   26926445.9974
      1558.5314       1214.4404
  -1135154.50846   -864186.22246  24760352.2314   24760354.1064
     -1144.7194       -891.9894
  -6180481.35446  -4744055.11446  23982895.7554   23982899.0834
       188.9064        147.2004
    674756.91145    498012.50143  26341401.3414   26341404.5874
     -1212.5004       -944.8054
 96  8 31 18 26 30.0090000  0  7G17G28G 6G21G26G23G22
  -4411180.54946  -5509798.16147  23455046.4274   23455049.8254
      -720.0004       -561.0394
  -7101033.161 6  -5533269.626 6  24340320.044    24340318.302
       958.422         746.822
   -104914.31047     46256.96647  23449168.3884   23449170.4274
     -3214.3594      -2504.6964
   -853682.44744   -604868.49343  26917562.9744   26917569.4074
      1551.9064       1209.2784
  -1100514.96346   -837194.36646  24766943.7394   24766945.9424
     -1164.4224       -907.3424
  -6185935.33746  -4748304.96046  23981857.9814   23981861.5094
       174.9534        136.3274
    711417.28045    526579.00444  26348376.2784   26348380.8844
     -1231.3124       -959.4644
 96  8 31 18 27  0.0090000  0  7G17G28G 6G21G26G23G22
  -4389451.84046  -5492866.69947  23459181.2164   23459184.4854
      -728.2194       -567.4434
  -7129596.718 6  -5555526.932 6  24334884.575    24334882.880
       946.141         737.252
     -8217.58147    121605.04747  23467569.1304   23467571.2984
     -3231.6094      -2518.1374
   -900141.19344   -641070.08743  26908722.0204   26908725.0914
      1545.6884       1204.4324
  -1065275.91846   -809735.36146  24773649.6924   24773651.9424
     -1184.5624       -923.0364
  -6190967.60646  -4752226.19746  23980900.0524   23980903.6264
       160.7974        125.2964
    748642.36545    555585.57244  26355460.7004   26355465.2244
     -1250.0944       -974.0994
 96  8 31 18 27 30.0090000  0  7G17G28G 6G21G26G23G22
  -4367476.55446  -5475743.09947  23463363.2864   23463366.6024
      -736.7034       -574.0544
  -7157794.576 6  -5577499.287 6  24329518.606    24329517.036
       933.813         727.646
     88986.04047    197348.11047  23486066.1064   23486068.4384
     -3248.6414      -2531.4084
   -946417.09544   -677129.17243  26899916.5754   26899920.4774
      1539.4224       1199.5504
  -1029432.70446   -781805.58746  24780470.2554   24780472.5994
     -1204.9374       -938.9124
  -6195574.29646  -4755815.81246  23980023.5914   23980027.1534
       146.3134        114.0104
    786430.06945    585030.52544  26362651.6854   26362655.1534
     -1268.8124       -988.6854
 96  8 31 18 28  0.0090000  0  7G17G28G 6G21G26G23G22
  -4345242.95946  -5458418.22347  23467594.1534   23467597.6224
      -745.3754       -580.8124
  -7185621.512 6  -5599182.606 6  24324223.208    24324221.833
       921.281         717.881
    186706.98447    273494.27247  23504661.8954   23504664.3924
     -3266.0784      -2544.9964
   -992505.60444   -713042.25344  26891145.9894   26891150.7244
      1533.2664       1194.7524
   -992983.38946   -753403.52046  24787406.6384   24787408.4194
     -1224.8754       -954.4484
  -6199745.49446  -4759066.08146  23979229.8724   23979233.2244
       131.7974        102.6994
    824767.66345    614903.96144  26369948.1924   26369952.4114
     -1287.0624      -1002.9064
 96  8 31 18 28 30.0090000  0  7G17G28G 6G21G26G23G22
  -4322774.89546  -5440910.64447  23471869.4664   23471872.9114
      -752.5314       -586.3884
  -7213088.137 6  -5620585.167 6  24318996.606    24318994.974
       909.766         708.908
    284924.77547    350027.59446  23523352.5834   23523354.8104
     -3281.7504      -2557.2084
  -1038433.30244   -748830.03643  26882406.3414   26882411.7674
      1528.6094       1191.1244
   -955954.99046   -724550.22446  24794452.6384   24794455.0634
     -1243.6874       -969.1074
  -6203511.64446  -4762000.73046  23978513.5914   23978516.5794
       119.2814         92.9464
    863636.89445    645191.65045  26377344.0834   26377345.8764
     -1304.2504      -1016.2994
 96  8 31 18 29  0.0090000  0  7G17G28G 6G21G26G23G22
  -4300074.45446  -5423221.99447  23476189.2704   23476192.5634
      -760.9844       -592.9754
  -7240190.696 6  -5641704.034 6  24313839.153    24313837.505
       896.938         698.912
    383625.69646    426937.37947  23542134.2944   23542136.7084
     -3298.5944      -2570.3334
  -1084211.36944   -784501.18644  26873695.0674   26873700.0484
      1523.0474       1186.7904
   -918347.84346   -695245.95146  24801609.3804   24801611.5714
     -1263.4844       -984.5334
  -6206883.46546  -4764628.11246  23977871.7704   23977874.8524
       105.3754         82.1104
    903039.76245    675895.17445  26384843.3024   26384846.9584
     -1322.8444      -1030.7874
 96  8 31 18 29 30.0090000  0  7G17G28G 6G21G26G23G22
  -4277121.94446  -5405336.92047  23480557.0524   23480560.4384
      -769.2814       -599.4404
  -7266916.146 6  -5662529.051 6  24308753.563    24308751.888
       884.672         689.355
    482836.13347    504244.19547  23561013.3804   23561015.6884
     -3315.5944      -2583.5804
  -1129819.94444   -820040.29344  26865015.6454   26865021.2824
      1517.3914       1182.3824
   -880160.09046   -665489.26146  24808876.1064   24808878.3924
     -1282.5164       -999.3634
  -6209844.33546  -4766935.27346  23977308.1924   23977311.2984
        91.8754         71.5914
    942997.96145    707031.42045  26392447.3104   26392450.4504
     -1341.0474      -1044.9724
 96  8 31 18 30  0.0090000  0  7G17G28G 6G21G26G23G22
  -4253916.02546  -5387254.38947  23484973.1774   23484976.4704
      -777.6094       -605.9294
  -7293270.849 6  -5683065.170 6  24303738.345    24303736.841
       872.375         679.773
    582557.43846    581949.08846  23579989.6924   23579992.1184
     -3332.1874      -2596.5104
  -1175254.18244   -855443.54243  26856369.6304   26856374.8104
      1511.5314       1177.8174
   -841397.99846   -635285.03546  24816252.3954   24816254.7164
     -1301.5004      -1014.1564
  -6212400.89846  -4768927.38446  23976822.0284   23976825.1344
        78.7344         61.3514
    983501.57645    738592.65943  26400153.2634   26400157.1534
     -1359.1094      -1059.0464
 96  8 31 18 30 30.0090000  0  7G17G28G 6G21G26G23G22
  -4230462.70746  -5368979.07647  23489436.0204   23489438.9744
      -785.8124       -612.3214
  -7319252.248 6  -5703310.410 6  24298794.212    24298792.810
       859.922         670.069
    682770.07547    660036.83147  23599059.8564   23599062.2474
     -3348.4534      -2609.1844
  -1220498.53544   -890698.85143  26847759.8414   26847763.8374
      1504.8914       1172.6424
   -802051.70446   -604625.58446  24823739.6384   24823741.7354
     -1321.5004      -1029.7404
  -6214556.10346  -4770606.75446  23976411.7704   23976414.7824
        65.0164         50.6624
   1024546.80145    770575.95345  26407964.4194   26407967.3494
     -1376.9844      -1072.9754
 96  8 31 18 31  0.0090000  0  7G17G28G 6G21G26G23G22
  -4206750.16246  -5350501.76547  23493948.2864   23493951.5794
      -794.5004       -619.0914
  -7344849.262 6  -5723256.131 6  24293923.145    24293921.739
       846.969         659.976
    783485.87047    738516.64847  23618225.5524   23618228.1184
     -3365.5784      -2622.5284
  -1265523.29844   -925783.03244  26839192.0284   26839197.3724
      1497.2194       1166.6644
   -762086.36846   -573483.75846  24831344.3954   24831346.9034
     -1342.5004      -1046.1044
  -6216278.81746  -4771949.11446  23976083.7394   23976086.7514
        50.2974         39.1924
   1066135.51945    802982.74044  26415878.6854   26415883.0204
     -1395.1564      -1087.1354
 96  8 31 18 31 30.0090000  0  7G17G28G 6G21G26G23G22
  -4182789.75446  -5331831.32047  23498507.6454   23498510.9744
      -802.9224       -625.6534
  -7370069.063 6  -5742907.918 6  24289124.075    24289122.599
       834.203         650.028
    884702.48347    817386.71246  23637486.3724   23637488.7164
     -3382.2344      -2635.5074
  -1310333.13044   -960699.73643  26830665.1144   26830671.2784
      1490.0634       1161.0884
   -721499.15346   -541857.35846  24839068.1224   24839070.5134
     -1363.6724      -1062.6014
  -6217577.54946  -4772961.10046  23975836.9034   23975840.0094
        36.1254         28.1494
   1108248.92645    835798.36345  26423890.6614   26423894.8454
     -1412.3914      -1100.5644
 96  8 31 18 32  0.0090000  0  7G17G28G 6G21G26G23G22
  -4158600.44646  -5312982.50747  23503110.9894   23503114.2474
      -810.0784       -631.2304
  -7394914.451 6  -5762267.960 6  24284396.110    24284394.544
       821.781         640.349
    986400.97046    896632.26846  23656838.8954   23656841.1924
     -3398.0004      -2647.7924
    -28233.85254   -995463.60843  26822176.0914   26822180.5914
      1483.8594       1156.2544
   -680282.08946   -509740.16546  24846911.0204   24846913.2354
     -1384.4694      -1078.8074
  -6218463.93446  -4773651.77746  23975668.0754   23975671.2864
        22.6414         17.6424
   1150859.16545    869001.12943  26432000.4664   26432003.4544
     -1428.7504      -1113.3124
 96  8 31 18 32 30.0090000  0  7G17G28G 6G21G26G23G22
  -4134181.85346  -5293955.03247  23507757.5834   23507761.1454
      -817.7664       -637.2204
  -7419365.763 6  -5781320.925 6  24279743.106    24279741.528
       808.500         630.000
   1088595.30046    976264.19047  23676286.1774   23676288.5674
     -3414.7974      -2660.8814
    -72646.43345  -1030070.76244  26813723.9894   26813728.0794
      1477.2034       1151.0674
   -638420.59246   -477120.82246  24854877.1614   24854879.6574
     -1406.1874      -1095.7314
  -6218926.39846  -4774012.12846  23975579.9354   23975583.1104
         8.2814          6.4534
   1193980.64945    902602.26645  26440207.8024   26440211.9274
     -1445.9534      -1126.7174
 96  8 31 18 33  0.0090000  0  7G17G28G 6G21G26G23G22
  -4109523.38746  -5274740.64647  23512449.9664   23512453.3524
      -826.3124       -643.8804
  -7443417.649 6  -5800062.646 6  24275166.196    24275164.747
       794.781         619.310
   1191295.27446   1056290.11546  23695828.9584   23695831.4664
     -3432.0004      -2674.2864
   -116863.43145  -1064525.52545  26805309.8104   26805313.7004
      1470.3914       1145.7594
   -595911.61746   -443996.95046  24862966.3174   24862968.5914
     -1427.8754      -1112.6304
  -6218958.42046  -4774037.07046  23975573.8724   23975576.9664
        -6.1254         -4.7734
   1237623.07945    936609.36145  26448513.3174   26448516.8804
     -1463.7344      -1140.5724
 96  8 31 18 33 30.0090000  0  7G17G28G 6G21G26G23G22
  -4084621.19147  -5255336.33947  23517188.8254   23517192.2354
      -834.0624       -649.9194
  -7467074.804 6  -5818496.793 6  24270664.239    24270662.841
       782.156         609.472
   1294491.38046   1136702.64446  23715466.7164   23715469.3064
     -3447.8914      -2686.6684
   -160890.71245  -1098832.45645  26796931.7244   26796936.0954
      1464.5004       1141.1694
   -552775.12046   -410384.09346  24871174.9974   24871177.7044
     -1448.0474      -1128.3484
  -6218583.95646  -4773745.26146  23975645.1064   23975648.2944
       -19.0784        -14.8664
   1281782.44345    971019.22545  26456914.7244   26456917.9704
     -1480.4844      -1153.6244
 96  8 31 18 34  0.0090000  0  7G17G28G 6G21G26G23G22
  -4059470.93847  -5235738.73947  23521974.9814   23521977.9704
      -842.9064       -656.8104
  -7490336.785 6  -5836623.005 6  24266237.688    24266236.216
       768.484         598.819
   1398179.93646   1217498.89446  23735197.8564   23735200.1774
     -3464.8444      -2699.8784
   -204720.97645  -1132985.87744  26788591.2784   26788596.6344
      1457.2974       1135.5564
   -509026.38446   -376294.16846  24879500.2004   24879502.3684
     -1468.6094      -1144.3714
  -6217799.90146  -4773134.29646  23975794.1224   23975797.2744
       -33.3444        -25.9824
   1326471.22045   1005841.62043  26465417.9744   26465421.6654
     -1499.1094      -1168.1374
 96  8 31 18 34 30.0090000  0  7G17G28G 6G21G26G23G22
  -4034050.36347  -5215930.49847  23526812.1454   23526815.1694
      -851.6414       -663.6164
  -7513191.624 6  -5854431.964 6  24261888.700    24261887.091
       755.328         588.567
   1502376.61146   1298691.08346  23755026.0204   23755028.3764
     -3481.5004      -2712.8574
   -248329.19845  -1166966.26844  26780292.8804   26780296.8884
      1450.2034       1130.0284
   -464666.99946   -341728.42746  24887941.4744   24887943.5604
     -1488.5624      -1159.9194
  -6216590.59746  -4772191.96846  23976024.3104   23976027.5794
       -47.1094        -36.7094
   1371723.74745   1041103.32443  26474029.7314   26474033.7984
     -1517.5164      -1182.4804
 96  8 31 18 35  0.0090000  0  7G17G28G 6G21G26G23G22
  -4008360.82147  -5195912.67547  23531700.8884   23531703.7944
      -860.5314       -670.5444
  -7535645.933 6  -5871928.825 6  24257615.759    24257614.130
       741.938         578.133
   1607079.46846   1380277.69546  23774950.2554   23774952.5634
     -3498.5004      -2726.1044
   -291723.34445  -1200779.84244  26772034.9194   26772038.2704
      1443.1254       1124.5134
   -419711.13246   -306697.87446  24896496.2244   24896498.6494
     -1508.1564      -1175.1874
  -6214964.43546  -4770924.81946  23976333.6534   23976337.1454
       -60.7814        -47.3624
   1417531.60745   1076797.75845  26482746.8564   26482751.5794
     -1536.1254      -1196.9814
 96  8 31 18 35 30.0090000  0  7G17G28G 6G21G26G23G22
  -3982408.31247  -5175689.94047  23536639.2784   23536642.1264
      -869.3754       -677.4354
  -7557695.775 6  -5889110.518 6  24253419.895    24253418.263
       728.250         567.468
   1712300.02846   1462267.71346  23794973.1384   23794975.5174
     -3515.9374      -2739.6924
   -334909.51245  -1234431.35544  26763816.4584   26763821.1224
      1436.3134       1119.2054
   -374164.61946   -271207.08946  24905163.5364   24905165.9274
     -1528.0944      -1190.7224
  -6212928.61446  -4769338.45246  23976721.0284   23976724.1574
       -74.8124        -58.2954
   1463908.00245   1112935.18544  26491572.0134   26491575.1884
     -1555.4534      -1212.0414
 96  8 31 18 36  0.0090000  0  7G17G28G 6G21G26G23G22
  -3956205.73247  -5155272.34547  23541625.3724   23541628.3374
      -877.9064       -684.0834
  -7579340.191 6  -5905976.288 6  24249301.032    24249299.364
       714.313         556.607
   1818027.54546   1544652.77046  23815092.1774   23815094.5914
     -3532.9374      -2752.9384
   -377902.05844  -1267931.98545  26755635.5524   26755639.7244
      1429.5004       1113.8964
   -328022.57946   -235252.25346  24913944.1224   24913946.9354
     -1548.5784      -1206.6844
  -6210480.41746  -4767430.75146  23977187.2634   23977190.5564
       -88.6564        -69.0834
   1510851.03345   1149514.16344  26500504.7704   26500509.0604
     -1574.4064      -1226.8104
 96  8 31 18 36 30.0090000  0  7G17G28G 6G21G26G23G22
  -3929751.16647  -5134658.40347  23546659.7244   23546662.6304
      -885.6874       -690.1464
  -7600569.826 6  -5922518.859 6  24245261.220    24245259.591
       700.984         546.222
   1924260.71246   1627431.84246  23835307.8884   23835310.2314
     -3549.1724      -2765.5884
   -420697.69845  -1301279.18945  26747491.7244   26747496.1654
      1423.7194       1109.3914
   -281261.17646   -198814.80246  24922842.3414   24922844.9074
     -1568.8124      -1222.4514
  -6207630.18846  -4765209.78346  23977729.5054   23977732.3524
      -101.4224        -79.0304
   1558344.94445   1186522.39544  26509542.9114   26509547.0714
     -1591.6874      -1240.2764
 96  8 31 18 37  0.0090000  0  7G17G28G 6G21G26G23G22
  -3903045.81847  -5113849.04347  23551741.5524   23551744.6454
      -894.2814       -696.8434
  -7621383.355 6  -5938737.189 6  24241300.622    24241298.903
       687.016         535.337
   2030990.78346   1710598.11146  23855618.0444   23855620.5524
     -3565.6094      -2778.3974
   -463306.33345  -1334480.68744  26739383.5914   26739388.1614
      1417.2504       1104.3514
   -233878.26746   -161893.05246  24931859.2394   24931861.7124
     -1589.6094      -1238.6574
  -6204369.17146  -4762668.71546  23978349.9814   23978353.1694
      -115.5784        -90.0614
   1606366.40845   1223941.67943  26518680.7474   26518683.7944
     -1609.3284      -1254.0224
 96  8 31 18 37 30.0090000  0  7G17G28G 6G21G26G23G22
  -3876081.32647  -5092837.75647  23556872.8494   23556875.7554
      -903.1094       -703.7224
  -7641780.325 6  -5954630.927 6  24237419.087    24237417.489
       672.984         524.403
   2138203.88246   1794140.76346  23876020.1924   23876022.6654
     -3581.6254      -2790.8774
   -505720.84945  -1367530.93045  26731312.0914   26731316.0874
      1410.4694       1099.0674
   -185870.15046   -124484.13346  24940995.1064   24940997.2744
     -1610.6564      -1255.0574
  -6200682.87346  -4759796.26346  23979051.5524   23979054.7744
      -130.1414       -101.4084
   1654913.38545   1261770.49745  26527920.4744   26527923.6494
     -1626.7504      -1267.5974
 96  8 31 18 38  0.0090000  0  7G17G28G 6G21G26G23G22
  -3848857.05746  -5071624.04147  23562053.1854   23562056.2784
      -912.1254       -710.7474
  -7661756.764 6  -5970196.980 6  24233617.767    24233616.114
       658.500         513.117
   2245894.92046   1878055.83246  23896512.9114   23896515.5244
     -3598.1564      -2803.7584
   -547920.21445  -1400413.50945  26723281.9814   26723286.9034
      1402.5784       1092.9184
   -137228.54546    -86581.58546  24950251.2704   24950253.4854
     -1632.4224      -1272.0174
  -6196557.64646  -4756581.79046  23979836.4664   23979839.3024
      -145.2664       -113.1944
   1703964.29245   1299991.96242  26537254.0054   26537257.7314
     -1643.6724      -1280.7834
